Site Date LOGGERID PROGID SNOWDEP_MED_0_0_01 SNOWDEP_QUAL_0_0_01 WSPD_PRO_MEAN_1000_0_01 WMAG_PRO_MEAN_1000_0_01 WDIR_PRO_MEAN_1000_0_01 WDIR_PRO_STDDEV_1000_0_01 DEWPT_MEAN_150_0_04 DEWPT_MEAN_450_0_01 VAPDEF150_AVG VAPDEF450_AVG AIRTEMP_MEAN_150_0_04 AIRTEMP_MEAN_250_0_03 AIRTEMP_MEAN_350_0_02 AIRTEMP_MEAN_450_0_01 RELHUM_MEAN_150_0_04 RELHUM_MEAN_450_0_01 WSPD_PRO_MAX_1000_0_01 AIRTEMP_MAX_150_0_04 AIRTEMP_MAX_250_0_03 AIRTEMP_MAX_350_0_02 AIRTEMP_MAX_450_0_01 AIRTEMP_MIN_150_0_04 AIRTEMP_MIN_250_0_03 AIRTEMP_MIN_350_0_02 AIRTEMP_MIN_450_0_01 DEWPT_MAX_150_0_04 DEWPT_MAX_450_0_01 DEWPT_MIN_150_0_04 DEWPT_MIN_450_0_01 SATVP_MEAN_150_0_04 VAP_MEAN_150_0_04 VPD_MEAN_150_0_04 SATVP_MEAN_450_0_01 VAP_MEAN_450_0_01 VPD_MEAN_450_0_01
PRIMET_226 2016-10-01 00:00:00 226 156.7 0.00 196 0.007 0.007 201.100 0.084 6.470 6.097 1.168 1.522 8.14 8.240 8.360 8.280 89.200 86.100 0.007 8.22 8.330 8.440 8.320 8.04 8.160 8.280 8.240 6.501 6.114 6.420 6.078 10.830 9.659 1.170 10.933 9.414 1.520
PRIMET_226 2016-09-30 23:55:00 226 156.7 0.00 197 0.007 0.007 201.100 0.088 6.454 6.153 1.276 1.548 8.27 8.410 8.520 8.370 88.300 85.900 0.007 8.31 8.470 8.580 8.400 8.22 8.330 8.450 8.330 6.526 6.195 6.384 6.122 10.926 9.649 1.278 11.000 9.450 1.551
PRIMET_226 2016-09-30 23:50:00 226 156.7 0.00 187 0.007 0.007 201.100 0.088 6.492 6.200 1.260 1.542 8.28 8.490 8.590 8.400 88.500 86.000 0.007 8.31 8.500 8.600 8.410 8.26 8.470 8.580 8.390 6.531 6.226 6.456 6.176 10.933 9.674 1.257 11.023 9.481 1.543
PRIMET_226 2016-09-30 23:45:00 226 156.7 0.00 187 0.007 0.007 201.100 0.088 6.455 6.191 1.270 1.547 8.26 8.480 8.590 8.400 88.400 86.000 0.007 8.28 8.490 8.600 8.410 8.24 8.470 8.590 8.390 6.475 6.228 6.422 6.167 10.918 9.649 1.267 11.023 9.475 1.543
PRIMET_226 2016-09-30 23:40:00 226 156.7 0.00 195 0.007 0.007 201.100 0.088 6.504 6.189 1.241 1.547 8.27 8.480 8.590 8.400 88.600 86.000 0.007 8.29 8.500 8.600 8.410 8.22 8.450 8.570 8.370 6.541 6.236 6.476 6.138 10.926 9.682 1.246 11.023 9.474 1.543
PRIMET_226 2016-09-30 23:35:00 226 156.7 0.00 195 0.007 0.007 201.100 0.088 6.501 6.149 1.167 1.550 8.16 8.390 8.530 8.370 89.200 85.900 0.007 8.21 8.440 8.560 8.380 8.14 8.360 8.510 8.350 6.565 6.175 6.452 6.109 10.844 9.680 1.171 11.000 9.447 1.551
PRIMET_226 2016-09-30 23:30:00 226 156.7 0.00 197 0.007 0.007 201.100 0.088 6.530 6.092 1.182 1.605 8.21 8.420 8.550 8.390 89.100 85.400 0.007 8.27 8.480 8.590 8.410 8.15 8.370 8.520 8.360 6.574 6.109 6.451 6.068 10.881 9.699 1.186 11.015 9.410 1.608
PRIMET_226 2016-09-30 23:25:00 226 156.7 0.00 190 0.007 0.007 201.100 0.088 6.517 6.169 1.223 1.579 8.25 8.480 8.600 8.420 88.800 85.700 0.007 8.27 8.500 8.610 8.440 8.24 8.480 8.590 8.400 6.574 6.211 6.444 6.108 10.911 9.691 1.222 11.038 9.461 1.578
PRIMET_226 2016-09-30 23:20:00 226 156.7 0.00 196 0.007 0.007 201.100 0.088 6.545 6.200 1.213 1.565 8.26 8.530 8.640 8.430 88.900 85.800 0.007 8.28 8.550 8.650 8.440 8.25 8.500 8.610 8.410 6.589 6.220 6.487 6.169 10.918 9.709 1.212 11.045 9.481 1.568
PRIMET_226 2016-09-30 23:15:00 226 156.7 0.00 194 0.007 0.007 201.100 0.088 6.431 6.142 1.283 1.597 8.26 8.540 8.640 8.420 88.200 85.500 0.007 8.27 8.550 8.650 8.440 8.24 8.530 8.630 8.410 6.472 6.179 6.406 6.083 10.918 9.633 1.288 11.038 9.443 1.600
PRIMET_226 2016-09-30 23:10:00 226 156.7 0.00 195 0.007 0.007 201.100 0.088 6.385 6.046 1.315 1.649 8.26 8.530 8.630 8.410 88.000 85.000 0.007 8.27 8.550 8.650 8.420 8.24 8.510 8.620 8.400 6.463 6.092 6.331 6.024 10.918 9.603 1.310 11.030 9.380 1.655
PRIMET_226 2016-09-30 23:05:00 226 156.7 0.00 195 0.007 0.007 201.100 0.084 6.338 6.043 1.338 1.640 8.25 8.510 8.610 8.390 87.700 85.100 0.007 8.27 8.530 8.620 8.400 8.23 8.490 8.590 8.380 6.371 6.069 6.317 6.015 10.911 9.572 1.342 11.015 9.378 1.641
PRIMET_226 2016-09-30 23:00:00 226 156.7 0.00 195 0.007 0.007 201.100 0.088 6.448 6.058 1.252 1.618 8.23 8.470 8.580 8.380 88.500 85.300 0.007 8.25 8.490 8.600 8.400 8.20 8.440 8.560 8.360 6.568 6.103 6.339 5.999 10.896 9.645 1.253 11.008 9.388 1.618
PRIMET_226 2016-09-30 22:55:00 226 156.7 0.00 192 0.007 0.007 201.100 0.079 6.361 6.012 1.313 1.632 8.24 8.440 8.550 8.360 88.000 85.200 0.007 8.25 8.440 8.560 8.370 8.23 8.430 8.540 8.340 6.496 6.051 6.273 5.963 10.904 9.587 1.308 10.993 9.358 1.627
PRIMET_226 2016-09-30 22:50:00 226 156.7 0.00 190 0.007 0.007 201.100 0.084 6.482 6.039 1.257 1.632 8.27 8.460 8.560 8.380 88.500 85.200 0.007 8.30 8.500 8.600 8.410 8.24 8.430 8.530 8.350 6.562 6.086 6.368 5.986 10.926 9.667 1.256 11.008 9.376 1.629
PRIMET_226 2016-09-30 22:45:00 226 156.7 0.00 196 0.007 0.007 201.100 0.093 6.433 6.117 1.341 1.619 8.34 8.540 8.630 8.430 87.800 85.300 0.007 8.37 8.580 8.670 8.460 8.30 8.490 8.590 8.400 6.476 6.159 6.399 6.085 10.978 9.635 1.339 11.045 9.427 1.624
PRIMET_226 2016-09-30 22:40:00 226 156.7 0.00 196 0.007 0.007 201.200 0.079 6.415 6.081 1.336 1.613 8.31 8.540 8.630 8.390 87.800 85.400 0.007 8.38 8.600 8.680 8.450 8.24 8.460 8.560 8.340 6.535 6.147 6.337 6.016 10.956 9.623 1.337 11.015 9.403 1.608
PRIMET_226 2016-09-30 22:35:00 226 156.7 0.00 191 0.171 0.169 195.900 7.128 6.369 6.025 1.320 1.607 8.25 8.460 8.550 8.330 87.900 85.400 0.510 8.27 8.480 8.570 8.350 8.23 8.430 8.530 8.320 6.454 6.062 6.301 6.004 10.911 9.592 1.320 10.970 9.367 1.602
PRIMET_226 2016-09-30 22:30:00 226 156.7 0.00 192 0.007 0.007 182.700 0.131 6.354 5.995 1.337 1.625 8.26 8.480 8.570 8.330 87.800 85.200 0.007 8.29 8.500 8.590 8.360 8.22 8.460 8.550 8.310 6.417 6.065 6.302 5.917 10.918 9.582 1.332 10.970 9.347 1.624
PRIMET_226 2016-09-30 22:25:00 226 156.7 0.00 196 0.068 0.068 175.000 5.968 6.310 5.917 1.302 1.639 8.17 8.410 8.510 8.280 88.000 85.000 0.261 8.22 8.460 8.540 8.300 8.15 8.380 8.490 8.270 6.418 6.004 6.212 5.862 10.852 9.553 1.302 10.933 9.297 1.640
PRIMET_226 2016-09-30 22:20:00 226 156.7 0.00 191 0.139 0.139 207.800 0.319 6.249 5.969 1.328 1.593 8.16 8.400 8.510 8.270 87.700 85.400 0.542 8.17 8.410 8.520 8.300 8.13 8.380 8.460 8.230 6.341 6.016 6.135 5.931 10.844 9.513 1.334 10.926 9.331 1.595
PRIMET_226 2016-09-30 22:15:00 226 156.7 0.00 196 0.007 0.006 206.200 14.220 6.173 5.873 1.319 1.599 8.08 8.330 8.430 8.190 87.800 85.300 0.007 8.11 8.370 8.460 8.220 8.05 8.300 8.420 8.170 6.331 5.954 6.105 5.809 10.786 9.463 1.316 10.867 9.269 1.597
PRIMET_226 2016-09-30 22:10:00 226 156.7 0.00 190 0.007 0.007 223.200 0.158 6.314 5.947 1.172 1.507 8.00 8.280 8.380 8.130 89.100 86.100 0.007 8.06 8.340 8.430 8.170 7.93 8.210 8.320 8.090 6.409 5.994 6.223 5.900 10.727 9.556 1.169 10.822 9.316 1.504
PRIMET_226 2016-09-30 22:05:00 226 156.7 0.00 187 0.007 0.007 223.000 0.000 6.139 5.831 1.223 1.547 7.91 8.200 8.310 8.080 88.500 85.700 0.007 7.93 8.220 8.330 8.100 7.89 8.180 8.300 8.060 6.268 5.930 6.088 5.751 10.664 9.441 1.226 10.786 9.242 1.542
PRIMET_226 2016-09-30 22:00:00 226 156.7 0.00 177 0.007 0.007 223.200 0.084 6.045 5.734 1.256 1.578 7.87 8.160 8.280 8.040 88.200 85.300 0.007 7.90 8.190 8.310 8.070 7.83 8.130 8.260 8.020 6.165 5.812 5.967 5.680 10.635 9.380 1.255 10.756 9.180 1.581
PRIMET_226 2016-09-30 21:55:00 226 156.7 0.00 196 0.007 0.007 223.200 0.000 6.077 5.769 1.151 1.479 7.76 8.070 8.190 7.937 89.100 86.200 0.007 7.82 8.130 8.250 8.020 7.72 8.020 8.140 7.872 6.165 5.864 6.001 5.678 10.551 9.401 1.150 10.681 9.202 1.474
PRIMET_226 2016-09-30 21:50:00 226 156.7 0.00 196 0.007 0.007 223.200 0.000 6.050 5.704 1.082 1.443 7.64 7.946 8.070 7.829 89.700 86.400 0.007 7.72 8.010 8.130 7.876 7.52 7.834 7.980 7.762 6.108 5.730 5.948 5.663 10.465 9.383 1.078 10.603 9.161 1.442
PRIMET_226 2016-09-30 21:45:00 226 156.7 0.00 178 0.007 0.007 223.200 0.000 5.997 5.639 1.008 1.403 7.49 7.787 7.935 7.718 90.300 86.700 0.007 7.51 7.826 7.972 7.752 7.47 7.768 7.909 7.695 6.051 5.662 5.962 5.622 10.357 9.349 1.005 10.523 9.119 1.400
PRIMET_226 2016-09-30 21:40:00 226 156.7 0.00 195 0.007 0.007 223.200 0.000 6.016 5.692 0.971 1.352 7.45 7.754 7.904 7.694 90.600 87.100 0.007 7.48 7.771 7.915 7.712 7.42 7.740 7.884 7.675 6.070 5.712 5.970 5.672 10.332 9.361 0.971 10.505 9.153 1.355
PRIMET_226 2016-09-30 21:35:00 226 156.7 0.00 173 0.007 0.007 223.200 0.000 6.054 5.678 0.901 1.301 7.39 7.691 7.815 7.610 91.200 87.500 0.007 7.43 7.748 7.881 7.668 7.35 7.631 7.752 7.554 6.136 5.702 5.991 5.628 10.287 9.386 0.905 10.445 9.144 1.306
PRIMET_226 2016-09-30 21:30:00 226 156.7 0.00 196 0.007 0.007 223.200 0.000 5.931 5.624 0.928 1.275 7.31 7.574 7.700 7.525 90.900 87.700 0.007 7.36 7.618 7.752 7.548 7.27 7.516 7.644 7.487 6.009 5.649 5.854 5.562 10.234 9.306 0.931 10.385 9.110 1.277
PRIMET_226 2016-09-30 21:25:00 226 156.7 0.00 191 0.007 0.007 223.200 0.000 5.790 5.513 0.965 1.297 7.24 7.469 7.603 7.458 90.500 87.400 0.007 7.28 7.519 7.636 7.481 7.20 7.433 7.576 7.437 5.862 5.548 5.746 5.477 10.181 9.215 0.967 10.337 9.040 1.303
PRIMET_226 2016-09-30 21:20:00 226 156.7 0.00 188 0.007 0.007 223.200 0.000 5.706 5.457 0.965 1.305 7.16 7.415 7.562 7.419 90.500 87.300 0.007 7.20 7.435 7.577 7.437 7.11 7.389 7.545 7.394 5.743 5.469 5.658 5.443 10.127 9.162 0.962 10.310 9.005 1.309
PRIMET_226 2016-09-30 21:15:00 226 156.7 0.00 194 0.007 0.007 223.200 0.028 5.808 5.552 0.858 1.222 7.10 7.384 7.540 7.385 91.500 88.100 0.007 7.11 7.404 7.556 7.404 7.07 7.364 7.513 7.350 5.859 5.605 5.725 5.466 10.086 9.227 0.857 10.286 9.064 1.224
PRIMET_226 2016-09-30 21:10:00 226 156.7 0.00 192 0.007 0.007 223.000 0.000 5.832 5.537 0.773 1.174 7.00 7.303 7.456 7.304 92.300 88.500 0.007 7.07 7.359 7.510 7.357 6.90 7.231 7.392 7.243 5.899 5.594 5.725 5.453 10.015 9.242 0.771 10.229 9.055 1.176
PRIMET_226 2016-09-30 21:05:00 226 156.7 0.00 196 0.007 0.007 224.600 0.964 5.718 5.434 0.741 1.165 6.84 7.152 7.322 7.199 92.500 88.500 0.007 6.90 7.231 7.390 7.243 6.82 7.068 7.240 7.166 5.739 5.455 5.698 5.416 9.911 9.170 0.743 10.156 8.990 1.168
PRIMET_226 2016-09-30 21:00:00 226 156.7 0.00 196 0.007 0.007 225.200 0.000 5.650 5.394 0.763 1.155 6.81 7.045 7.210 7.149 92.300 88.600 0.007 6.83 7.066 7.235 7.175 6.79 7.026 7.184 7.132 5.678 5.438 5.635 5.359 9.889 9.126 0.761 10.121 8.965 1.154
PRIMET_226 2016-09-30 20:55:00 226 156.7 0.00 178 0.007 0.007 225.200 0.000 5.633 5.360 0.752 1.163 6.78 6.965 7.148 7.129 92.400 88.500 0.007 6.80 7.028 7.192 7.142 6.76 6.913 7.116 7.111 5.663 5.380 5.592 5.335 9.868 9.116 0.750 10.107 8.944 1.162
PRIMET_226 2016-09-30 20:50:00 226 156.7 0.00 195 0.007 0.007 225.200 0.000 5.560 5.292 0.778 1.194 6.75 6.880 7.084 7.114 92.100 88.200 0.007 6.78 6.931 7.114 7.137 6.73 6.861 7.066 7.094 5.645 5.334 5.512 5.252 9.848 9.070 0.778 10.097 8.902 1.191
PRIMET_226 2016-09-30 20:45:00 226 156.7 0.00 182 0.007 0.007 225.200 0.000 5.562 5.298 0.836 1.241 6.84 6.951 7.156 7.187 91.600 87.800 0.007 6.86 6.987 7.198 7.233 6.78 6.877 7.092 7.137 5.601 5.340 5.500 5.260 9.907 9.071 0.832 10.147 8.906 1.238
PRIMET_226 2016-09-30 20:40:00 226 156.7 0.00 186 0.007 0.007 225.200 0.000 5.616 5.344 0.857 1.265 6.92 7.043 7.232 7.261 91.400 87.600 0.007 6.96 7.093 7.273 7.299 6.87 6.998 7.201 7.230 5.656 5.370 5.591 5.323 9.962 9.105 0.857 10.199 8.934 1.265
PRIMET_226 2016-09-30 20:35:00 226 156.7 0.00 188 0.022 0.022 225.100 0.056 5.661 5.341 0.898 1.326 7.02 7.143 7.324 7.346 91.000 87.100 0.196 7.09 7.226 7.406 7.405 6.94 7.084 7.276 7.296 5.681 5.356 5.641 5.313 10.032 9.133 0.903 10.258 8.932 1.323
PRIMET_226 2016-09-30 20:30:00 226 156.7 0.00 196 0.029 0.029 225.000 0.000 5.679 5.358 0.976 1.406 7.15 7.304 7.474 7.474 90.400 86.400 0.163 7.23 7.380 7.549 7.535 7.09 7.231 7.409 7.395 5.703 5.379 5.655 5.326 10.120 9.145 0.972 10.349 8.943 1.407
PRIMET_226 2016-09-30 20:25:00 226 156.7 0.00 195 0.007 0.006 213.900 11.830 5.709 5.381 1.046 1.470 7.28 7.412 7.579 7.584 89.800 85.900 0.007 7.34 7.447 7.611 7.633 7.25 7.387 7.560 7.541 5.725 5.425 5.670 5.325 10.209 9.164 1.041 10.427 8.957 1.470
PRIMET_226 2016-09-30 20:20:00 226 156.7 0.00 191 0.007 0.007 199.500 0.079 5.700 5.392 1.168 1.546 7.44 7.549 7.699 7.700 88.700 85.300 0.007 7.51 7.641 7.782 7.766 7.34 7.429 7.606 7.636 5.723 5.420 5.652 5.360 10.325 9.158 1.167 10.510 8.964 1.545
PRIMET_226 2016-09-30 20:15:00 226 156.7 0.00 182 0.007 0.007 199.900 2.113 5.696 5.415 1.225 1.615 7.52 7.690 7.840 7.817 88.200 84.800 0.007 7.55 7.734 7.894 7.869 7.50 7.646 7.787 7.759 5.734 5.440 5.654 5.393 10.381 9.156 1.225 10.594 8.979 1.610
PRIMET_226 2016-09-30 20:10:00 226 156.7 0.00 186 0.007 0.006 191.500 11.980 5.712 5.432 1.287 1.684 7.62 7.790 7.958 7.927 87.700 84.200 0.007 7.70 7.847 8.030 7.995 7.55 7.727 7.896 7.866 5.767 5.495 5.671 5.406 10.453 9.166 1.286 10.674 8.989 1.686
PRIMET_226 2016-09-30 20:05:00 226 156.7 0.00 192 0.023 0.022 157.100 16.890 5.789 5.458 1.292 1.694 7.70 7.862 8.020 7.962 87.700 84.200 0.189 7.74 7.899 8.070 7.988 7.66 7.811 7.973 7.934 5.864 5.514 5.710 5.402 10.506 9.215 1.292 10.699 9.005 1.690
PRIMET_226 2016-09-30 20:00:00 226 156.7 0.00 193 0.008 0.007 224.400 34.740 5.771 5.477 1.354 1.741 7.77 7.909 8.070 8.040 87.200 83.800 0.026 7.81 7.962 8.120 8.070 7.70 7.843 8.010 7.997 5.823 5.544 5.706 5.405 10.557 9.203 1.351 10.756 9.017 1.743
PRIMET_226 2016-09-30 19:55:00 226 156.7 0.00 186 0.007 0.007 244.000 0.172 5.782 5.451 1.380 1.792 7.81 7.941 8.100 8.090 87.000 83.400 0.007 7.89 8.010 8.160 8.160 7.76 7.905 8.070 8.030 5.840 5.494 5.721 5.399 10.590 9.210 1.377 10.793 9.001 1.792
PRIMET_226 2016-09-30 19:50:00 226 156.7 0.00 195 0.007 0.007 244.000 0.084 5.869 5.511 1.389 1.805 7.90 8.050 8.200 8.160 87.000 83.400 0.007 7.93 8.090 8.250 8.190 7.85 8.010 8.160 8.130 5.957 5.546 5.791 5.451 10.655 9.266 1.385 10.844 9.039 1.800
PRIMET_226 2016-09-30 19:45:00 226 156.7 0.00 195 0.007 0.007 244.400 0.396 5.787 5.427 1.406 1.867 7.85 7.981 8.150 8.170 86.800 82.800 0.007 7.89 7.998 8.180 8.220 7.83 7.965 8.130 8.130 5.860 5.475 5.744 5.402 10.619 9.214 1.402 10.852 8.986 1.867
PRIMET_226 2016-09-30 19:40:00 226 156.7 0.00 191 0.007 0.007 244.700 0.084 5.784 5.440 1.440 1.935 7.90 8.000 8.190 8.270 86.500 82.300 0.007 7.95 8.020 8.210 8.340 7.87 7.982 8.180 8.220 5.814 5.494 5.763 5.409 10.652 9.212 1.438 10.926 8.994 1.934
PRIMET_226 2016-09-30 19:35:00 226 156.7 0.00 195 0.007 0.007 244.700 0.074 5.812 5.406 1.528 2.076 8.04 8.100 8.280 8.440 85.800 81.200 0.007 8.15 8.200 8.370 8.520 7.96 8.030 8.220 8.350 5.862 5.430 5.773 5.374 10.756 9.230 1.527 11.053 8.973 2.078
PRIMET_226 2016-09-30 19:30:00 226 156.7 0.00 196 0.007 0.007 244.600 0.084 5.837 5.399 1.671 2.220 8.26 8.340 8.510 8.620 84.700 80.200 0.007 8.34 8.430 8.600 8.700 8.16 8.210 8.380 8.540 5.888 5.421 5.775 5.380 10.918 9.246 1.671 11.188 8.969 2.215
PRIMET_226 2016-09-30 19:25:00 226 156.7 0.00 192 0.007 0.007 244.600 0.079 5.839 5.404 1.816 2.336 8.45 8.590 8.730 8.780 83.600 79.340 0.007 8.53 8.690 8.820 8.830 8.35 8.450 8.610 8.710 5.921 5.437 5.756 5.357 11.060 9.247 1.814 11.310 8.972 2.337
PRIMET_226 2016-09-30 19:20:00 226 156.7 0.00 187 0.051 0.051 244.800 0.131 5.831 5.450 1.949 2.391 8.62 8.770 8.900 8.890 82.600 79.010 0.346 8.68 8.840 8.960 8.920 8.54 8.700 8.830 8.840 5.898 5.481 5.721 5.426 11.188 9.242 1.947 11.395 9.000 2.392
PRIMET_226 2016-09-30 19:15:00 226 156.7 0.00 194 0.007 0.007 244.900 0.079 5.875 5.474 1.989 2.420 8.71 8.810 8.960 8.940 82.300 78.840 0.007 8.78 8.870 9.000 8.980 8.64 8.760 8.920 8.900 5.964 5.559 5.714 5.365 11.257 9.270 1.992 11.433 9.015 2.419
PRIMET_226 2016-09-30 19:10:00 226 156.7 0.00 197 0.007 0.007 244.900 0.088 5.844 5.458 2.094 2.494 8.82 8.920 9.050 9.030 81.500 78.310 0.007 8.86 8.970 9.110 9.080 8.78 8.870 9.000 8.960 5.912 5.507 5.777 5.422 11.341 9.250 2.098 11.503 9.005 2.495
PRIMET_226 2016-09-30 19:05:00 226 156.7 0.00 188 0.007 0.007 244.300 1.402 5.965 5.546 2.055 2.524 8.87 8.980 9.120 9.130 81.900 78.210 0.007 8.93 9.000 9.140 9.200 8.85 8.960 9.110 9.090 6.066 5.586 5.886 5.498 11.379 9.328 2.060 11.581 9.061 2.524
PRIMET_226 2016-09-30 19:00:00 226 156.7 0.00 194 0.007 0.007 241.600 0.271 5.978 5.553 2.165 2.642 9.03 9.120 9.260 9.290 81.200 77.430 0.007 9.09 9.210 9.340 9.380 8.94 9.000 9.140 9.210 6.029 5.581 5.928 5.512 11.503 9.336 2.163 11.707 9.065 2.642
PRIMET_226 2016-09-30 18:55:00 226 156.7 0.00 195 0.007 0.007 241.700 0.088 6.052 5.655 2.209 2.717 9.15 9.280 9.430 9.470 80.900 77.060 0.007 9.19 9.330 9.480 9.560 9.09 9.210 9.360 9.400 6.149 5.730 6.011 5.606 11.597 9.384 2.215 11.849 9.130 2.718
PRIMET_226 2016-09-30 18:50:00 226 156.7 0.00 196 0.007 0.007 241.800 0.128 6.120 5.710 2.260 2.839 9.27 9.400 9.590 9.660 80.700 76.350 0.007 9.39 9.490 9.680 9.770 9.19 9.330 9.500 9.560 6.166 5.731 6.064 5.682 11.691 9.429 2.256 12.002 9.164 2.838
PRIMET_226 2016-09-30 18:45:00 226 156.7 0.00 196 0.007 0.007 241.900 0.074 6.193 5.722 2.388 3.005 9.49 9.610 9.800 9.880 79.870 75.320 0.007 9.55 9.700 9.890 9.990 9.41 9.510 9.690 9.780 6.377 5.805 6.082 5.681 11.865 9.476 2.388 12.180 9.172 3.006
PRIMET_226 2016-09-30 18:40:00 226 156.7 0.00 195 0.007 0.007 241.900 0.069 6.404 5.796 2.404 3.156 9.68 9.830 10.020 10.120 80.000 74.500 0.007 9.82 10.010 10.180 10.240 9.57 9.710 9.900 9.990 6.532 5.903 6.222 5.695 12.018 9.615 2.404 12.378 9.219 3.156
PRIMET_226 2016-09-30 18:35:00 226 156.7 0.00 195 0.007 0.006 235.500 26.540 6.529 5.895 2.498 3.262 9.90 10.130 10.320 10.320 79.520 74.000 0.007 9.96 10.230 10.420 10.390 9.81 10.020 10.200 10.240 6.643 6.029 6.205 5.769 12.197 9.699 2.498 12.545 9.283 3.262
PRIMET_226 2016-09-30 18:30:00 226 156.7 0.00 192 0.049 0.048 111.000 9.060 6.472 6.001 2.594 3.335 9.97 10.330 10.530 10.490 78.830 73.710 0.385 9.99 10.450 10.660 10.550 9.92 10.230 10.420 10.420 6.588 6.085 6.360 5.944 12.254 9.661 2.594 12.688 9.351 3.336
PRIMET_226 2016-09-30 18:25:00 226 156.7 0.00 196 0.402 0.375 221.200 21.080 5.974 5.552 2.599 3.319 9.58 9.950 10.170 10.130 78.240 73.220 1.620 9.89 10.550 10.780 10.480 9.50 9.720 9.920 10.020 6.436 5.911 4.713 4.548 11.937 9.334 2.598 12.386 9.064 3.317
PRIMET_226 2016-09-30 18:20:00 226 156.7 0.00 192 0.111 0.111 212.600 3.456 6.371 5.821 2.355 3.233 9.59 9.810 10.050 10.230 80.300 74.070 0.438 9.65 9.830 10.080 10.320 9.56 9.780 9.990 10.140 6.613 5.873 6.215 5.782 11.945 9.593 2.353 12.469 9.235 3.233
PRIMET_226 2016-09-30 18:15:00 226 156.7 0.00 195 0.007 0.007 220.800 0.000 6.335 5.784 2.493 3.423 9.74 9.910 10.190 10.430 79.340 72.910 0.007 9.83 9.980 10.280 10.550 9.65 9.830 10.080 10.320 6.476 5.803 6.215 5.768 12.066 9.570 2.493 12.637 9.212 3.423
PRIMET_226 2016-09-30 18:10:00 226 156.7 0.00 196 0.007 0.007 221.000 0.000 6.499 5.812 2.583 3.607 9.98 10.110 10.420 10.670 78.940 71.900 0.007 10.09 10.220 10.510 10.770 9.85 10.000 10.290 10.570 6.595 5.877 6.325 5.766 12.262 9.679 2.582 12.841 9.230 3.608
PRIMET_226 2016-09-30 18:05:00 226 156.7 0.00 181 0.007 0.007 221.000 0.000 6.524 5.973 2.754 3.681 10.21 10.350 10.640 10.870 77.880 71.720 0.007 10.31 10.480 10.770 10.960 10.09 10.230 10.520 10.780 6.605 6.099 6.484 5.874 12.453 9.695 2.755 13.013 9.333 3.680
PRIMET_226 2016-09-30 18:00:00 226 156.7 0.00 196 0.007 0.007 221.000 0.105 6.450 5.773 3.008 3.993 10.45 10.590 10.870 11.080 76.230 69.740 0.007 10.57 10.720 10.970 11.190 10.31 10.470 10.770 10.960 6.517 5.889 6.377 5.730 12.654 9.646 3.008 13.196 9.205 3.993
PRIMET_226 2016-09-30 17:55:00 226 156.7 0.00 196 0.007 0.007 221.100 0.000 6.415 5.714 3.250 4.229 10.71 10.840 11.100 11.310 74.750 68.430 0.007 10.83 10.960 11.220 11.410 10.58 10.720 10.980 11.200 6.495 5.796 6.346 5.652 12.875 9.623 3.251 13.399 9.167 4.230
PRIMET_226 2016-09-30 17:50:00 226 156.7 0.00 196 0.007 0.007 220.900 0.125 6.342 5.810 3.519 4.391 10.96 11.100 11.370 11.560 73.130 67.760 0.007 11.13 11.280 11.540 11.720 10.84 10.970 11.250 11.410 6.472 5.920 6.258 5.677 13.091 9.574 3.518 13.623 9.228 4.392
PRIMET_226 2016-09-30 17:45:00 226 156.7 0.00 192 0.007 0.007 220.700 0.000 6.287 5.675 3.830 4.728 11.27 11.470 11.720 11.830 71.350 65.910 0.007 11.39 11.610 11.850 11.940 11.15 11.320 11.580 11.720 6.470 5.836 6.124 5.570 13.364 9.538 3.829 13.868 9.142 4.728
PRIMET_226 2016-09-30 17:40:00 226 156.7 0.00 187 0.007 0.007 220.800 0.048 6.210 5.679 4.066 4.934 11.48 11.700 11.950 12.060 70.000 64.950 0.007 11.60 11.790 12.040 12.190 11.40 11.630 11.860 11.960 6.419 5.852 6.002 5.528 13.551 9.487 4.065 14.080 9.145 4.935
PRIMET_226 2016-09-30 17:35:00 226 156.7 0.00 196 0.007 0.007 222.700 0.812 6.530 5.855 4.102 5.069 11.76 11.980 12.220 12.320 70.280 64.620 0.007 11.85 12.120 12.350 12.440 11.63 11.810 12.080 12.210 6.785 6.097 6.276 5.690 13.804 9.699 4.103 14.323 9.257 5.068
PRIMET_226 2016-09-30 17:30:00 226 156.7 0.00 196 0.218 0.217 217.700 3.599 6.633 5.727 4.237 5.370 11.98 12.250 12.480 12.550 69.750 63.090 0.412 12.12 12.390 12.600 12.680 11.86 12.130 12.360 12.440 6.880 6.114 6.230 5.316 14.006 9.768 4.237 14.541 9.175 5.367
PRIMET_226 2016-09-30 17:25:00 226 156.7 0.00 195 0.246 0.246 211.900 1.958 6.284 5.367 4.691 5.833 12.22 12.530 12.730 12.800 67.040 60.540 0.529 12.32 12.620 12.840 12.920 12.13 12.400 12.610 12.690 6.840 5.497 5.801 5.265 14.229 9.536 4.690 14.782 8.949 5.833
PRIMET_226 2016-09-30 17:20:00 226 156.7 0.00 192 0.072 0.072 204.500 0.459 6.909 5.852 4.456 5.728 12.42 12.710 12.950 13.010 69.080 61.780 0.483 12.49 12.800 13.040 13.120 12.33 12.630 12.850 12.930 7.576 6.746 5.889 5.050 14.418 9.956 4.458 14.986 9.255 5.728
PRIMET_226 2016-09-30 17:15:00 226 156.7 0.00 193 0.161 0.161 214.800 4.670 7.263 6.309 4.375 5.673 12.59 12.920 13.170 13.260 69.990 62.760 0.686 12.67 13.000 13.280 13.410 12.50 12.810 13.050 13.140 7.987 7.187 6.595 5.330 14.579 10.200 4.375 15.233 9.552 5.673
PRIMET_226 2016-09-30 17:10:00 226 156.7 0.00 196 0.234 0.220 171.400 19.830 7.025 5.959 4.804 6.249 12.86 13.190 13.480 13.600 67.640 59.890 1.019 13.05 13.330 13.600 13.760 12.69 13.000 13.290 13.430 7.625 6.565 6.515 5.358 14.840 10.035 4.802 15.574 9.324 6.247
PRIMET_226 2016-09-30 17:05:00 226 156.7 0.00 195 0.014 0.014 203.300 16.780 7.105 5.755 5.178 6.689 13.30 13.580 13.810 13.900 66.100 57.890 0.124 13.45 13.740 13.940 13.990 13.09 13.350 13.630 13.750 7.697 6.257 6.578 5.460 15.273 10.090 5.178 15.881 9.193 6.688
PRIMET_226 2016-09-30 17:00:00 226 156.7 0.00 191 0.068 0.068 265.900 3.578 6.891 5.535 5.586 6.957 13.56 13.830 14.020 14.030 64.040 56.560 0.399 13.60 13.870 14.070 14.080 13.46 13.740 13.940 13.990 7.537 6.397 6.180 4.915 15.534 9.943 5.586 16.016 9.054 6.957
PRIMET_226 2016-09-30 16:55:00 226 156.7 0.00 196 0.188 0.182 246.700 14.630 7.410 5.864 5.348 6.868 13.68 13.950 14.120 14.140 65.840 57.440 0.581 13.78 14.060 14.220 14.210 13.61 13.860 14.050 14.060 7.940 6.666 6.377 4.684 15.656 10.304 5.348 16.130 9.263 6.865
PRIMET_226 2016-09-30 16:50:00 226 156.7 0.00 196 0.729 0.661 194.600 24.630 6.805 5.384 5.796 7.179 13.76 14.050 14.220 14.170 63.170 55.580 1.568 13.86 14.170 14.320 14.270 13.62 13.840 14.010 14.040 9.060 7.223 3.930 3.274 15.737 9.885 5.796 16.162 8.959 7.179
PRIMET_226 2016-09-30 16:45:00 226 156.7 0.00 192 0.943 0.620 171.400 47.410 8.910 7.734 4.369 5.771 13.81 14.000 14.180 14.310 72.320 64.620 1.503 14.00 14.120 14.320 14.480 13.65 13.870 14.030 14.130 9.540 8.640 8.180 6.853 15.789 11.410 4.370 16.309 10.534 5.770
PRIMET_226 2016-09-30 16:40:00 226 156.7 0.00 196 1.126 0.930 147.700 33.830 8.580 7.123 5.244 6.674 14.42 14.460 14.620 14.770 68.130 60.280 2.091 14.74 14.940 15.090 15.120 14.04 14.100 14.260 14.430 9.980 8.810 7.231 4.542 16.426 11.158 5.235 16.801 10.103 6.673
PRIMET_226 2016-09-30 16:35:00 226 156.7 0.00 192 0.635 0.601 226.400 18.760 6.048 5.255 7.500 8.350 14.86 15.130 15.280 15.180 55.630 51.580 1.548 14.94 15.260 15.400 15.230 14.77 14.990 15.160 15.100 7.665 6.458 4.301 3.873 16.899 9.382 7.498 17.250 8.879 8.353
PRIMET_226 2016-09-30 16:30:00 226 156.7 0.00 207 0.485 0.386 204.900 36.660 5.786 4.877 7.244 8.280 14.49 14.800 14.970 14.900 56.130 51.130 1.065 14.78 15.160 15.310 15.080 14.34 14.580 14.780 14.800 8.120 6.688 4.149 3.655 16.500 9.213 7.239 16.942 8.648 8.280
PRIMET_226 2016-09-30 16:25:00 226 156.7 0.00 190 0.432 0.355 237.200 34.150 7.678 6.546 6.017 7.337 14.50 14.730 14.930 15.000 63.570 56.970 0.895 14.60 14.860 15.090 15.130 14.40 14.640 14.820 14.850 8.510 7.665 6.845 5.710 16.511 10.494 6.015 17.052 9.710 7.337
PRIMET_226 2016-09-30 16:20:00 226 156.7 0.00 190 0.368 0.330 243.200 26.140 7.873 6.440 6.232 7.768 14.84 15.040 15.250 15.330 63.070 55.400 1.032 15.07 15.230 15.410 15.490 14.61 14.850 15.080 15.150 8.590 7.704 6.718 5.258 16.877 10.635 6.233 17.418 9.639 7.768
PRIMET_226 2016-09-30 16:15:00 226 156.7 0.00 196 0.759 0.599 235.900 37.170 6.597 5.726 7.445 8.520 15.14 15.380 15.560 15.590 56.740 51.900 2.208 15.22 15.500 15.670 15.650 15.08 15.260 15.450 15.500 7.875 7.395 4.999 4.473 17.206 9.744 7.443 17.710 9.175 8.519
PRIMET_226 2016-09-30 16:10:00 226 156.7 0.00 181 0.607 0.508 258.300 32.760 6.749 5.738 7.620 8.750 15.39 15.590 15.760 15.800 56.430 51.260 2.659 15.50 15.770 15.920 15.870 15.25 15.420 15.590 15.660 8.020 6.769 5.043 4.488 17.485 9.847 7.618 17.950 9.182 8.749
PRIMET_226 2016-09-30 16:05:00 226 156.7 0.00 195 1.191 1.043 244.500 28.610 5.978 4.869 8.170 9.350 15.43 15.710 15.870 15.840 53.360 48.040 2.528 15.49 15.810 15.940 15.880 15.36 15.600 15.790 15.810 7.773 6.060 4.913 4.407 17.530 9.336 8.176 17.996 8.643 9.351
PRIMET_226 2016-09-30 16:00:00 226 156.7 0.00 190 0.608 0.558 237.700 23.120 7.560 6.188 7.361 8.760 15.65 15.790 15.980 16.060 58.620 51.990 1.333 15.88 16.050 16.210 16.170 15.34 15.450 15.650 15.830 8.620 7.376 5.311 4.559 17.779 10.410 7.357 18.251 9.473 8.762
PRIMET_226 2016-09-30 15:55:00 226 156.7 0.00 192 1.234 1.042 232.500 31.940 5.873 4.910 8.740 9.770 15.89 16.070 16.230 16.240 51.570 47.070 3.561 16.01 16.250 16.400 16.360 15.75 15.880 16.060 16.110 8.180 6.617 3.808 3.401 18.054 9.269 8.743 18.462 8.668 9.772
PRIMET_226 2016-09-30 15:50:00 226 156.7 0.00 187 0.980 0.883 218.400 25.430 6.215 5.250 8.930 9.930 16.22 16.350 16.490 16.540 51.600 47.240 1.777 16.40 16.590 16.720 16.760 15.95 16.100 16.270 16.300 7.772 6.944 4.575 4.138 18.438 9.491 8.924 18.818 8.876 9.928
PRIMET_226 2016-09-30 15:45:00 226 156.7 0.00 187 0.925 0.620 210.300 46.480 5.686 4.854 9.500 10.440 16.41 16.630 16.770 16.760 49.100 45.290 2.058 16.48 16.740 16.870 16.810 16.33 16.480 16.660 16.700 6.940 5.916 4.605 4.050 18.663 9.149 9.499 19.083 8.634 10.440
PRIMET_226 2016-09-30 15:40:00 226 156.7 0.00 201 1.533 1.405 220.100 23.360 6.135 4.962 8.920 10.310 16.19 16.350 16.560 16.710 51.510 45.810 3.998 16.38 16.730 16.870 16.950 16.03 16.150 16.350 16.570 8.180 6.775 4.010 3.601 18.403 9.438 8.924 19.022 8.700 10.308
PRIMET_226 2016-09-30 15:35:00 226 156.7 0.00 186 0.763 0.619 245.200 35.160 6.432 5.067 9.350 10.840 16.72 16.840 17.040 17.200 50.920 44.750 2.091 16.83 17.100 17.270 17.330 16.43 16.430 16.690 16.970 8.070 6.332 3.350 3.177 19.034 9.634 9.342 19.622 8.764 10.841
PRIMET_226 2016-09-30 15:30:00 226 156.7 0.00 191 0.999 0.869 205.500 29.210 6.499 5.769 9.710 10.990 17.04 17.140 17.380 17.670 50.010 45.650 1.940 17.27 17.300 17.570 17.940 16.84 16.880 17.100 17.390 8.330 7.715 4.488 4.067 19.425 9.679 9.710 20.213 9.202 10.986
PRIMET_226 2016-09-30 15:25:00 226 156.7 0.00 196 0.994 0.806 229.200 35.190 5.504 4.494 11.070 12.230 17.60 17.690 17.900 18.010 45.010 40.800 1.973 17.85 18.010 18.140 18.080 17.35 17.390 17.660 17.950 7.778 5.837 4.347 3.875 20.124 9.034 11.066 20.651 8.419 12.225
PRIMET_226 2016-09-30 15:20:00 226 156.7 0.00 195 1.428 1.244 237.600 29.080 5.639 4.572 11.590 12.370 18.07 18.250 18.290 18.160 44.080 40.640 2.992 18.22 18.430 18.430 18.240 17.87 18.010 18.140 18.070 7.589 5.946 4.349 3.721 20.729 9.119 11.592 20.846 8.465 12.374
PRIMET_226 2016-09-30 15:15:00 226 156.7 0.00 190 1.342 0.914 241.000 45.720 5.701 4.788 12.010 12.430 18.43 18.470 18.460 18.300 43.340 40.910 2.666 18.59 18.770 18.760 18.490 18.21 18.270 18.290 18.170 8.350 6.522 4.263 3.849 21.202 9.159 12.013 21.030 8.594 12.427
PRIMET_226 2016-09-30 15:10:00 226 156.7 0.00 187 1.109 0.652 236.400 52.020 5.806 4.916 12.020 12.550 18.50 18.590 18.590 18.470 43.570 40.940 3.169 18.59 18.730 18.720 18.610 18.43 18.420 18.400 18.380 8.370 7.418 3.445 3.474 21.296 9.226 12.017 21.256 8.672 12.554
PRIMET_226 2016-09-30 15:05:00 226 156.7 0.00 207 1.488 1.191 219.300 36.170 5.420 4.554 12.350 13.090 18.54 18.730 18.780 18.690 42.160 39.250 3.789 18.75 18.870 18.990 18.990 18.37 18.470 18.570 18.600 7.578 6.150 4.450 3.875 21.349 8.982 12.348 21.550 8.455 13.092
PRIMET_226 2016-09-30 15:00:00 226 156.7 0.00 196 0.692 0.517 190.400 40.790 5.158 4.046 12.890 13.580 18.87 19.070 19.100 18.850 40.850 37.610 2.006 18.93 19.240 19.340 19.040 18.80 18.900 18.950 18.730 8.240 6.742 2.572 2.309 21.794 8.819 12.891 21.767 8.159 13.580
PRIMET_226 2016-09-30 14:55:00 226 156.7 0.00 189 0.792 0.574 204.700 42.480 7.292 5.885 11.750 12.380 19.02 19.180 19.050 18.780 46.590 42.890 1.771 19.15 19.440 19.270 18.850 18.88 19.020 18.900 18.720 9.020 7.556 5.192 3.924 21.999 10.221 11.750 21.672 9.276 12.377
PRIMET_226 2016-09-30 14:50:00 226 156.7 0.00 209 0.671 0.546 235.000 35.010 7.409 6.619 11.470 11.810 18.90 19.050 18.940 18.750 47.480 45.380 1.829 19.09 19.240 19.060 18.830 18.81 18.870 18.760 18.690 11.050 10.150 4.825 4.250 21.835 10.303 11.468 21.631 9.759 11.815
PRIMET_226 2016-09-30 14:45:00 226 156.7 0.00 203 1.582 1.447 224.900 23.640 5.701 4.938 12.430 12.740 18.74 18.820 18.710 18.610 42.500 40.580 2.901 18.82 18.980 18.850 18.700 18.68 18.690 18.570 18.550 8.380 8.020 4.360 4.128 21.618 9.159 12.430 21.443 8.685 12.741
PRIMET_226 2016-09-30 14:40:00 226 156.7 0.00 206 1.927 1.661 229.800 30.070 5.495 4.738 12.620 13.090 18.78 18.810 18.800 18.780 41.750 39.560 4.417 18.88 18.930 18.880 18.840 18.66 18.650 18.580 18.620 8.320 6.398 4.260 3.949 21.672 9.029 12.624 21.672 8.564 13.098
PRIMET_226 2016-09-30 14:35:00 226 156.7 0.00 196 1.114 0.824 226.900 41.310 6.175 5.121 12.530 12.990 19.05 19.070 19.020 18.880 43.150 40.410 3.482 19.24 19.290 19.200 18.960 18.92 18.790 18.810 18.830 9.740 7.416 4.564 4.382 22.040 9.464 12.530 21.808 8.797 12.995
PRIMET_226 2016-09-30 14:30:00 226 156.7 0.00 198 1.287 1.059 214.600 34.080 5.992 5.348 12.990 13.000 19.33 19.310 19.220 19.010 42.010 40.860 2.986 19.61 19.620 19.480 19.170 19.08 19.070 19.020 18.830 10.100 9.190 3.887 3.675 22.428 9.345 13.006 21.985 8.937 13.002
PRIMET_226 2016-09-30 14:25:00 226 156.7 0.00 193 1.037 0.765 207.200 41.460 6.984 6.253 12.570 12.640 19.48 19.550 19.370 19.160 44.460 43.050 3.201 19.66 19.780 19.600 19.270 19.37 19.390 19.230 19.070 9.570 8.870 4.649 4.408 22.638 10.007 12.573 22.192 9.516 12.638
PRIMET_226 2016-09-30 14:20:00 226 156.7 0.00 214 1.062 0.573 147.900 54.970 7.871 6.346 11.720 12.170 19.36 19.330 19.110 18.900 47.850 44.230 2.659 19.47 19.640 19.420 19.020 19.21 19.100 18.910 18.770 11.030 10.150 3.987 3.706 22.470 10.633 11.718 21.835 9.577 12.177
PRIMET_226 2016-09-30 14:15:00 226 156.7 0.00 200 1.038 0.855 221.200 33.970 8.450 7.132 10.820 11.600 18.97 19.040 18.990 18.840 50.660 46.650 2.025 19.14 19.290 19.110 18.870 18.90 18.960 18.870 18.790 10.380 9.110 5.540 4.918 21.930 11.060 10.821 21.753 10.109 11.605
PRIMET_226 2016-09-30 14:10:00 226 156.7 0.00 204 1.151 0.570 128.700 57.540 7.429 6.532 11.600 12.040 18.99 18.990 18.950 18.840 47.200 44.680 2.274 19.15 19.170 19.100 18.930 18.88 18.830 18.760 18.750 10.800 8.620 5.301 4.887 21.958 10.317 11.594 21.753 9.701 12.034
PRIMET_226 2016-09-30 14:05:00 226 156.7 0.00 207 1.189 0.800 235.600 46.360 8.080 7.510 11.750 11.860 19.44 19.370 19.290 19.210 47.960 46.720 1.862 19.88 20.000 19.810 19.510 19.05 18.990 18.940 18.910 10.750 9.770 6.642 6.129 22.582 10.786 11.752 22.261 10.374 11.861
PRIMET_226 2016-09-30 14:00:00 226 156.7 0.00 198 0.905 0.735 205.400 35.020 7.386 6.619 12.930 12.890 19.90 19.870 19.670 19.500 44.360 43.110 1.960 20.06 20.140 19.900 19.640 19.77 19.600 19.450 19.370 10.750 8.980 5.860 5.589 23.236 10.287 12.928 22.666 9.759 12.895
PRIMET_226 2016-09-30 13:55:00 226 156.7 0.00 194 1.093 0.501 193.700 59.600 9.610 8.620 11.380 11.720 20.00 19.950 19.740 19.690 51.340 48.920 3.280 20.10 20.130 19.970 19.950 19.92 19.830 19.580 19.530 11.730 10.290 7.066 6.684 23.380 11.962 11.377 22.935 11.188 11.715
PRIMET_226 2016-09-30 13:50:00 226 156.7 0.00 196 1.164 0.684 185.900 52.030 9.400 8.570 12.080 12.300 20.36 20.530 20.300 20.060 49.470 47.580 3.260 20.51 20.720 20.440 20.130 20.17 20.230 20.020 19.990 11.500 10.320 7.302 6.999 23.906 11.794 12.080 23.467 11.151 12.302
PRIMET_226 2016-09-30 13:45:00 226 156.7 0.00 192 0.762 0.708 189.500 21.650 9.270 8.500 11.850 11.960 20.14 20.210 20.010 19.790 49.750 48.170 1.490 20.25 20.490 20.330 19.970 20.01 20.000 19.840 19.690 11.170 10.010 7.601 7.293 23.584 11.691 11.851 23.078 11.098 11.961
PRIMET_226 2016-09-30 13:40:00 226 156.7 0.00 204 1.169 0.705 210.000 51.060 9.620 8.650 10.990 11.460 19.73 19.770 19.670 19.520 52.180 49.480 2.920 19.99 20.070 19.860 19.660 19.52 19.460 19.440 19.400 11.490 10.210 7.722 7.477 22.992 11.970 10.995 22.695 11.211 11.465
PRIMET_226 2016-09-30 13:35:00 226 156.7 0.00 198 1.050 0.782 244.900 40.900 8.160 7.711 11.820 12.050 19.52 19.580 19.540 19.440 47.900 46.640 1.888 19.61 19.700 19.650 19.530 19.44 19.400 19.380 19.360 10.860 9.690 7.148 6.727 22.695 10.844 11.824 22.582 10.518 12.050
PRIMET_226 2016-09-30 13:30:00 226 156.7 0.00 204 1.146 0.766 140.200 46.640 8.430 7.868 12.120 12.350 19.87 19.840 19.800 19.730 47.740 46.290 1.947 19.94 20.050 20.010 19.870 19.65 19.490 19.470 19.460 11.470 10.170 7.101 6.672 23.193 11.045 12.121 22.992 10.631 12.349
PRIMET_226 2016-09-30 13:25:00 226 156.7 0.00 193 0.925 0.766 204.700 33.600 8.960 8.370 12.210 12.150 20.22 20.140 19.960 19.850 48.460 47.540 1.601 20.44 20.360 20.130 20.080 20.02 19.890 19.830 19.760 11.250 9.920 7.494 7.225 23.701 11.449 12.215 23.164 11.000 12.152
PRIMET_226 2016-09-30 13:20:00 226 156.7 0.00 206 0.940 0.786 200.300 32.800 9.570 8.780 11.860 12.090 20.31 20.400 20.210 20.040 50.200 48.380 1.829 20.44 20.560 20.360 20.080 20.15 20.320 20.130 19.930 11.300 10.490 7.589 7.213 23.833 11.929 11.869 23.438 11.310 12.099
PRIMET_226 2016-09-30 13:15:00 226 156.7 0.00 187 1.021 0.828 203.500 35.260 9.210 8.600 11.960 12.060 20.18 20.300 20.110 19.910 49.390 48.140 2.169 20.24 20.420 20.210 19.970 20.12 20.210 19.950 19.840 11.940 10.120 7.730 7.377 23.642 11.644 11.965 23.250 11.173 12.058
PRIMET_226 2016-09-30 13:10:00 226 156.7 0.00 212 0.663 0.506 139.900 39.420 9.670 8.710 11.620 11.740 20.20 20.140 19.900 19.750 50.880 49.000 1.320 20.33 20.340 20.130 19.930 20.13 20.020 19.790 19.680 12.110 11.030 7.688 7.437 23.671 12.010 11.627 23.021 11.257 11.741
PRIMET_226 2016-09-30 13:05:00 226 156.7 0.00 220 0.988 0.564 203.700 53.080 9.140 8.320 11.830 12.130 20.05 20.150 19.990 19.820 49.580 47.540 2.143 20.29 20.480 20.220 19.930 19.93 19.900 19.800 19.710 11.620 10.670 7.378 7.097 23.453 11.589 11.825 23.121 10.963 12.129
PRIMET_226 2016-09-30 13:00:00 226 156.7 0.00 201 1.536 1.010 230.000 47.390 8.560 8.090 12.030 12.130 19.87 19.930 19.820 19.690 48.130 47.100 2.875 19.94 19.990 19.940 19.750 19.79 19.820 19.670 19.630 10.480 10.180 7.556 7.221 23.193 11.143 12.030 22.935 10.793 12.133
PRIMET_226 2016-09-30 12:55:00 226 156.7 0.00 205 0.973 0.847 192.300 29.170 10.060 9.070 10.980 11.580 19.98 19.960 19.860 19.840 52.950 49.950 1.444 20.08 20.100 20.030 19.930 19.83 19.750 19.610 19.660 11.940 11.280 8.280 7.589 23.351 12.328 10.987 23.150 11.534 11.586
PRIMET_226 2016-09-30 12:50:00 226 156.7 0.00 191 0.857 0.649 210.100 39.860 10.410 9.140 10.690 11.490 19.97 19.960 19.900 19.800 54.180 50.250 1.967 20.03 20.160 20.060 19.910 19.90 19.790 19.750 19.700 11.960 10.810 8.500 7.857 23.337 12.620 10.693 23.092 11.589 11.488
PRIMET_226 2016-09-30 12:45:00 226 156.7 0.00 196 0.516 0.337 148.100 47.730 9.450 8.390 11.320 11.860 19.87 19.880 19.770 19.660 51.170 48.190 1.294 20.15 20.110 19.950 19.820 19.55 19.600 19.540 19.490 11.840 10.360 7.536 7.202 23.193 11.833 11.325 22.893 11.015 11.861
PRIMET_226 2016-09-30 12:40:00 226 156.7 0.00 193 1.163 0.912 211.500 37.650 9.560 8.460 10.830 11.570 19.59 19.580 19.540 19.490 52.480 48.950 3.169 19.74 19.690 19.650 19.550 19.46 19.480 19.470 19.430 12.100 9.980 7.889 7.452 22.793 11.921 10.831 22.652 11.068 11.564
PRIMET_226 2016-09-30 12:35:00 226 156.7 0.00 204 0.939 0.755 188.600 35.810 10.220 9.130 10.430 10.920 19.69 19.650 19.520 19.400 54.500 51.500 1.731 19.76 19.770 19.700 19.510 19.56 19.590 19.410 19.250 12.270 10.700 7.621 7.294 22.935 12.461 10.436 22.526 11.581 10.925
PRIMET_226 2016-09-30 12:30:00 226 156.7 0.00 200 0.920 0.698 204.200 39.760 9.510 8.520 10.740 11.220 19.50 19.470 19.400 19.270 52.610 49.810 2.352 19.62 19.610 19.550 19.390 19.30 19.240 19.210 19.130 11.960 10.810 7.933 7.435 22.666 11.881 10.742 22.344 11.113 11.215
PRIMET_226 2016-09-30 12:25:00 226 156.7 0.00 195 1.134 0.622 203.000 54.400 9.010 8.340 10.540 10.890 19.07 19.080 19.030 18.940 52.230 50.250 2.136 19.30 19.380 19.360 19.170 18.96 18.840 18.790 18.830 11.710 10.320 7.667 7.421 22.068 11.488 10.542 21.889 10.978 10.890
PRIMET_226 2016-09-30 12:20:00 226 156.7 0.00 196 1.264 0.858 172.600 45.880 9.730 8.900 9.990 10.580 19.08 19.070 19.050 19.020 54.770 51.900 1.908 19.23 19.280 19.240 19.130 18.92 18.880 18.850 18.890 11.760 10.340 8.100 7.645 22.081 12.058 9.987 21.999 11.402 10.582
PRIMET_226 2016-09-30 12:15:00 226 156.7 0.00 202 0.863 0.565 240.000 47.610 9.270 8.540 10.060 10.570 18.86 19.110 19.060 18.800 53.780 51.310 2.084 19.14 19.350 19.280 19.050 18.45 18.670 18.650 18.390 11.200 9.670 7.859 7.599 21.780 11.691 10.067 21.699 11.128 10.565
PRIMET_226 2016-09-30 12:10:00 226 156.7 0.00 198 0.899 0.800 177.900 26.860 11.030 10.020 8.010 8.900 18.43 18.490 18.530 18.450 62.210 58.060 3.077 18.52 18.720 18.700 18.600 18.37 18.310 18.390 18.350 12.700 11.560 8.280 7.897 21.202 13.152 8.012 21.229 12.295 8.903
PRIMET_226 2016-09-30 12:05:00 226 156.7 0.00 198 0.535 0.409 153.000 39.430 10.840 9.540 8.320 9.280 18.53 18.530 18.520 18.430 60.990 56.220 0.967 18.66 18.830 18.820 18.580 18.35 18.270 18.330 18.250 12.120 10.560 8.920 8.090 21.336 12.987 8.323 21.202 11.905 9.282
PRIMET_226 2016-09-30 12:00:00 226 156.7 0.00 210 0.808 0.495 187.900 50.450 10.340 9.410 8.580 9.240 18.40 18.500 18.450 18.320 59.450 56.130 1.418 18.52 18.670 18.600 18.370 18.25 18.220 18.200 18.250 12.000 10.750 8.660 7.995 21.163 12.561 8.581 21.057 11.802 9.238
PRIMET_226 2016-09-30 11:55:00 226 156.7 0.00 190 1.145 0.867 201.800 39.870 10.080 8.940 8.290 9.250 18.03 18.290 18.230 18.050 59.950 55.320 2.803 18.21 18.650 18.580 18.240 17.92 17.990 17.930 17.920 11.940 10.450 8.020 7.741 20.677 12.345 8.281 20.703 11.433 9.250
PRIMET_226 2016-09-30 11:50:00 226 156.7 0.00 193 0.720 0.546 170.700 39.780 11.210 9.960 7.312 8.410 18.00 18.110 18.070 18.020 64.560 59.300 1.450 18.03 18.290 18.320 18.110 17.88 17.940 17.900 17.950 11.960 10.650 9.380 8.300 20.638 13.310 7.314 20.664 12.246 8.410
PRIMET_226 2016-09-30 11:45:00 226 156.7 0.00 196 1.059 0.876 217.000 33.690 9.960 9.230 8.050 8.830 17.75 17.870 17.910 17.890 60.400 56.950 2.274 17.89 18.180 18.210 18.010 17.62 17.590 17.630 17.780 11.710 10.830 8.420 8.060 20.316 12.246 8.045 20.495 11.659 8.823
PRIMET_226 2016-09-30 11:40:00 226 156.7 0.00 198 1.161 1.040 211.800 26.170 10.230 9.300 8.020 8.860 17.91 17.930 17.970 17.960 60.910 56.960 3.156 18.02 18.160 18.160 18.040 17.76 17.810 17.850 17.910 12.100 10.390 8.620 8.040 20.521 12.469 8.022 20.586 11.715 8.860
PRIMET_226 2016-09-30 11:35:00 226 156.7 0.00 191 1.490 1.357 215.900 24.250 9.580 8.650 8.390 9.270 17.77 17.980 17.980 17.890 58.770 54.760 3.744 18.05 18.160 18.140 18.040 17.44 17.690 17.780 17.720 11.310 10.130 8.270 7.832 20.341 11.937 8.387 20.495 11.211 9.272
PRIMET_226 2016-09-30 11:30:00 226 156.7 0.00 196 0.777 0.640 193.600 34.030 10.190 9.030 7.608 8.540 17.56 17.740 17.710 17.550 62.100 57.410 1.601 17.64 17.960 17.880 17.700 17.50 17.570 17.520 17.440 11.770 10.000 8.400 8.150 20.074 12.436 7.608 20.061 11.503 8.544
PRIMET_226 2016-09-30 11:25:00 226 156.7 0.00 189 0.615 0.476 206.900 38.440 9.850 9.100 7.160 7.791 16.98 17.330 17.340 16.990 63.030 59.790 1.901 17.50 17.910 17.900 17.490 16.58 16.720 16.700 16.550 11.390 10.610 8.360 8.140 19.351 12.156 7.154 19.363 11.558 7.786
PRIMET_226 2016-09-30 11:20:00 226 156.7 0.00 213 0.568 0.464 171.000 34.640 10.880 9.970 5.724 6.661 16.50 16.630 16.690 16.630 69.500 64.810 0.993 16.68 16.980 17.040 16.740 16.34 16.420 16.530 16.540 11.870 11.010 8.480 8.240 18.770 13.022 5.725 18.926 12.254 6.660
PRIMET_226 2016-09-30 11:15:00 226 156.7 0.00 200 0.686 0.640 194.900 20.820 10.460 9.470 5.579 6.668 16.07 16.380 16.490 16.300 69.450 64.000 1.784 16.31 16.650 16.760 16.590 15.83 16.030 16.120 15.990 11.780 10.460 8.520 8.330 18.263 12.662 5.579 18.532 11.849 6.672
PRIMET_226 2016-09-30 11:10:00 226 156.7 0.00 192 0.583 0.442 206.900 39.890 10.690 9.840 5.013 5.797 15.74 15.970 15.990 15.800 71.960 67.700 1.620 15.89 16.260 16.310 16.060 15.56 15.790 15.740 15.490 11.410 10.450 9.250 8.990 17.881 12.858 5.014 17.950 12.148 5.798
PRIMET_226 2016-09-30 11:05:00 226 156.7 0.00 192 0.580 0.365 163.000 49.270 11.510 10.460 4.293 5.274 15.73 15.850 15.840 15.790 75.980 70.620 1.228 15.86 16.130 16.250 16.040 15.56 15.720 15.690 15.500 12.040 11.030 10.610 9.570 17.870 13.578 4.292 17.939 12.662 5.270
PRIMET_226 2016-09-30 11:00:00 226 156.7 0.00 200 0.548 0.465 174.200 31.510 11.230 10.150 4.647 5.725 15.82 15.980 16.040 15.960 74.150 68.420 1.516 16.03 16.230 16.230 16.150 15.66 15.880 15.920 15.830 11.610 10.520 10.430 8.800 17.973 13.328 4.646 18.135 12.403 5.727
PRIMET_226 2016-09-30 10:55:00 226 156.7 0.00 193 0.531 0.380 188.700 43.310 11.190 10.140 4.706 5.778 15.85 15.990 16.130 16.000 73.880 68.220 1.274 15.98 16.300 16.410 16.150 15.64 15.560 15.690 15.790 12.070 10.780 9.740 9.180 18.008 13.293 4.704 18.181 12.394 5.778
PRIMET_226 2016-09-30 10:50:00 226 156.7 0.00 195 0.308 0.208 157.300 46.160 11.090 10.070 4.379 5.555 15.50 15.630 15.800 15.750 75.110 68.960 0.810 15.64 15.930 16.090 15.920 15.36 15.450 15.630 15.610 12.350 10.640 8.970 8.860 17.609 13.205 4.383 17.893 12.336 5.554
PRIMET_226 2016-09-30 10:45:00 226 156.7 0.00 195 0.535 0.337 185.200 49.330 11.260 10.360 4.090 5.014 15.38 15.440 15.580 15.500 76.580 71.520 1.248 15.53 15.770 15.900 15.620 15.23 15.190 15.340 15.390 12.130 11.010 8.940 8.750 17.474 13.355 4.092 17.609 12.578 5.015
PRIMET_226 2016-09-30 10:40:00 226 156.7 0.00 202 0.629 0.546 136.200 29.370 11.530 10.650 3.615 4.673 15.14 15.230 15.350 15.400 79.000 73.300 1.392 15.40 15.580 15.660 15.570 15.00 14.940 15.090 15.280 11.920 10.940 11.020 9.960 17.206 13.596 3.613 17.496 12.824 4.671
PRIMET_226 2016-09-30 10:35:00 226 156.7 0.00 198 0.167 0.163 138.800 11.140 11.310 10.530 3.708 4.933 15.05 15.160 15.420 15.540 78.320 72.060 0.810 15.11 15.220 15.500 15.650 15.00 15.090 15.340 15.470 11.670 10.820 11.010 10.300 17.107 13.399 3.709 17.654 12.722 4.932
PRIMET_226 2016-09-30 10:30:00 226 156.7 0.00 202 0.370 0.300 102.100 35.260 11.230 10.210 3.991 5.220 15.25 15.370 15.530 15.560 76.970 70.470 0.732 15.54 15.570 15.660 15.800 15.14 15.200 15.340 15.440 11.700 10.640 10.290 9.560 17.328 13.328 3.991 17.676 12.453 5.220
PRIMET_226 2016-09-30 10:25:00 226 156.7 0.00 187 0.433 0.251 153.100 52.560 11.410 10.490 3.928 5.451 15.33 15.710 15.930 15.970 77.460 69.960 0.954 15.55 16.020 16.250 16.110 15.00 15.350 15.760 15.810 12.080 10.920 10.040 9.620 17.418 13.488 3.926 18.146 12.688 5.451
PRIMET_226 2016-09-30 10:20:00 226 156.7 0.00 200 0.304 0.149 91.000 57.970 10.600 9.820 4.374 5.971 15.10 15.530 15.940 15.940 74.510 67.020 0.706 15.20 15.790 16.180 16.110 14.97 15.240 15.660 15.650 11.600 10.680 9.590 9.320 17.162 12.781 4.375 18.112 12.131 5.973
PRIMET_226 2016-09-30 10:15:00 226 156.7 0.00 197 0.556 0.481 178.000 29.720 10.520 9.690 4.580 5.749 15.23 15.410 15.790 15.650 73.520 67.660 1.176 15.44 15.740 16.140 15.860 14.96 15.060 15.480 15.290 11.450 10.450 9.340 9.120 17.306 12.713 4.583 17.779 12.026 5.750
PRIMET_226 2016-09-30 10:10:00 226 156.7 0.00 193 1.060 0.829 213.600 37.800 9.610 9.260 4.678 5.367 14.62 15.040 15.280 15.000 71.910 68.530 2.149 14.90 15.250 15.550 15.240 14.32 14.860 14.990 14.650 11.030 10.300 9.270 9.010 16.639 11.962 4.674 17.052 11.683 5.366
PRIMET_226 2016-09-30 10:05:00 226 156.7 0.00 190 1.267 1.131 214.700 26.570 10.330 9.880 3.294 4.053 13.88 14.300 14.440 14.240 79.280 75.080 2.803 14.26 14.810 14.940 14.620 13.62 13.820 13.970 13.970 11.290 10.410 9.300 9.120 15.861 12.553 3.286 16.235 12.180 4.046
PRIMET_226 2016-09-30 10:00:00 226 156.7 0.00 195 0.585 0.372 198.100 48.830 10.530 10.110 2.484 3.227 13.24 13.690 13.830 13.630 83.700 79.330 2.221 13.64 14.070 14.140 13.950 12.84 13.290 13.490 13.370 11.130 10.570 9.530 9.500 15.213 12.722 2.480 15.605 12.370 3.226
PRIMET_226 2016-09-30 09:55:00 226 156.7 0.00 190 0.632 0.483 215.700 39.310 10.680 10.400 1.713 2.535 12.57 13.190 13.440 13.170 88.300 83.300 1.215 12.82 13.500 13.700 13.390 12.16 12.840 13.140 12.930 10.980 10.610 9.940 9.980 14.560 12.850 1.704 15.144 12.612 2.529
PRIMET_226 2016-09-30 09:50:00 226 156.7 0.00 196 0.207 0.173 197.500 32.770 10.580 10.410 0.960 1.791 11.67 12.360 12.650 12.410 93.000 87.600 0.653 12.10 12.900 13.200 12.890 11.24 11.870 12.160 12.020 10.820 10.540 10.440 10.260 13.722 12.764 0.961 14.408 12.620 1.787
PRIMET_226 2016-09-30 09:45:00 226 156.7 0.00 193 0.023 0.023 193.700 0.170 10.400 10.190 0.482 1.400 10.96 11.530 11.800 11.800 96.300 89.900 0.183 11.18 11.800 12.090 11.970 10.86 11.390 11.660 11.730 10.580 10.330 10.340 10.130 13.091 12.612 0.484 13.841 12.436 1.398
PRIMET_226 2016-09-30 09:40:00 226 156.7 0.00 196 0.169 0.164 157.400 13.300 10.260 10.150 0.446 1.254 10.78 11.210 11.480 11.600 96.600 90.800 0.653 10.84 11.380 11.640 11.730 10.69 11.100 11.370 11.430 10.330 10.220 10.170 10.060 12.935 12.494 0.440 13.659 12.403 1.257
PRIMET_226 2016-09-30 09:35:00 226 156.7 0.00 197 0.097 0.093 153.500 16.710 10.160 10.020 0.378 1.189 10.60 11.040 11.310 11.400 97.000 91.200 0.379 10.69 11.110 11.380 11.460 10.56 11.010 11.280 11.370 10.180 10.090 10.120 9.970 12.781 12.411 0.383 13.479 12.295 1.186
PRIMET_226 2016-09-30 09:30:00 226 156.7 0.00 194 0.370 0.370 130.200 2.857 10.030 10.090 0.384 1.234 10.49 11.080 11.430 11.520 97.000 90.900 0.673 10.57 11.180 11.600 11.560 10.46 11.010 11.310 11.460 10.140 10.200 9.970 10.000 12.688 12.303 0.381 13.587 12.353 1.236
PRIMET_226 2016-09-30 09:25:00 226 156.7 0.00 195 0.017 0.017 145.400 0.000 10.160 10.330 0.243 0.967 10.45 11.350 11.790 11.450 98.100 92.900 0.196 10.50 11.450 11.890 11.550 10.33 11.200 11.620 11.230 10.260 10.420 10.040 10.210 12.654 12.411 0.240 13.524 12.553 0.960
PRIMET_226 2016-09-30 09:20:00 226 156.7 0.00 195 0.420 0.412 119.300 11.320 10.140 10.440 0.003 0.500 10.15 10.880 11.340 11.020 100.000 96.200 0.679 10.32 11.260 11.670 11.220 9.94 10.510 10.970 10.780 10.280 10.520 9.940 10.370 12.403 12.394 0.000 13.144 12.645 0.499
PRIMET_226 2016-09-30 09:15:00 226 156.7 0.00 192 0.578 0.571 113.200 8.780 9.570 10.390 0.000 0.102 9.57 10.120 10.590 10.510 100.000 99.200 0.954 9.90 10.470 10.930 10.750 9.34 9.870 10.310 10.280 9.900 10.470 9.340 10.280 11.929 11.929 0.000 12.705 12.603 0.102
PRIMET_226 2016-09-30 09:10:00 226 156.7 0.00 197 0.007 0.007 188.900 0.000 9.210 10.000 0.000 0.000 9.21 9.710 10.090 10.000 100.000 100.000 0.007 9.34 9.850 10.290 10.270 9.10 9.600 9.940 9.780 9.340 10.270 9.100 9.780 11.644 11.644 -0.000 12.279 12.279 0.000
PRIMET_226 2016-09-30 09:05:00 226 156.7 0.00 195 0.007 0.007 188.900 0.175 9.000 9.630 0.000 0.000 9.00 9.510 9.830 9.630 100.000 100.000 0.007 9.10 9.590 9.920 9.770 8.89 9.400 9.760 9.550 9.100 9.770 8.890 9.550 11.480 11.480 0.000 11.978 11.978 0.000
PRIMET_226 2016-09-30 09:00:00 226 156.7 0.00 192 0.007 0.007 189.400 0.000 8.820 9.540 0.000 0.000 8.82 9.330 9.810 9.540 100.000 100.000 0.007 8.90 9.390 9.890 9.570 8.77 9.290 9.760 9.530 8.900 9.570 8.770 9.530 11.341 11.341 0.000 11.905 11.905 0.000
PRIMET_226 2016-09-30 08:55:00 226 156.7 0.00 182 0.007 0.007 189.400 0.040 8.610 9.530 0.000 0.000 8.61 9.180 9.860 9.530 100.000 100.000 0.007 8.77 9.310 9.910 9.570 8.40 9.020 9.720 9.440 8.770 9.570 8.400 9.440 11.181 11.181 0.000 11.897 11.897 -0.000
PRIMET_226 2016-09-30 08:50:00 226 156.7 0.00 196 0.007 0.007 189.400 0.000 8.240 9.010 0.000 0.000 8.24 8.700 9.220 9.010 100.000 100.000 0.007 8.39 9.010 9.680 9.400 8.06 8.410 8.740 8.540 8.390 9.400 8.060 8.540 10.904 10.904 0.000 11.488 11.488 -0.000
PRIMET_226 2016-09-30 08:45:00 226 156.7 0.00 196 0.007 0.007 189.500 0.000 7.946 8.170 0.000 0.000 7.95 8.230 8.410 8.170 100.000 100.000 0.007 8.05 8.370 8.670 8.490 7.86 8.130 8.260 7.959 8.050 8.490 7.856 7.959 10.688 10.688 0.000 10.852 10.852 0.000
PRIMET_226 2016-09-30 08:40:00 226 156.7 0.00 192 0.007 0.007 189.700 0.056 7.758 7.886 0.000 0.000 7.76 8.060 8.200 7.886 100.000 100.000 0.007 7.84 8.120 8.250 7.953 7.68 7.988 8.130 7.814 7.836 7.953 7.680 7.814 10.551 10.551 0.000 10.644 10.644 0.000
PRIMET_226 2016-09-30 08:35:00 226 156.7 0.00 196 0.007 0.007 189.700 0.000 7.596 7.725 0.000 0.000 7.60 7.904 8.040 7.725 100.000 100.000 0.007 7.66 7.980 8.120 7.814 7.53 7.823 7.954 7.654 7.660 7.814 7.534 7.654 10.435 10.435 0.000 10.528 10.528 0.000
PRIMET_226 2016-09-30 08:30:00 226 156.7 0.00 181 0.007 0.007 189.700 0.000 7.484 7.584 0.000 0.000 7.48 7.739 7.879 7.584 100.000 100.000 0.007 7.53 7.810 7.949 7.640 7.44 7.671 7.820 7.535 7.534 7.640 7.438 7.535 10.356 10.356 0.000 10.427 10.427 0.000
PRIMET_226 2016-09-30 08:25:00 226 156.7 0.00 196 0.007 0.007 189.700 0.000 7.416 7.486 0.000 0.000 7.42 7.635 7.766 7.486 100.000 100.000 0.007 7.44 7.672 7.812 7.541 7.37 7.590 7.728 7.441 7.444 7.541 7.371 7.441 10.308 10.308 0.000 10.357 10.357 0.000
PRIMET_226 2016-09-30 08:20:00 226 156.7 0.00 191 0.007 0.007 189.700 0.000 7.337 7.432 0.000 0.000 7.34 7.553 7.701 7.432 100.000 100.000 0.007 7.37 7.581 7.726 7.451 7.30 7.526 7.683 7.414 7.371 7.451 7.304 7.414 10.252 10.252 0.000 10.319 10.319 0.000
PRIMET_226 2016-09-30 08:15:00 226 156.7 0.00 187 0.007 0.007 189.700 0.028 7.291 7.395 0.000 0.000 7.29 7.494 7.660 7.395 100.000 100.000 0.007 7.30 7.518 7.675 7.417 7.28 7.481 7.644 7.368 7.301 7.417 7.278 7.368 10.220 10.220 0.000 10.293 10.293 -0.000
PRIMET_226 2016-09-30 08:10:00 226 156.7 0.00 195 0.007 0.007 189.700 0.028 7.330 7.378 0.000 0.000 7.33 7.524 7.659 7.378 100.000 100.000 0.007 7.36 7.548 7.673 7.388 7.30 7.487 7.642 7.365 7.355 7.388 7.304 7.365 10.247 10.247 0.000 10.281 10.281 0.000
PRIMET_226 2016-09-30 08:05:00 226 156.7 0.00 196 0.007 0.007 189.700 0.000 7.334 7.353 0.000 0.000 7.33 7.545 7.663 7.353 100.000 100.000 0.007 7.35 7.554 7.674 7.375 7.31 7.530 7.648 7.325 7.352 7.375 7.312 7.325 10.250 10.250 0.000 10.263 10.263 0.000
PRIMET_226 2016-09-30 08:00:00 226 156.7 0.00 197 0.007 0.007 189.700 0.000 7.288 7.300 0.000 0.000 7.29 7.499 7.619 7.300 100.000 100.000 0.007 7.32 7.532 7.651 7.335 7.24 7.452 7.580 7.265 7.318 7.335 7.245 7.265 10.218 10.218 0.000 10.226 10.226 0.000
PRIMET_226 2016-09-30 07:55:00 226 156.7 0.00 196 0.007 0.007 189.700 0.000 7.164 7.192 0.000 0.000 7.16 7.395 7.500 7.192 100.000 100.000 0.007 7.25 7.462 7.574 7.265 7.06 7.286 7.393 7.121 7.248 7.265 7.064 7.121 10.131 10.131 0.000 10.151 10.151 0.000
PRIMET_226 2016-09-30 07:50:00 226 156.7 0.00 196 0.007 0.007 189.700 0.000 6.985 7.022 0.000 0.000 6.99 7.171 7.284 7.022 100.000 100.000 0.007 7.06 7.270 7.382 7.108 6.92 7.087 7.194 6.957 7.061 7.108 6.921 6.957 10.008 10.008 0.000 10.033 10.033 0.000
PRIMET_226 2016-09-30 07:45:00 226 156.7 0.00 196 0.007 0.007 189.700 0.028 6.889 6.911 0.000 0.000 6.89 7.025 7.137 6.911 100.000 100.000 0.007 6.93 7.077 7.186 6.954 6.85 6.962 7.080 6.877 6.931 6.954 6.850 6.877 9.942 9.942 0.000 9.957 9.957 0.000
PRIMET_226 2016-09-30 07:40:00 226 156.7 0.00 195 0.007 0.007 189.700 0.000 6.827 6.854 0.000 0.000 6.83 6.939 7.053 6.854 100.000 100.000 0.007 6.86 6.962 7.074 6.887 6.80 6.922 7.033 6.833 6.857 6.887 6.800 6.833 9.900 9.900 0.000 9.918 9.918 0.000
PRIMET_226 2016-09-30 07:35:00 226 156.7 0.00 195 0.007 0.007 189.700 0.000 6.794 6.828 0.000 0.000 6.79 6.915 7.030 6.828 100.000 100.000 0.007 6.81 6.927 7.041 6.841 6.78 6.900 7.017 6.810 6.807 6.840 6.780 6.810 9.877 9.877 0.000 9.900 9.900 0.000
PRIMET_226 2016-09-30 07:30:00 226 156.7 0.00 187 0.007 0.007 189.700 0.000 6.774 6.815 0.000 0.000 6.77 6.913 7.030 6.815 100.000 100.000 0.007 6.79 6.926 7.046 6.827 6.76 6.889 7.013 6.803 6.793 6.827 6.763 6.803 9.864 9.864 0.000 9.891 9.891 0.000
PRIMET_226 2016-09-30 07:25:00 226 156.7 0.00 195 0.007 0.007 189.700 0.000 6.753 6.811 0.000 0.000 6.75 6.884 7.002 6.811 100.000 100.000 0.007 6.77 6.903 7.017 6.826 6.74 6.855 6.980 6.793 6.770 6.826 6.736 6.793 9.849 9.849 0.000 9.889 9.889 0.000
PRIMET_226 2016-09-30 07:20:00 226 156.7 0.00 196 0.007 0.007 189.700 0.000 6.730 6.808 0.000 0.000 6.73 6.859 6.985 6.809 100.000 100.000 0.007 6.74 6.870 6.998 6.820 6.71 6.850 6.977 6.800 6.740 6.820 6.713 6.800 9.834 9.834 0.000 9.887 9.887 0.000
PRIMET_226 2016-09-30 07:15:00 226 156.7 0.00 191 0.007 0.007 189.700 0.000 6.678 6.806 0.000 0.000 6.68 6.833 6.966 6.806 100.000 100.000 0.007 6.71 6.859 6.989 6.816 6.63 6.797 6.951 6.780 6.713 6.816 6.633 6.780 9.799 9.799 0.000 9.885 9.885 0.000
PRIMET_226 2016-09-30 07:10:00 226 156.7 0.00 196 0.007 0.007 189.700 0.000 6.629 6.772 0.000 0.000 6.63 6.771 6.915 6.772 100.000 100.000 0.007 6.64 6.789 6.943 6.793 6.62 6.753 6.885 6.753 6.639 6.793 6.619 6.753 9.766 9.766 0.000 9.862 9.862 0.000
PRIMET_226 2016-09-30 07:05:00 226 156.7 0.00 187 0.007 0.007 189.700 0.000 6.674 6.763 0.000 0.000 6.68 6.775 6.904 6.763 100.000 100.000 0.007 6.70 6.822 6.942 6.782 6.64 6.740 6.872 6.742 6.702 6.782 6.639 6.742 9.797 9.796 0.000 9.856 9.856 0.000
PRIMET_226 2016-09-30 07:00:00 226 156.7 0.00 196 0.007 0.007 189.700 0.000 6.712 6.779 0.000 0.000 6.71 6.839 6.953 6.779 100.000 100.000 0.007 6.73 6.847 6.961 6.792 6.70 6.825 6.942 6.762 6.728 6.792 6.699 6.762 9.822 9.822 0.000 9.867 9.867 0.000
PRIMET_226 2016-09-30 06:55:00 226 156.7 0.00 195 0.007 0.007 189.700 0.000 6.711 6.793 0.000 0.000 6.71 6.818 6.935 6.793 100.000 100.000 0.007 6.72 6.841 6.943 6.812 6.70 6.804 6.921 6.775 6.722 6.812 6.698 6.775 9.821 9.821 0.000 9.876 9.876 0.000
PRIMET_226 2016-09-30 06:50:00 226 156.7 0.00 195 0.007 0.007 189.700 0.000 6.694 6.802 0.000 0.000 6.69 6.810 6.952 6.802 100.000 100.000 0.007 6.71 6.820 6.963 6.811 6.68 6.797 6.943 6.784 6.711 6.811 6.681 6.784 9.809 9.809 0.000 9.883 9.883 0.000
PRIMET_226 2016-09-30 06:45:00 226 156.7 0.00 187 0.007 0.007 189.700 0.028 6.643 6.805 0.000 0.000 6.64 6.808 6.934 6.806 100.000 100.000 0.007 6.69 6.827 6.949 6.828 6.61 6.776 6.914 6.791 6.691 6.828 6.611 6.791 9.775 9.775 0.000 9.885 9.885 0.000
PRIMET_226 2016-09-30 06:40:00 226 156.7 0.00 195 0.007 0.007 189.700 0.000 6.696 6.850 0.000 0.000 6.70 6.827 6.950 6.850 100.000 100.000 0.007 6.72 6.859 6.989 6.871 6.66 6.784 6.911 6.831 6.724 6.871 6.664 6.831 9.811 9.811 0.000 9.915 9.915 0.000
PRIMET_226 2016-09-30 06:35:00 226 156.7 0.00 196 0.007 0.007 189.700 0.000 6.757 6.879 0.000 0.000 6.76 6.859 6.994 6.879 100.000 100.000 0.007 6.77 6.866 7.009 6.894 6.72 6.840 6.980 6.864 6.774 6.894 6.718 6.864 9.852 9.852 0.000 9.935 9.935 0.000
PRIMET_226 2016-09-30 06:30:00 226 156.7 0.00 196 0.007 0.007 189.700 0.000 6.799 6.914 0.000 0.000 6.80 6.883 7.015 6.914 100.000 100.000 0.007 6.85 6.930 7.050 6.944 6.75 6.842 6.980 6.894 6.847 6.944 6.754 6.894 9.881 9.881 0.000 9.959 9.959 0.000
PRIMET_226 2016-09-30 06:25:00 226 156.7 0.00 196 0.007 0.007 189.700 0.000 6.884 6.957 0.000 0.000 6.88 6.965 7.090 6.958 100.000 100.000 0.007 6.92 6.990 7.110 6.977 6.85 6.936 7.058 6.930 6.921 6.977 6.847 6.930 9.938 9.938 0.000 9.989 9.988 0.000
PRIMET_226 2016-09-30 06:20:00 226 156.7 0.00 196 0.007 0.007 189.700 0.000 6.927 6.994 0.000 0.000 6.93 6.962 7.077 6.994 100.000 100.000 0.007 6.95 6.983 7.100 7.027 6.91 6.938 7.053 6.970 6.950 7.027 6.907 6.970 9.968 9.968 0.000 10.014 10.014 0.000
PRIMET_226 2016-09-30 06:15:00 226 156.7 0.00 195 0.007 0.007 189.700 0.028 6.982 7.067 0.000 0.000 6.98 7.034 7.157 7.067 100.000 100.000 0.007 7.00 7.083 7.215 7.106 6.96 6.983 7.097 7.030 7.003 7.106 6.956 7.030 10.006 10.006 0.000 10.064 10.064 0.000
PRIMET_226 2016-09-30 06:10:00 226 156.7 0.00 179 0.007 0.007 189.700 0.000 7.015 7.138 0.000 0.000 7.01 7.134 7.276 7.138 100.000 100.000 0.007 7.02 7.157 7.304 7.166 7.01 7.091 7.224 7.109 7.022 7.166 7.009 7.109 10.028 10.028 0.000 10.113 10.113 0.000
PRIMET_226 2016-09-30 06:05:00 226 156.7 0.00 195 0.007 0.007 189.700 0.028 7.020 7.187 0.000 0.000 7.02 7.161 7.316 7.187 100.000 100.000 0.007 7.04 7.165 7.326 7.209 7.00 7.151 7.304 7.166 7.039 7.209 7.002 7.166 10.032 10.032 0.000 10.147 10.147 0.000
PRIMET_226 2016-09-30 06:00:00 226 156.7 0.00 196 0.007 0.007 189.700 0.000 7.043 7.219 0.000 0.000 7.04 7.153 7.328 7.219 100.000 100.000 0.007 7.05 7.168 7.340 7.242 7.03 7.136 7.298 7.196 7.055 7.242 7.035 7.196 10.048 10.048 0.000 10.170 10.170 0.000
PRIMET_226 2016-09-30 05:55:00 226 156.7 0.00 196 0.007 0.007 189.700 0.000 7.130 7.266 0.000 0.000 7.13 7.203 7.338 7.266 100.000 100.000 0.007 7.18 7.267 7.377 7.295 7.06 7.123 7.308 7.245 7.182 7.295 7.058 7.245 10.108 10.108 0.000 10.202 10.202 0.000
PRIMET_226 2016-09-30 05:50:00 226 156.7 0.00 196 0.007 0.007 189.700 0.000 7.216 7.336 0.000 0.000 7.22 7.311 7.436 7.336 100.000 100.000 0.007 7.24 7.345 7.476 7.375 7.18 7.275 7.382 7.292 7.245 7.375 7.182 7.292 10.168 10.168 0.000 10.251 10.251 0.000
PRIMET_226 2016-09-30 05:45:00 226 156.7 0.00 196 0.007 0.007 189.700 0.000 7.256 7.411 0.000 0.000 7.26 7.367 7.515 7.411 100.000 100.000 0.007 7.30 7.412 7.561 7.454 7.23 7.345 7.484 7.361 7.298 7.454 7.231 7.361 10.195 10.195 0.000 10.304 10.304 0.000
PRIMET_226 2016-09-30 05:40:00 226 156.7 0.00 183 0.007 0.007 189.700 0.000 7.336 7.481 0.000 0.000 7.34 7.457 7.605 7.481 100.000 100.000 0.007 7.36 7.478 7.627 7.511 7.30 7.417 7.579 7.458 7.361 7.511 7.298 7.458 10.251 10.251 0.000 10.354 10.354 0.000
PRIMET_226 2016-09-30 05:35:00 226 156.7 0.00 196 0.007 0.007 189.700 0.028 7.422 7.553 0.000 0.000 7.42 7.523 7.691 7.553 100.000 100.000 0.007 7.49 7.601 7.766 7.594 7.36 7.470 7.629 7.508 7.488 7.594 7.364 7.508 10.312 10.312 0.000 10.405 10.405 0.000
PRIMET_226 2016-09-30 05:30:00 226 156.7 0.00 190 0.007 0.007 189.700 0.000 7.500 7.627 0.000 0.000 7.50 7.650 7.798 7.627 100.000 100.000 0.007 7.51 7.667 7.816 7.654 7.47 7.620 7.769 7.588 7.511 7.654 7.474 7.588 10.367 10.367 0.000 10.458 10.458 0.000
PRIMET_226 2016-09-30 05:25:00 226 156.7 0.00 196 0.007 0.007 189.700 0.000 7.502 7.642 0.000 0.000 7.50 7.648 7.812 7.642 100.000 100.000 0.007 7.52 7.662 7.834 7.658 7.47 7.627 7.781 7.621 7.521 7.658 7.474 7.621 10.369 10.369 0.000 10.468 10.468 0.000
PRIMET_226 2016-09-30 05:20:00 226 156.7 0.00 195 0.007 0.007 189.700 0.000 7.488 7.625 0.000 0.000 7.49 7.619 7.775 7.625 100.000 100.000 0.007 7.53 7.650 7.791 7.651 7.46 7.600 7.765 7.604 7.527 7.651 7.461 7.604 10.359 10.359 0.000 10.456 10.456 0.000
PRIMET_226 2016-09-30 05:15:00 226 156.7 0.00 187 0.007 0.007 189.700 0.000 7.585 7.698 0.000 0.000 7.59 7.701 7.846 7.698 100.000 100.000 0.007 7.63 7.761 7.913 7.751 7.53 7.656 7.789 7.654 7.634 7.751 7.531 7.654 10.428 10.428 0.000 10.508 10.508 0.000
PRIMET_226 2016-09-30 05:10:00 226 156.7 0.00 195 0.007 0.007 189.700 0.000 7.676 7.771 0.000 0.000 7.68 7.813 7.952 7.771 100.000 100.000 0.007 7.71 7.836 7.972 7.807 7.64 7.774 7.913 7.744 7.711 7.807 7.637 7.744 10.493 10.493 0.000 10.561 10.561 0.000
PRIMET_226 2016-09-30 05:05:00 226 156.7 0.00 192 0.007 0.007 189.700 0.000 7.735 7.821 0.000 0.000 7.74 7.863 7.996 7.821 100.000 100.000 0.007 7.75 7.885 8.020 7.861 7.71 7.836 7.971 7.791 7.754 7.861 7.711 7.791 10.535 10.535 0.000 10.597 10.597 0.000
PRIMET_226 2016-09-30 05:00:00 226 156.7 0.00 196 0.007 0.007 189.700 0.000 7.768 7.861 0.000 0.000 7.77 7.904 8.040 7.861 100.000 100.000 0.007 7.79 7.930 8.070 7.887 7.75 7.881 8.020 7.834 7.790 7.887 7.747 7.834 10.559 10.559 0.000 10.626 10.626 0.000
PRIMET_226 2016-09-30 04:55:00 226 156.7 0.00 196 0.007 0.007 189.700 0.000 7.783 7.906 0.000 0.000 7.78 7.943 8.090 7.906 100.000 100.000 0.007 7.80 7.965 8.110 7.930 7.76 7.917 8.060 7.877 7.804 7.930 7.757 7.877 10.569 10.569 0.000 10.659 10.659 0.000
PRIMET_226 2016-09-30 04:50:00 226 156.7 0.00 196 0.007 0.007 189.700 0.000 7.816 7.940 0.000 0.000 7.82 7.990 8.120 7.940 100.000 100.000 0.007 7.84 8.010 8.140 7.953 7.79 7.973 8.110 7.927 7.837 7.953 7.793 7.927 10.593 10.593 -0.000 10.683 10.683 0.000
PRIMET_226 2016-09-30 04:45:00 226 156.7 0.00 182 0.007 0.007 189.700 0.000 7.785 7.944 0.000 0.000 7.78 7.979 8.120 7.944 100.000 100.000 0.007 7.80 8.000 8.140 7.963 7.76 7.951 8.110 7.933 7.803 7.963 7.760 7.933 10.571 10.571 0.000 10.686 10.686 0.000
PRIMET_226 2016-09-30 04:40:00 226 156.7 0.00 196 0.007 0.007 189.700 0.000 7.802 7.954 0.000 0.000 7.80 7.979 8.130 7.954 100.000 100.000 0.007 7.83 8.000 8.150 7.967 7.77 7.959 8.110 7.940 7.833 7.967 7.773 7.940 10.583 10.583 0.000 10.693 10.693 0.000
PRIMET_226 2016-09-30 04:35:00 226 156.7 0.00 187 0.007 0.007 189.700 0.000 7.856 7.966 0.000 0.000 7.86 8.030 8.170 7.966 100.000 100.000 0.007 7.87 8.050 8.180 7.973 7.82 8.010 8.150 7.956 7.873 7.973 7.823 7.956 10.622 10.622 0.000 10.702 10.702 0.000
PRIMET_226 2016-09-30 04:30:00 226 156.7 0.00 197 0.007 0.007 189.700 0.000 7.870 7.975 0.000 0.000 7.87 8.050 8.180 7.975 100.000 100.000 0.007 7.89 8.060 8.180 7.986 7.86 8.050 8.170 7.966 7.886 7.986 7.856 7.966 10.632 10.632 -0.000 10.709 10.709 0.000
PRIMET_226 2016-09-30 04:25:00 226 156.7 0.00 196 0.007 0.007 189.700 0.000 7.885 7.996 0.000 0.000 7.89 8.070 8.190 7.996 100.000 100.000 0.007 7.90 8.080 8.200 8.010 7.87 8.060 8.180 7.979 7.899 8.010 7.869 7.979 10.643 10.643 0.000 10.724 10.724 0.000
PRIMET_226 2016-09-30 04:20:00 226 156.7 0.00 196 0.007 0.007 189.700 0.000 7.871 7.981 0.000 0.000 7.87 8.050 8.170 7.981 100.000 100.000 0.007 7.89 8.070 8.190 8.000 7.85 8.030 8.150 7.956 7.892 8.000 7.852 7.956 10.633 10.633 0.000 10.713 10.713 0.000
PRIMET_226 2016-09-30 04:15:00 226 156.7 0.00 187 0.007 0.007 189.700 0.000 7.862 7.955 0.000 0.000 7.86 8.020 8.140 7.955 100.000 100.000 0.007 7.87 8.030 8.150 7.975 7.84 8.010 8.130 7.945 7.872 7.975 7.845 7.945 10.627 10.627 0.000 10.694 10.694 0.000
PRIMET_226 2016-09-30 04:10:00 226 156.7 0.00 197 0.007 0.007 189.700 0.000 7.858 7.954 0.000 0.000 7.86 8.000 8.130 7.954 100.000 100.000 0.007 7.87 8.010 8.140 7.962 7.84 7.986 8.110 7.942 7.872 7.962 7.839 7.942 10.624 10.624 0.000 10.693 10.693 0.000
PRIMET_226 2016-09-30 04:05:00 226 156.7 0.00 190 0.007 0.007 189.700 0.000 7.852 7.954 0.000 0.000 7.85 7.994 8.130 7.954 100.000 100.000 0.007 7.86 8.000 8.140 7.962 7.84 7.986 8.120 7.939 7.865 7.962 7.842 7.939 10.619 10.619 0.000 10.693 10.693 0.000
PRIMET_226 2016-09-30 04:00:00 226 156.7 0.00 187 0.007 0.007 189.700 0.028 7.840 7.968 0.000 0.000 7.84 7.997 8.130 7.968 100.000 100.000 0.007 7.86 8.010 8.150 7.978 7.82 7.987 8.120 7.952 7.859 7.978 7.822 7.952 10.611 10.611 0.000 10.704 10.704 0.000
PRIMET_226 2016-09-30 03:55:00 226 156.7 0.00 197 0.007 0.007 189.700 0.000 7.822 7.983 0.000 0.000 7.82 7.981 8.130 7.983 100.000 100.000 0.007 7.84 7.989 8.140 8.000 7.81 7.975 8.110 7.968 7.835 8.000 7.811 7.968 10.598 10.598 0.000 10.715 10.715 0.000
PRIMET_226 2016-09-30 03:50:00 226 156.7 0.00 197 0.007 0.007 189.700 0.000 7.810 7.969 0.000 0.000 7.81 7.959 8.110 7.969 100.000 100.000 0.007 7.83 7.986 8.130 7.984 7.79 7.937 8.090 7.957 7.831 7.984 7.794 7.957 10.589 10.589 0.000 10.704 10.704 -0.000
PRIMET_226 2016-09-30 03:45:00 226 156.7 0.00 197 0.007 0.007 189.700 0.000 7.838 7.987 0.000 0.000 7.84 7.960 8.110 7.988 100.000 100.000 0.007 7.87 7.997 8.140 8.020 7.80 7.935 8.090 7.961 7.871 8.020 7.801 7.961 10.609 10.609 0.000 10.718 10.717 0.000
PRIMET_226 2016-09-30 03:40:00 226 156.7 0.00 197 0.007 0.007 189.700 0.028 7.878 8.040 0.000 0.000 7.88 8.010 8.160 8.040 100.000 100.000 0.007 7.90 8.020 8.180 8.070 7.86 7.992 8.140 8.010 7.897 8.070 7.857 8.010 10.639 10.638 -0.000 10.756 10.756 0.000
PRIMET_226 2016-09-30 03:35:00 226 156.7 0.00 197 0.007 0.007 189.700 0.040 7.914 8.070 0.000 0.008 7.91 8.060 8.200 8.080 100.000 99.900 0.007 7.93 8.070 8.220 8.090 7.89 8.030 8.170 8.060 7.933 8.080 7.887 8.060 10.664 10.664 0.000 10.786 10.778 0.011
PRIMET_226 2016-09-30 03:30:00 226 156.7 0.00 192 0.007 0.007 189.700 0.028 7.963 8.090 0.000 0.019 7.96 8.100 8.240 8.120 100.000 99.800 0.007 8.02 8.150 8.270 8.150 7.93 8.060 8.210 8.090 8.020 8.120 7.926 8.070 10.700 10.700 0.000 10.815 10.793 0.022
PRIMET_226 2016-09-30 03:25:00 226 156.7 0.00 196 0.007 0.007 189.700 0.000 8.020 8.150 0.000 0.025 8.02 8.170 8.310 8.180 100.000 99.800 0.007 8.04 8.190 8.330 8.220 8.00 8.150 8.280 8.150 8.040 8.180 8.000 8.120 10.742 10.742 0.000 10.859 10.837 0.022
PRIMET_226 2016-09-30 03:20:00 226 156.7 0.00 191 0.018 0.018 189.700 0.000 8.050 8.190 0.000 0.035 8.05 8.210 8.350 8.240 100.000 99.700 0.078 8.07 8.230 8.380 8.260 8.03 8.190 8.330 8.220 8.070 8.210 8.030 8.170 10.764 10.764 0.000 10.904 10.867 0.033
PRIMET_226 2016-09-30 03:15:00 226 156.7 0.00 197 0.007 0.007 189.700 0.000 8.110 8.180 0.000 0.054 8.11 8.240 8.360 8.260 100.000 99.500 0.007 8.14 8.270 8.390 8.280 8.08 8.200 8.340 8.230 8.140 8.210 8.080 8.160 10.808 10.808 0.000 10.918 10.859 0.055
PRIMET_226 2016-09-30 03:10:00 226 156.7 0.00 196 0.007 0.007 189.700 0.000 8.160 8.240 0.000 0.058 8.16 8.300 8.430 8.320 100.000 99.500 0.007 8.18 8.340 8.470 8.350 8.14 8.280 8.390 8.280 8.180 8.270 8.140 8.210 10.844 10.844 0.000 10.963 10.904 0.055
PRIMET_226 2016-09-30 03:05:00 226 156.7 0.00 197 0.007 0.007 189.700 0.000 8.200 8.290 0.000 0.067 8.20 8.360 8.490 8.380 100.000 99.400 0.007 8.22 8.380 8.510 8.400 8.18 8.330 8.470 8.350 8.220 8.300 8.180 8.270 10.874 10.874 0.000 11.008 10.941 0.066
PRIMET_226 2016-09-30 03:00:00 226 156.7 0.00 196 0.007 0.007 189.700 0.000 8.200 8.250 0.000 0.105 8.20 8.330 8.480 8.390 100.000 99.000 0.007 8.21 8.350 8.500 8.420 8.19 8.310 8.460 8.370 8.210 8.270 8.190 8.230 10.874 10.874 0.000 11.015 10.911 0.110
PRIMET_226 2016-09-30 02:55:00 226 156.7 0.00 198 0.007 0.007 189.700 0.000 8.270 8.290 0.000 0.120 8.27 8.420 8.550 8.450 100.000 98.900 0.007 8.35 8.470 8.620 8.510 8.23 8.360 8.500 8.420 8.350 8.360 8.230 8.260 10.926 10.926 0.000 11.060 10.941 0.122
PRIMET_226 2016-09-30 02:50:00 226 156.7 0.00 197 0.007 0.007 189.700 0.028 8.420 8.420 0.000 0.111 8.42 8.580 8.700 8.560 100.000 99.000 0.007 8.45 8.630 8.750 8.590 8.34 8.480 8.620 8.520 8.450 8.440 8.340 8.370 11.038 11.038 0.000 11.143 11.038 0.111
PRIMET_226 2016-09-30 02:45:00 226 156.7 0.00 197 0.007 0.007 189.600 0.119 8.480 8.470 0.000 0.119 8.48 8.670 8.790 8.630 100.000 98.900 0.007 8.50 8.720 8.820 8.660 8.45 8.630 8.750 8.590 8.500 8.490 8.450 8.440 11.083 11.083 0.000 11.196 11.075 0.123
PRIMET_226 2016-09-30 02:40:00 226 156.7 0.00 188 0.007 0.007 189.800 0.289 8.510 8.490 0.000 0.132 8.51 8.730 8.840 8.660 100.000 98.800 0.007 8.53 8.740 8.850 8.690 8.50 8.710 8.820 8.640 8.530 8.510 8.500 8.470 11.105 11.105 0.000 11.219 11.090 0.135
PRIMET_226 2016-09-30 02:35:00 226 156.7 0.00 193 0.007 0.007 189.400 0.905 8.550 8.510 0.000 0.148 8.55 8.740 8.860 8.710 100.000 98.700 0.007 8.58 8.780 8.900 8.750 8.50 8.720 8.840 8.680 8.580 8.550 8.500 8.490 11.135 11.135 -0.000 11.257 11.105 0.146
PRIMET_226 2016-09-30 02:30:00 226 156.7 0.00 196 0.007 0.007 190.700 0.253 8.590 8.560 0.000 0.156 8.59 8.790 8.920 8.760 100.000 98.600 0.007 8.61 8.800 8.940 8.790 8.56 8.780 8.910 8.750 8.610 8.580 8.560 8.550 11.166 11.166 0.000 11.295 11.143 0.158
PRIMET_226 2016-09-30 02:25:00 226 156.7 0.00 187 0.041 0.041 191.300 0.234 8.620 8.610 0.000 0.161 8.62 8.820 8.970 8.820 100.000 98.600 0.248 8.65 8.850 8.990 8.830 8.58 8.790 8.940 8.790 8.650 8.630 8.580 8.580 11.188 11.188 0.000 11.341 11.181 0.159
PRIMET_226 2016-09-30 02:20:00 226 156.7 0.00 187 0.007 0.007 191.400 0.028 8.580 8.590 0.009 0.185 8.60 8.790 8.950 8.830 99.900 98.400 0.007 8.64 8.820 8.980 8.850 8.56 8.770 8.930 8.800 8.610 8.600 8.550 8.560 11.173 11.158 0.011 11.349 11.166 0.182
PRIMET_226 2016-09-30 02:15:00 226 156.7 0.00 196 0.007 0.007 191.400 0.040 8.670 8.620 0.021 0.197 8.70 8.880 9.010 8.880 99.800 98.300 0.007 8.74 8.920 9.050 8.900 8.66 8.830 8.980 8.850 8.710 8.640 8.620 8.600 11.249 11.226 0.022 11.387 11.188 0.194
PRIMET_226 2016-09-30 02:10:00 226 156.7 0.00 197 0.007 0.007 191.400 0.048 8.710 8.640 0.042 0.222 8.76 8.930 9.050 8.930 99.600 98.100 0.007 8.82 8.960 9.090 8.970 8.73 8.920 9.040 8.900 8.740 8.680 8.690 8.620 11.295 11.257 0.045 11.426 11.204 0.217
PRIMET_226 2016-09-30 02:05:00 226 156.7 0.00 182 0.007 0.007 190.400 2.354 8.810 8.710 0.047 0.226 8.87 9.030 9.150 9.000 99.600 98.000 0.007 8.91 9.060 9.180 9.030 8.83 8.970 9.100 8.970 8.850 8.730 8.760 8.680 11.379 11.333 0.046 11.480 11.257 0.230
PRIMET_226 2016-09-30 02:00:00 226 156.7 0.00 179 0.016 0.016 197.000 10.210 8.870 8.750 0.058 0.242 8.94 9.090 9.200 9.060 99.500 97.900 0.124 8.99 9.130 9.240 9.100 8.90 9.060 9.170 9.030 8.910 8.790 8.830 8.720 11.433 11.379 0.057 11.526 11.287 0.242
PRIMET_226 2016-09-30 01:55:00 226 156.7 0.00 192 0.007 0.007 209.700 0.063 8.930 8.790 0.061 0.255 9.01 9.160 9.270 9.120 99.500 97.800 0.007 9.05 9.200 9.310 9.140 8.98 9.120 9.220 9.090 8.970 8.810 8.900 8.760 11.488 11.426 0.057 11.573 11.318 0.255
PRIMET_226 2016-09-30 01:50:00 226 156.7 0.00 197 0.007 0.007 209.700 0.069 8.980 8.840 0.057 0.256 9.06 9.240 9.350 9.170 99.500 97.800 0.007 9.08 9.270 9.380 9.200 9.03 9.200 9.310 9.130 9.010 8.880 8.950 8.790 11.526 11.464 0.058 11.612 11.356 0.255
PRIMET_226 2016-09-30 01:45:00 226 156.7 0.00 197 0.007 0.007 209.500 0.194 9.010 8.860 0.054 0.263 9.08 9.270 9.380 9.200 99.500 97.700 0.007 9.09 9.280 9.390 9.220 9.06 9.260 9.370 9.190 9.020 8.880 8.990 8.850 11.542 11.488 0.058 11.636 11.372 0.268
PRIMET_226 2016-09-30 01:40:00 226 156.7 0.00 192 0.007 0.007 209.400 0.074 9.030 8.880 0.057 0.275 9.11 9.290 9.400 9.240 99.500 97.600 0.007 9.12 9.300 9.420 9.260 9.09 9.270 9.380 9.220 9.050 8.900 9.020 8.870 11.565 11.503 0.058 11.667 11.387 0.280
PRIMET_226 2016-09-30 01:35:00 226 156.7 0.00 196 0.007 0.007 209.400 0.074 9.040 8.910 0.068 0.290 9.12 9.300 9.430 9.290 99.400 97.500 0.007 9.17 9.350 9.480 9.320 9.10 9.290 9.410 9.250 9.080 8.950 9.020 8.890 11.573 11.511 0.069 11.707 11.410 0.293
PRIMET_226 2016-09-30 01:30:00 226 156.7 0.00 197 0.007 0.007 209.500 0.074 9.090 8.970 0.065 0.300 9.18 9.380 9.510 9.360 99.400 97.400 0.007 9.19 9.400 9.540 9.380 9.15 9.340 9.480 9.330 9.110 9.000 9.070 8.950 11.620 11.550 0.070 11.762 11.457 0.306
PRIMET_226 2016-09-30 01:25:00 226 156.7 0.00 196 0.007 0.007 209.500 0.063 9.160 9.040 0.071 0.302 9.25 9.470 9.600 9.430 99.400 97.400 0.007 9.30 9.550 9.660 9.460 9.19 9.400 9.540 9.390 9.230 9.090 9.090 8.990 11.675 11.604 0.070 11.818 11.511 0.307
PRIMET_226 2016-09-30 01:20:00 226 156.7 0.00 197 0.007 0.007 210.600 3.142 9.240 9.110 0.050 0.293 9.31 9.550 9.670 9.480 99.600 97.500 0.007 9.33 9.570 9.690 9.500 9.29 9.540 9.660 9.460 9.280 9.130 9.220 9.090 11.722 11.667 0.047 11.857 11.565 0.296
PRIMET_226 2016-09-30 01:15:00 226 156.7 0.00 192 0.007 0.007 220.600 0.000 9.230 9.120 0.044 0.295 9.29 9.540 9.670 9.490 99.600 97.500 0.007 9.32 9.560 9.690 9.510 9.25 9.510 9.650 9.480 9.270 9.140 9.190 9.100 11.707 11.659 0.047 11.865 11.573 0.297
PRIMET_226 2016-09-30 01:10:00 226 156.7 0.00 197 0.007 0.007 220.600 0.000 9.180 9.160 0.075 0.294 9.28 9.530 9.670 9.530 99.400 97.500 0.007 9.32 9.550 9.690 9.560 9.26 9.510 9.650 9.490 9.210 9.200 9.170 9.120 11.699 11.620 0.070 11.897 11.604 0.297
PRIMET_226 2016-09-30 01:05:00 226 156.7 0.00 197 0.007 0.007 220.600 0.000 9.250 9.180 0.076 0.288 9.35 9.560 9.690 9.540 99.400 97.600 0.007 9.37 9.570 9.700 9.560 9.33 9.550 9.680 9.520 9.280 9.200 9.220 9.160 11.754 11.675 0.071 11.905 11.620 0.286
PRIMET_226 2016-09-30 01:00:00 226 156.7 0.00 186 0.007 0.007 220.600 0.000 9.300 9.180 0.062 0.287 9.38 9.600 9.710 9.540 99.500 97.600 0.007 9.40 9.620 9.730 9.550 9.36 9.570 9.690 9.530 9.340 9.200 9.270 9.160 11.778 11.715 0.059 11.905 11.620 0.286
PRIMET_226 2016-09-30 00:55:00 226 156.7 0.00 197 0.046 0.046 220.600 0.000 9.310 9.170 0.042 0.292 9.37 9.590 9.710 9.540 99.600 97.500 0.170 9.40 9.620 9.740 9.560 9.34 9.560 9.690 9.520 9.350 9.200 9.290 9.140 11.770 11.722 0.047 11.905 11.612 0.298
PRIMET_226 2016-09-30 00:50:00 226 156.7 0.00 188 0.007 0.007 220.600 0.000 9.310 9.210 0.049 0.292 9.38 9.610 9.740 9.570 99.600 97.600 0.007 9.39 9.630 9.760 9.590 9.36 9.580 9.720 9.550 9.320 9.230 9.300 9.180 11.778 11.722 0.047 11.929 11.644 0.286
PRIMET_226 2016-09-30 00:45:00 226 156.7 0.00 197 0.219 0.219 220.600 0.000 9.310 9.210 0.066 0.306 9.39 9.640 9.760 9.590 99.400 97.400 0.451 9.40 9.650 9.770 9.600 9.38 9.630 9.750 9.580 9.320 9.230 9.290 9.180 11.786 11.722 0.071 11.945 11.644 0.311
PRIMET_226 2016-09-30 00:40:00 226 156.7 0.00 197 0.007 0.007 220.600 0.040 9.310 9.220 0.086 0.315 9.42 9.650 9.780 9.620 99.300 97.400 0.007 9.43 9.670 9.790 9.650 9.39 9.630 9.760 9.590 9.320 9.260 9.290 9.190 11.810 11.722 0.083 11.970 11.652 0.311
PRIMET_226 2016-09-30 00:35:00 226 156.7 0.00 192 0.007 0.007 220.200 0.710 9.330 9.240 0.082 0.313 9.43 9.680 9.800 9.630 99.300 97.400 0.007 9.45 9.690 9.820 9.640 9.41 9.660 9.790 9.620 9.350 9.260 9.310 9.220 11.818 11.738 0.083 11.978 11.667 0.311
PRIMET_226 2016-09-30 00:30:00 226 156.7 0.00 188 0.114 0.114 234.300 5.394 9.310 9.230 0.088 0.318 9.42 9.670 9.810 9.630 99.300 97.300 0.261 9.43 9.680 9.820 9.660 9.41 9.650 9.790 9.610 9.320 9.260 9.300 9.210 11.810 11.722 0.083 11.978 11.659 0.323
PRIMET_226 2016-09-30 00:25:00 226 156.7 0.00 197 0.007 0.007 238.700 0.056 9.330 9.270 0.103 0.310 9.46 9.710 9.840 9.660 99.100 97.400 0.007 9.49 9.740 9.860 9.680 9.42 9.670 9.820 9.650 9.360 9.290 9.300 9.250 11.841 11.738 0.107 12.002 11.691 0.312
PRIMET_226 2016-09-30 00:20:00 226 156.7 0.00 196 0.007 0.007 238.700 0.063 9.360 9.280 0.109 0.307 9.50 9.740 9.860 9.670 99.100 97.400 0.007 9.52 9.760 9.870 9.680 9.49 9.730 9.840 9.660 9.380 9.300 9.350 9.270 11.873 11.762 0.107 12.010 11.699 0.312
PRIMET_226 2016-09-30 00:15:00 226 156.7 0.00 188 0.007 0.007 238.700 0.056 9.420 9.330 0.114 0.292 9.57 9.790 9.890 9.690 99.000 97.600 0.007 9.62 9.820 9.910 9.720 9.51 9.760 9.870 9.670 9.490 9.360 9.360 9.290 11.929 11.810 0.119 12.026 11.738 0.289
PRIMET_226 2016-09-30 00:10:00 226 156.7 0.00 198 0.022 0.019 219.600 26.700 9.500 9.330 0.061 0.270 9.58 9.810 9.890 9.670 99.500 97.800 0.163 9.62 9.850 9.930 9.710 9.50 9.700 9.790 9.610 9.550 9.390 9.420 9.250 11.937 11.873 0.060 12.010 11.738 0.264
PRIMET_226 2016-09-30 00:05:00 226 156.7 0.00 189 0.116 0.116 181.900 0.000 9.380 9.230 0.073 0.304 9.47 9.660 9.760 9.620 99.400 97.500 0.248 9.50 9.710 9.800 9.640 9.45 9.630 9.730 9.600 9.430 9.250 9.350 9.210 11.849 11.778 0.071 11.970 11.659 0.299
PRIMET_226 2016-09-30 00:00:00 226 156.7 0.00 197 0.007 0.007 181.900 0.000 9.430 9.300 0.072 0.303 9.52 9.680 9.800 9.680 99.400 97.500 0.007 9.55 9.730 9.850 9.710 9.48 9.650 9.760 9.640 9.480 9.350 9.380 9.260 11.889 11.818 0.071 12.018 11.715 0.300
PRIMET_226 2016-09-29 23:55:00 226 156.7 0.00 182 0.019 0.019 181.900 0.000 9.470 9.350 0.046 0.291 9.53 9.710 9.840 9.710 99.600 97.600 0.144 9.56 9.750 9.870 9.730 9.47 9.660 9.810 9.690 9.510 9.380 9.390 9.300 11.897 11.849 0.048 12.042 11.754 0.289
PRIMET_226 2016-09-29 23:50:00 226 156.7 0.00 197 0.007 0.007 181.900 0.000 9.370 9.320 0.087 0.327 9.48 9.660 9.810 9.730 99.300 97.300 0.007 9.49 9.670 9.830 9.760 9.46 9.640 9.790 9.700 9.400 9.350 9.340 9.300 11.857 11.770 0.083 12.058 11.730 0.326
PRIMET_226 2016-09-29 23:45:00 226 156.7 0.00 197 0.007 0.007 181.900 0.000 9.400 9.370 0.130 0.349 9.56 9.760 9.900 9.800 98.900 97.100 0.007 9.63 9.820 9.950 9.850 9.48 9.690 9.840 9.770 9.450 9.400 9.330 9.350 11.921 11.794 0.131 12.115 11.770 0.351
PRIMET_226 2016-09-29 23:40:00 226 156.7 0.00 197 0.007 0.007 181.900 0.000 9.580 9.490 0.118 0.340 9.72 9.930 10.050 9.910 99.000 97.200 0.007 9.78 10.020 10.120 9.950 9.65 9.830 9.960 9.850 9.670 9.550 9.470 9.400 12.050 11.937 0.121 12.205 11.865 0.342
PRIMET_226 2016-09-29 23:35:00 226 156.7 0.00 183 0.046 0.046 180.200 0.844 9.650 9.510 0.084 0.328 9.76 10.000 10.110 9.920 99.300 97.300 0.242 9.80 10.030 10.140 9.930 9.72 9.960 10.070 9.900 9.690 9.540 9.610 9.480 12.083 11.994 0.085 12.213 11.881 0.330
PRIMET_226 2016-09-29 23:30:00 226 156.7 0.00 192 0.078 0.078 194.700 2.646 9.610 9.500 0.108 0.342 9.75 9.970 10.080 9.920 99.100 97.200 0.268 9.78 10.000 10.100 9.940 9.72 9.940 10.060 9.910 9.650 9.510 9.580 9.480 12.075 11.962 0.109 12.213 11.873 0.342
PRIMET_226 2016-09-29 23:25:00 226 156.7 0.00 192 0.007 0.007 195.200 0.074 9.670 9.530 0.096 0.341 9.79 10.010 10.110 9.950 99.200 97.200 0.007 9.81 10.030 10.140 9.960 9.76 9.990 10.090 9.930 9.700 9.550 9.620 9.510 12.107 12.010 0.097 12.238 11.897 0.343
PRIMET_226 2016-09-29 23:20:00 226 156.7 0.00 188 0.007 0.007 195.200 0.084 9.640 9.540 0.100 0.345 9.77 10.020 10.140 9.970 99.200 97.200 0.007 9.79 10.030 10.150 9.980 9.75 10.010 10.130 9.950 9.660 9.560 9.630 9.520 12.091 11.986 0.097 12.254 11.905 0.343
PRIMET_226 2016-09-29 23:15:00 226 156.7 0.00 192 0.007 0.007 195.300 0.074 9.730 9.620 0.092 0.320 9.85 10.050 10.170 10.010 99.200 97.400 0.007 9.89 10.080 10.200 10.030 9.79 10.030 10.140 9.980 9.810 9.660 9.660 9.560 12.156 12.058 0.097 12.287 11.970 0.319
PRIMET_226 2016-09-29 23:10:00 226 156.7 0.00 196 0.007 0.007 195.300 0.063 9.740 9.600 0.046 0.300 9.80 10.020 10.130 9.970 99.600 97.600 0.007 9.88 10.080 10.200 10.020 9.76 9.960 10.080 9.930 9.820 9.660 9.700 9.550 12.115 12.066 0.048 12.254 11.953 0.294
PRIMET_226 2016-09-29 23:05:00 226 156.7 0.00 188 0.007 0.007 195.300 0.074 9.710 9.560 0.044 0.313 9.77 9.960 10.080 9.950 99.600 97.400 0.007 9.78 9.960 10.090 9.960 9.76 9.950 10.070 9.940 9.720 9.580 9.700 9.550 12.091 12.042 0.048 12.238 11.921 0.318
PRIMET_226 2016-09-29 23:00:00 226 156.7 0.00 197 0.007 0.007 195.300 0.063 9.730 9.560 0.041 0.315 9.78 9.970 10.080 9.950 99.700 97.400 0.007 9.79 9.980 10.100 9.970 9.75 9.950 10.070 9.940 9.750 9.590 9.700 9.540 12.099 12.058 0.036 12.238 11.921 0.318
PRIMET_226 2016-09-29 22:55:00 226 156.7 0.00 193 0.007 0.007 195.300 0.063 9.670 9.500 0.058 0.346 9.74 9.910 10.030 9.930 99.500 97.200 0.007 9.76 9.940 10.060 9.950 9.72 9.900 10.010 9.910 9.700 9.540 9.640 9.470 12.066 12.010 0.060 12.221 11.873 0.342
PRIMET_226 2016-09-29 22:50:00 226 156.7 0.00 188 0.007 0.007 195.300 0.063 9.680 9.510 0.077 0.367 9.77 9.930 10.040 9.960 99.400 97.000 0.007 9.80 9.960 10.080 9.980 9.74 9.900 10.020 9.920 9.700 9.540 9.650 9.470 12.091 12.018 0.073 12.246 11.881 0.367
PRIMET_226 2016-09-29 22:45:00 226 156.7 0.00 192 0.007 0.007 195.300 0.074 9.700 9.510 0.090 0.386 9.81 9.960 10.080 9.990 99.300 96.900 0.007 9.83 9.970 10.090 10.010 9.78 9.940 10.060 9.970 9.710 9.540 9.670 9.480 12.123 12.034 0.085 12.271 11.881 0.380
PRIMET_226 2016-09-29 22:40:00 226 156.7 0.00 187 0.007 0.007 195.300 0.063 9.710 9.500 0.118 0.433 9.85 9.960 10.090 10.040 99.000 96.500 0.007 9.89 10.000 10.130 10.080 9.81 9.940 10.060 9.990 9.730 9.530 9.690 9.480 12.156 12.042 0.122 12.312 11.873 0.431
PRIMET_226 2016-09-29 22:35:00 226 156.7 0.00 198 0.007 0.007 195.300 0.079 9.780 9.570 0.141 0.460 9.95 10.060 10.180 10.130 98.800 96.300 0.007 10.02 10.140 10.240 10.180 9.88 10.010 10.130 10.090 9.860 9.620 9.710 9.530 12.238 12.099 0.147 12.386 11.929 0.458
PRIMET_226 2016-09-29 22:30:00 226 156.7 0.00 197 0.007 0.007 195.300 0.069 9.890 9.650 0.133 0.475 10.05 10.180 10.290 10.230 98.900 96.200 0.007 10.07 10.210 10.320 10.270 10.02 10.130 10.250 10.200 9.920 9.680 9.860 9.630 12.320 12.189 0.136 12.469 11.994 0.474
PRIMET_226 2016-09-29 22:25:00 226 156.7 0.00 188 0.007 0.007 195.300 0.069 9.850 9.680 0.197 0.532 10.09 10.200 10.340 10.330 98.400 95.800 0.007 10.18 10.270 10.400 10.410 10.03 10.160 10.290 10.270 9.910 9.740 9.810 9.650 12.353 12.156 0.198 12.553 12.018 0.527
PRIMET_226 2016-09-29 22:20:00 226 156.7 0.00 196 0.007 0.007 195.300 0.063 10.010 9.810 0.204 0.547 10.26 10.390 10.510 10.470 98.400 95.700 0.007 10.30 10.450 10.580 10.520 10.18 10.280 10.410 10.420 10.060 9.860 9.900 9.750 12.494 12.287 0.200 12.671 12.123 0.545
PRIMET_226 2016-09-29 22:15:00 226 156.7 0.00 197 0.007 0.007 195.300 0.074 10.100 9.910 0.207 0.557 10.35 10.520 10.650 10.570 98.300 95.600 0.007 10.37 10.570 10.700 10.620 10.31 10.450 10.590 10.530 10.120 9.950 10.060 9.860 12.570 12.361 0.214 12.756 12.205 0.561
PRIMET_226 2016-09-29 22:10:00 226 156.7 0.00 197 0.007 0.007 195.300 0.074 10.150 9.990 0.218 0.567 10.41 10.610 10.740 10.670 98.300 95.600 0.007 10.44 10.660 10.800 10.710 10.37 10.560 10.690 10.620 10.180 10.040 10.110 9.950 12.620 12.403 0.215 12.841 12.271 0.565
PRIMET_226 2016-09-29 22:05:00 226 156.7 0.00 189 0.007 0.007 195.300 0.074 10.210 10.060 0.222 0.571 10.48 10.710 10.850 10.740 98.200 95.600 0.007 10.52 10.750 10.890 10.780 10.45 10.660 10.800 10.710 10.230 10.100 10.200 10.040 12.679 12.453 0.228 12.901 12.328 0.568
PRIMET_226 2016-09-29 22:00:00 226 156.7 0.00 193 0.007 0.007 195.300 0.074 10.300 10.110 0.245 0.578 10.59 10.790 10.910 10.800 98.100 95.500 0.007 10.63 10.810 10.940 10.820 10.54 10.760 10.900 10.780 10.360 10.150 10.240 10.090 12.773 12.528 0.243 12.953 12.370 0.583
PRIMET_226 2016-09-29 21:55:00 226 156.7 0.00 196 0.007 0.007 195.300 0.069 10.340 10.120 0.234 0.594 10.62 10.800 10.920 10.820 98.200 95.400 0.007 10.64 10.820 10.940 10.840 10.60 10.780 10.900 10.800 10.360 10.140 10.320 10.100 12.798 12.561 0.230 12.970 12.378 0.597
PRIMET_226 2016-09-29 21:50:00 226 156.7 0.00 192 0.007 0.007 195.300 0.074 10.380 10.150 0.222 0.606 10.64 10.850 10.980 10.870 98.300 95.300 0.007 10.66 10.880 11.000 10.890 10.62 10.820 10.940 10.830 10.400 10.180 10.340 10.110 12.815 12.595 0.218 13.013 12.403 0.612
PRIMET_226 2016-09-29 21:45:00 226 156.7 0.00 193 0.007 0.007 195.300 0.069 10.370 10.170 0.226 0.616 10.64 10.880 11.010 10.900 98.200 95.300 0.007 10.65 10.880 11.020 10.920 10.63 10.870 11.000 10.880 10.400 10.180 10.330 10.150 12.815 12.586 0.231 13.039 12.419 0.613
PRIMET_226 2016-09-29 21:40:00 226 156.7 0.00 184 0.007 0.007 195.300 0.069 10.360 10.190 0.270 0.626 10.68 10.900 11.040 10.930 97.900 95.200 0.007 10.72 10.920 11.070 10.950 10.64 10.880 11.020 10.910 10.390 10.210 10.320 10.180 12.850 12.578 0.270 13.065 12.436 0.627
PRIMET_226 2016-09-29 21:35:00 226 156.7 0.00 193 0.007 0.007 195.300 0.079 10.420 10.230 0.282 0.633 10.75 10.960 11.090 10.970 97.800 95.200 0.007 10.78 11.000 11.120 10.990 10.72 10.920 11.060 10.940 10.450 10.250 10.390 10.200 12.910 12.629 0.284 13.100 12.469 0.629
PRIMET_226 2016-09-29 21:30:00 226 156.7 0.00 197 0.007 0.007 195.300 0.063 10.470 10.260 0.287 0.644 10.81 11.040 11.160 11.020 97.800 95.100 0.007 10.85 11.060 11.190 11.040 10.77 11.000 11.130 11.000 10.520 10.280 10.430 10.250 12.961 12.671 0.285 13.144 12.494 0.644
PRIMET_226 2016-09-29 21:25:00 226 156.7 0.00 188 0.007 0.007 195.200 0.093 10.520 10.300 0.262 0.646 10.83 11.070 11.200 11.050 98.000 95.100 0.007 10.84 11.080 11.210 11.070 10.81 11.050 11.180 11.030 10.530 10.320 10.510 10.280 12.979 12.713 0.260 13.170 12.528 0.645
PRIMET_226 2016-09-29 21:20:00 226 156.7 0.00 192 0.007 0.007 195.800 0.165 10.540 10.310 0.251 0.661 10.83 11.060 11.200 11.080 98.100 95.000 0.007 10.85 11.070 11.210 11.100 10.81 11.050 11.190 11.050 10.570 10.330 10.510 10.290 12.979 12.730 0.247 13.196 12.536 0.660
PRIMET_226 2016-09-29 21:15:00 226 156.7 0.00 196 0.007 0.007 195.800 0.069 10.590 10.360 0.231 0.653 10.86 11.100 11.250 11.120 98.200 95.100 0.007 10.88 11.120 11.270 11.140 10.84 11.070 11.210 11.100 10.620 10.390 10.560 10.330 13.004 12.773 0.234 13.231 12.578 0.648
PRIMET_226 2016-09-29 21:10:00 226 156.7 0.00 197 0.007 0.007 195.800 0.074 10.590 10.400 0.226 0.632 10.85 11.110 11.270 11.130 98.300 95.200 0.007 10.88 11.120 11.280 11.150 10.82 11.090 11.250 11.110 10.640 10.420 10.530 10.360 12.996 12.773 0.221 13.240 12.612 0.636
PRIMET_226 2016-09-29 21:05:00 226 156.7 0.00 197 0.007 0.007 195.800 0.079 10.580 10.360 0.252 0.650 10.87 11.110 11.240 11.110 98.100 95.100 0.007 10.91 11.130 11.260 11.120 10.84 11.090 11.220 11.100 10.630 10.370 10.540 10.340 13.013 12.764 0.247 13.222 12.578 0.648
PRIMET_226 2016-09-29 21:00:00 226 156.7 0.00 196 0.007 0.007 195.800 0.063 10.620 10.360 0.235 0.663 10.89 11.090 11.210 11.130 98.200 95.000 0.007 10.90 11.100 11.220 11.150 10.88 11.050 11.190 11.120 10.630 10.380 10.610 10.350 13.030 12.798 0.235 13.240 12.578 0.662
PRIMET_226 2016-09-29 20:55:00 226 156.7 0.00 184 0.007 0.007 195.800 0.074 10.610 10.350 0.241 0.694 10.89 11.060 11.200 11.160 98.100 94.800 0.007 10.90 11.070 11.210 11.180 10.87 11.050 11.180 11.140 10.630 10.370 10.590 10.330 13.030 12.790 0.248 13.266 12.570 0.690
PRIMET_226 2016-09-29 20:50:00 226 156.7 0.00 197 0.007 0.007 195.800 0.069 10.570 10.370 0.279 0.725 10.89 11.060 11.220 11.210 97.900 94.600 0.007 10.92 11.090 11.260 11.250 10.87 11.030 11.200 11.180 10.590 10.400 10.550 10.350 13.030 12.756 0.274 13.310 12.586 0.719
PRIMET_226 2016-09-29 20:45:00 226 156.7 0.00 196 0.007 0.007 195.800 0.069 10.530 10.390 0.352 0.757 10.94 11.120 11.280 11.270 97.300 94.300 0.007 10.97 11.140 11.300 11.310 10.92 11.100 11.260 11.230 10.590 10.410 10.470 10.370 13.074 12.722 0.353 13.364 12.603 0.762
PRIMET_226 2016-09-29 20:40:00 226 156.7 0.00 196 0.007 0.007 195.800 0.084 10.560 10.430 0.433 0.802 11.06 11.200 11.350 11.360 96.700 94.000 0.007 11.15 11.260 11.390 11.410 10.98 11.160 11.300 11.310 10.650 10.470 10.500 10.400 13.179 12.747 0.435 13.444 12.637 0.807
PRIMET_226 2016-09-29 20:35:00 226 156.7 0.00 197 0.007 0.007 195.800 0.074 10.710 10.500 0.449 0.841 11.22 11.310 11.450 11.470 96.600 93.800 0.007 11.30 11.380 11.510 11.520 11.15 11.260 11.400 11.420 10.780 10.530 10.650 10.470 13.319 12.875 0.453 13.542 12.696 0.840
PRIMET_226 2016-09-29 20:30:00 226 156.7 0.00 197 0.007 0.007 194.100 1.535 10.830 10.560 0.453 0.887 11.35 11.450 11.570 11.570 96.600 93.500 0.007 11.41 11.510 11.620 11.630 11.29 11.390 11.530 11.510 10.900 10.600 10.770 10.510 13.435 12.979 0.457 13.632 12.747 0.886
PRIMET_226 2016-09-29 20:25:00 226 156.7 0.00 197 0.007 0.007 192.700 0.056 10.920 10.640 0.468 0.929 11.45 11.560 11.690 11.690 96.500 93.200 0.007 11.50 11.600 11.750 11.750 11.40 11.510 11.630 11.650 10.940 10.670 10.880 10.610 13.524 13.056 0.473 13.740 12.815 0.934
PRIMET_226 2016-09-29 20:20:00 226 156.7 0.00 197 0.007 0.007 192.700 0.063 11.010 10.730 0.483 0.951 11.55 11.690 11.830 11.800 96.500 93.100 0.007 11.60 11.740 11.880 11.850 11.50 11.610 11.760 11.740 11.080 10.780 10.940 10.670 13.614 13.135 0.476 13.841 12.892 0.955
PRIMET_226 2016-09-29 20:15:00 226 156.7 0.00 188 0.007 0.007 192.700 0.048 11.090 10.780 0.431 0.980 11.57 11.740 11.880 11.880 96.800 93.000 0.007 11.59 11.760 11.900 11.940 11.56 11.720 11.870 11.830 11.110 10.800 11.070 10.760 13.632 13.205 0.436 13.914 12.935 0.974
PRIMET_226 2016-09-29 20:10:00 226 156.7 0.00 188 0.007 0.007 192.700 0.040 11.030 10.800 0.510 1.064 11.61 11.790 11.960 12.000 96.300 92.400 0.007 11.66 11.840 12.020 12.060 11.57 11.740 11.900 11.930 11.070 10.820 11.010 10.780 13.668 13.152 0.506 14.025 12.953 1.066
PRIMET_226 2016-09-29 20:05:00 226 156.7 0.00 196 0.007 0.007 192.700 0.048 11.110 10.850 0.573 1.150 11.75 11.920 12.090 12.130 95.800 91.900 0.007 11.83 11.990 12.160 12.200 11.66 11.850 12.010 12.060 11.190 10.890 11.050 10.810 13.795 13.222 0.579 14.145 12.996 1.146
PRIMET_226 2016-09-29 20:00:00 226 156.7 0.00 192 0.007 0.007 192.700 0.048 11.230 10.930 0.568 1.200 11.86 12.050 12.220 12.260 95.900 91.600 0.007 11.88 12.100 12.270 12.320 11.83 12.000 12.160 12.200 11.250 10.970 11.190 10.890 13.896 13.328 0.570 14.267 13.065 1.198
PRIMET_226 2016-09-29 19:55:00 226 156.7 0.00 192 0.007 0.007 192.700 0.063 11.250 10.990 0.660 1.286 11.98 12.180 12.350 12.410 95.300 91.100 0.007 12.07 12.270 12.430 12.460 11.88 12.090 12.260 12.330 11.270 11.020 11.200 10.960 14.006 13.346 0.658 14.408 13.117 1.282
PRIMET_226 2016-09-29 19:50:00 226 156.7 0.00 197 0.007 0.007 192.700 0.063 11.300 11.030 0.776 1.361 12.15 12.330 12.480 12.520 94.500 90.600 0.007 12.20 12.360 12.510 12.570 12.08 12.270 12.430 12.470 11.350 11.050 11.220 11.000 14.164 13.390 0.779 14.513 13.152 1.364
PRIMET_226 2016-09-29 19:45:00 226 156.7 0.00 192 0.007 0.007 192.700 0.048 11.390 11.040 0.809 1.466 12.27 12.420 12.570 12.640 94.300 90.000 0.007 12.34 12.470 12.630 12.710 12.22 12.370 12.520 12.580 11.440 11.090 11.350 11.010 14.276 13.470 0.814 14.627 13.161 1.463
PRIMET_226 2016-09-29 19:40:00 226 156.7 0.00 193 0.007 0.007 192.700 0.056 11.430 11.110 0.898 1.516 12.41 12.560 12.720 12.760 93.800 89.700 0.007 12.46 12.620 12.760 12.810 12.35 12.490 12.640 12.710 11.450 11.140 11.400 11.080 14.408 13.506 0.893 14.743 13.222 1.519
PRIMET_226 2016-09-29 19:35:00 226 156.7 0.00 193 0.007 0.007 192.700 0.056 11.490 11.170 0.934 1.558 12.50 12.680 12.840 12.850 93.600 89.500 0.007 12.52 12.720 12.880 12.900 12.47 12.610 12.770 12.810 11.530 11.220 11.440 11.130 14.494 13.560 0.928 14.830 13.275 1.557
PRIMET_226 2016-09-29 19:30:00 226 156.7 0.00 196 0.007 0.007 192.700 0.040 11.550 11.190 0.916 1.637 12.54 12.750 12.910 12.950 93.700 89.000 0.007 12.60 12.790 12.950 13.040 12.50 12.720 12.870 12.890 11.580 11.220 11.520 11.170 14.532 13.614 0.915 14.928 13.293 1.642
PRIMET_226 2016-09-29 19:25:00 226 156.7 0.00 196 0.007 0.007 192.700 0.040 11.570 11.220 1.056 1.758 12.70 12.900 13.060 13.110 92.800 88.300 0.007 12.78 12.990 13.140 13.180 12.62 12.800 12.970 13.030 11.610 11.280 11.540 11.180 14.685 13.632 1.057 15.085 13.319 1.765
PRIMET_226 2016-09-29 19:20:00 226 156.7 0.00 192 0.007 0.007 192.700 0.063 11.670 11.280 1.119 1.824 12.86 13.090 13.230 13.220 92.500 88.000 0.007 12.94 13.170 13.290 13.260 12.79 13.000 13.150 13.180 11.720 11.300 11.620 11.260 14.840 13.722 1.113 15.193 13.372 1.823
PRIMET_226 2016-09-29 19:15:00 226 156.7 0.00 197 0.007 0.007 192.700 0.048 11.680 11.270 1.249 1.909 13.00 13.220 13.350 13.300 91.700 87.500 0.007 13.06 13.270 13.380 13.340 12.94 13.170 13.300 13.270 11.700 11.310 11.650 11.260 14.976 13.731 1.243 15.273 13.364 1.909
PRIMET_226 2016-09-29 19:10:00 226 156.7 0.00 197 0.007 0.007 192.600 0.056 11.740 11.360 1.280 1.909 13.10 13.300 13.420 13.380 91.500 87.600 0.007 13.15 13.340 13.460 13.440 13.05 13.260 13.390 13.330 11.810 11.400 11.670 11.310 15.075 13.786 1.281 15.353 13.444 1.904
PRIMET_226 2016-09-29 19:05:00 226 156.7 0.00 198 0.007 0.007 192.600 0.056 11.800 11.430 1.373 1.993 13.24 13.450 13.560 13.530 91.000 87.100 0.007 13.30 13.530 13.650 13.570 13.15 13.360 13.460 13.460 11.830 11.460 11.750 11.400 15.213 13.841 1.369 15.504 13.506 2.000
PRIMET_226 2016-09-29 19:00:00 226 156.7 0.00 192 0.007 0.007 192.600 0.040 11.830 11.530 1.404 1.979 13.30 13.540 13.660 13.600 90.800 87.300 0.007 13.31 13.570 13.690 13.630 13.28 13.530 13.650 13.570 11.900 11.590 11.760 11.460 15.273 13.868 1.405 15.574 13.596 1.978
PRIMET_226 2016-09-29 18:55:00 226 156.7 0.00 193 0.007 0.007 192.500 0.093 11.940 11.560 1.316 2.003 13.31 13.580 13.710 13.650 91.400 87.200 0.007 13.33 13.590 13.720 13.690 13.29 13.570 13.700 13.620 11.970 11.620 11.880 11.520 15.283 13.969 1.314 15.625 13.623 2.000
PRIMET_226 2016-09-29 18:50:00 226 156.7 0.00 188 0.007 0.007 192.700 0.056 11.950 11.610 1.344 2.005 13.35 13.580 13.720 13.700 91.200 87.200 0.007 13.36 13.590 13.740 13.710 13.32 13.560 13.710 13.680 11.970 11.630 11.910 11.590 15.323 13.978 1.348 15.676 13.668 2.007
PRIMET_226 2016-09-29 18:45:00 226 156.7 0.00 193 0.007 0.007 192.700 0.063 12.010 11.620 1.319 2.074 13.38 13.610 13.750 13.770 91.400 86.800 0.007 13.45 13.640 13.790 13.830 13.34 13.590 13.730 13.720 12.080 11.640 11.980 11.580 15.353 14.034 1.320 15.748 13.677 2.079
PRIMET_226 2016-09-29 18:40:00 226 156.7 0.00 197 0.007 0.007 192.700 0.048 12.070 11.660 1.412 2.151 13.53 13.730 13.870 13.880 90.900 86.400 0.007 13.58 13.790 13.930 13.920 13.46 13.650 13.790 13.820 12.090 11.690 12.040 11.620 15.504 14.089 1.411 15.861 13.713 2.157
PRIMET_226 2016-09-29 18:35:00 226 156.7 0.00 196 0.007 0.007 192.700 0.063 12.110 11.690 1.476 2.228 13.63 13.850 13.990 13.980 90.500 86.000 0.007 13.68 13.920 14.050 14.020 13.58 13.800 13.940 13.920 12.140 11.720 12.050 11.670 15.605 14.127 1.482 15.964 13.740 2.235
PRIMET_226 2016-09-29 18:30:00 226 156.7 0.00 187 0.007 0.007 192.700 0.063 12.130 11.730 1.526 2.273 13.69 13.930 14.090 14.070 90.300 85.800 0.007 13.71 13.970 14.120 14.110 13.67 13.910 14.060 14.020 12.190 11.760 12.060 11.690 15.666 14.145 1.520 16.057 13.777 2.280
PRIMET_226 2016-09-29 18:25:00 226 156.7 0.00 197 0.007 0.007 192.700 0.056 12.140 11.750 1.541 2.338 13.72 13.980 14.160 14.140 90.200 85.500 0.007 13.75 14.000 14.190 14.190 13.71 13.970 14.120 14.110 12.170 11.780 12.100 11.730 15.697 14.154 1.538 16.130 13.795 2.339
PRIMET_226 2016-09-29 18:20:00 226 156.7 0.00 197 0.007 0.007 192.700 0.056 12.110 11.700 1.645 2.503 13.80 14.050 14.240 14.250 89.600 84.600 0.007 13.86 14.110 14.290 14.290 13.74 14.000 14.190 14.200 12.170 11.770 12.060 11.650 15.778 14.127 1.641 16.246 13.749 2.502
PRIMET_226 2016-09-29 18:15:00 226 156.7 0.00 198 0.007 0.007 192.700 0.056 12.110 11.690 1.715 2.595 13.86 14.120 14.300 14.330 89.200 84.100 0.007 13.91 14.140 14.330 14.390 13.84 14.100 14.290 14.280 12.150 11.750 12.050 11.660 15.840 14.127 1.711 16.330 13.740 2.596
PRIMET_226 2016-09-29 18:10:00 226 156.7 0.00 193 0.007 0.007 192.700 0.040 12.200 11.730 1.727 2.682 13.96 14.200 14.380 14.450 89.200 83.700 0.007 14.02 14.270 14.440 14.510 13.90 14.140 14.330 14.390 12.290 11.770 12.140 11.680 15.943 14.211 1.722 16.457 13.777 2.683
PRIMET_226 2016-09-29 18:05:00 226 156.7 0.00 193 0.007 0.007 192.700 0.040 12.290 11.720 1.804 2.826 14.11 14.360 14.520 14.570 88.800 83.000 0.007 14.16 14.420 14.590 14.610 14.03 14.270 14.440 14.510 12.350 11.760 12.240 11.670 16.099 14.295 1.803 16.586 13.768 2.820
PRIMET_226 2016-09-29 18:00:00 226 156.7 0.00 196 0.007 0.007 192.700 0.056 12.340 11.790 1.895 2.869 14.24 14.480 14.640 14.670 88.300 82.800 0.007 14.29 14.540 14.700 14.730 14.17 14.410 14.590 14.630 12.390 11.850 12.250 11.750 16.235 14.342 1.900 16.693 13.831 2.871
PRIMET_226 2016-09-29 17:55:00 226 156.7 0.00 188 0.007 0.007 192.700 0.056 12.400 11.980 1.926 2.817 14.33 14.570 14.740 14.790 88.200 83.200 0.007 14.37 14.600 14.770 14.850 14.30 14.550 14.710 14.730 12.570 12.100 12.200 11.820 16.330 14.399 1.927 16.823 14.006 2.826
PRIMET_226 2016-09-29 17:50:00 226 156.7 0.00 197 0.007 0.007 192.700 0.048 12.430 11.900 2.025 3.039 14.45 14.710 14.880 14.920 87.700 82.100 0.007 14.50 14.790 14.950 14.990 14.36 14.600 14.790 14.860 12.550 12.060 12.310 11.800 16.457 14.427 2.024 16.964 13.932 3.037
PRIMET_226 2016-09-29 17:45:00 226 156.7 0.00 197 0.007 0.007 192.700 0.056 12.460 12.010 2.096 3.035 14.54 14.820 14.990 15.010 87.300 82.200 0.007 14.57 14.840 15.010 15.040 14.51 14.790 14.940 14.980 12.540 12.050 12.380 11.970 16.553 14.456 2.102 17.063 14.034 3.037
PRIMET_226 2016-09-29 17:40:00 226 156.7 0.00 188 0.007 0.007 192.700 0.048 12.430 11.990 2.207 3.161 14.61 14.880 15.070 15.110 86.700 81.600 0.007 14.67 14.940 15.120 15.150 14.53 14.810 15.000 15.050 12.480 12.050 12.370 11.920 16.628 14.427 2.212 17.173 14.015 3.160
PRIMET_226 2016-09-29 17:35:00 226 156.7 0.00 197 0.007 0.007 192.700 0.063 12.370 11.970 2.371 3.301 14.71 14.990 15.170 15.220 85.800 80.900 0.007 14.76 15.040 15.240 15.270 14.67 14.940 15.120 15.160 12.450 12.020 12.310 11.890 16.736 14.370 2.377 17.295 13.997 3.303
PRIMET_226 2016-09-29 17:30:00 226 156.7 0.00 196 0.007 0.007 192.700 0.063 12.570 12.110 2.319 3.332 14.84 15.100 15.290 15.360 86.300 80.900 0.007 14.90 15.190 15.380 15.430 14.77 15.030 15.230 15.280 12.760 12.260 12.310 11.910 16.877 14.560 2.312 17.451 14.127 3.333
PRIMET_226 2016-09-29 17:25:00 226 156.7 0.00 189 0.007 0.007 192.700 0.048 12.430 11.950 2.611 3.600 14.99 15.270 15.450 15.480 84.700 79.530 0.007 15.04 15.330 15.500 15.510 14.91 15.190 15.380 15.420 12.680 12.050 12.270 11.870 17.041 14.427 2.607 17.586 13.978 3.600
PRIMET_226 2016-09-29 17:20:00 226 156.7 0.00 193 0.040 0.040 192.700 0.069 12.660 12.140 2.490 3.534 15.08 15.380 15.540 15.570 85.500 80.000 0.255 15.10 15.420 15.590 15.630 15.04 15.320 15.490 15.490 12.740 12.220 12.540 11.920 17.140 14.647 2.485 17.688 14.154 3.538
PRIMET_226 2016-09-29 17:15:00 226 156.7 0.00 197 0.007 0.007 190.100 3.623 12.610 11.850 2.563 3.895 15.10 15.400 15.590 15.650 85.100 78.090 0.007 15.13 15.440 15.600 15.670 15.08 15.350 15.570 15.620 13.020 12.250 12.300 11.570 17.162 14.599 2.557 17.779 13.886 3.895
PRIMET_226 2016-09-29 17:10:00 226 156.7 0.00 198 0.007 0.007 189.900 2.354 12.520 11.720 2.681 4.111 15.13 15.370 15.610 15.740 84.400 77.000 0.007 15.20 15.430 15.680 15.830 15.10 15.330 15.570 15.660 12.650 11.800 12.300 11.600 17.195 14.513 2.682 17.881 13.768 4.113
PRIMET_226 2016-09-29 17:05:00 226 156.7 0.00 194 0.007 0.007 187.700 0.000 12.580 11.820 2.771 4.188 15.26 15.530 15.760 15.890 84.000 76.800 0.007 15.34 15.580 15.800 15.970 15.20 15.460 15.700 15.820 12.660 12.040 12.450 11.740 17.339 14.570 2.774 18.054 13.859 4.188
PRIMET_226 2016-09-29 17:00:00 226 156.7 0.00 189 0.007 0.007 187.600 0.000 12.580 12.030 2.973 4.229 15.44 15.660 15.880 16.080 83.100 76.870 0.007 15.55 15.750 15.970 16.180 15.34 15.580 15.810 15.990 12.760 12.240 12.470 11.810 17.541 14.570 2.964 18.274 14.052 4.227
PRIMET_226 2016-09-29 16:55:00 226 156.7 0.00 197 0.007 0.007 187.600 0.000 12.960 12.060 2.913 4.450 15.71 15.850 16.060 16.300 83.700 75.990 0.007 15.82 15.960 16.150 16.400 15.56 15.750 15.980 16.190 13.390 12.200 12.530 11.780 17.847 14.937 2.909 18.532 14.080 4.450
PRIMET_226 2016-09-29 16:50:00 226 156.7 0.00 196 0.007 0.007 187.600 0.000 12.710 12.050 3.386 4.785 15.91 16.070 16.280 16.570 81.300 74.630 0.007 16.03 16.260 16.470 16.740 15.82 15.960 16.160 16.410 12.850 12.190 12.600 11.750 18.077 14.695 3.380 18.854 14.071 4.783
PRIMET_226 2016-09-29 16:45:00 226 156.7 0.00 198 0.007 0.007 187.500 0.000 12.860 12.200 3.550 4.994 16.18 16.400 16.590 16.860 80.700 74.000 0.007 16.33 16.500 16.690 16.950 16.03 16.290 16.490 16.770 13.100 12.310 12.620 11.980 18.391 14.840 3.550 19.204 14.211 4.993
PRIMET_226 2016-09-29 16:40:00 226 156.7 0.00 197 0.007 0.007 187.500 0.000 13.060 12.060 3.707 5.406 16.48 16.670 16.830 17.090 80.200 72.260 0.007 16.62 16.840 17.020 17.260 16.33 16.520 16.700 16.960 13.320 12.320 12.960 11.870 18.746 15.035 3.712 19.486 14.080 5.405
PRIMET_226 2016-09-29 16:35:00 226 156.7 0.00 197 0.126 0.123 187.500 12.480 12.620 11.530 4.477 6.254 16.76 16.990 17.180 17.390 76.550 68.510 0.647 16.84 17.090 17.290 17.460 16.62 16.840 17.020 17.270 13.350 12.040 11.630 10.840 19.083 14.608 4.475 19.859 13.596 6.254
PRIMET_226 2016-09-29 16:30:00 226 156.7 0.00 197 0.054 0.054 266.100 0.967 12.110 11.300 5.207 6.766 16.97 17.210 17.420 17.630 73.070 66.440 0.444 17.15 17.330 17.550 17.830 16.84 17.100 17.290 17.470 12.600 11.510 11.690 11.120 19.339 14.127 5.208 20.163 13.390 6.767
PRIMET_226 2016-09-29 16:25:00 226 156.7 0.00 197 0.093 0.078 324.400 32.290 12.040 11.080 5.663 7.442 17.29 17.540 17.790 18.000 71.300 63.940 0.745 17.40 17.700 17.960 18.150 17.17 17.360 17.580 17.860 12.400 11.530 11.410 10.030 19.734 14.062 5.664 20.638 13.196 7.442
PRIMET_226 2016-09-29 16:20:00 226 156.7 0.00 197 0.213 0.178 272.700 32.820 11.500 10.490 6.437 8.340 17.51 17.860 18.120 18.300 67.840 60.360 0.699 17.58 18.000 18.250 18.370 17.42 17.720 17.980 18.180 12.390 11.400 9.330 8.640 20.010 13.569 6.435 21.030 12.688 8.336
PRIMET_226 2016-09-29 16:15:00 226 156.7 0.00 197 0.317 0.290 219.100 23.510 11.340 10.160 6.825 8.790 17.71 18.000 18.250 18.440 66.320 58.550 1.071 17.89 18.160 18.420 18.510 17.56 17.890 18.140 18.370 12.060 11.070 9.620 8.510 20.264 13.426 6.825 21.216 12.411 8.794
PRIMET_226 2016-09-29 16:10:00 226 156.7 0.00 198 0.450 0.299 262.700 46.900 10.950 9.550 7.326 9.290 17.83 18.140 18.360 18.440 64.120 56.230 1.039 17.93 18.330 18.530 18.560 17.68 17.870 18.080 18.230 11.860 10.670 9.420 8.370 20.418 13.083 7.326 21.216 11.913 9.286
PRIMET_226 2016-09-29 16:05:00 226 156.7 0.00 186 0.231 0.147 299.900 48.840 11.490 10.290 7.039 8.800 17.97 18.100 18.310 18.520 65.830 58.720 0.745 18.21 18.370 18.570 18.780 17.79 17.910 18.130 18.340 12.010 10.840 11.020 9.560 20.599 13.560 7.039 21.322 12.519 8.802
PRIMET_226 2016-09-29 16:00:00 226 156.7 0.00 196 0.534 0.303 261.800 53.240 11.430 10.410 7.869 9.540 18.58 18.790 18.980 19.160 63.270 57.040 1.914 18.80 19.230 19.410 19.410 18.24 18.390 18.590 18.840 12.750 12.050 8.720 8.150 21.402 13.506 7.861 22.192 12.620 9.534
PRIMET_226 2016-09-29 15:55:00 226 156.7 0.00 197 0.695 0.577 241.700 33.370 10.240 8.980 9.040 10.980 18.68 18.920 19.160 19.350 58.020 51.080 1.686 18.87 19.070 19.280 19.550 18.56 18.660 18.940 19.230 11.320 9.940 8.630 8.060 21.537 12.478 9.041 22.456 11.464 10.985
PRIMET_226 2016-09-29 15:50:00 226 156.7 0.00 196 1.047 0.782 267.400 40.760 9.700 8.400 9.810 11.720 18.92 19.220 19.390 19.550 55.110 48.480 1.967 19.10 19.480 19.590 19.660 18.68 18.850 19.110 19.440 10.880 9.620 8.330 7.847 21.862 12.034 9.814 22.737 11.023 11.714
PRIMET_226 2016-09-29 15:45:00 226 156.7 0.00 189 0.842 0.625 255.500 41.120 10.120 8.750 9.320 11.420 18.80 19.050 19.300 19.540 57.070 49.720 2.025 18.96 19.160 19.390 19.690 18.67 18.840 19.110 19.460 11.180 9.740 8.530 7.853 21.699 12.378 9.315 22.723 11.287 11.425
PRIMET_226 2016-09-29 15:40:00 226 156.7 0.00 193 0.564 0.456 231.500 35.490 9.890 8.710 9.890 11.840 19.09 19.330 19.570 19.810 55.250 48.740 1.679 19.16 19.480 19.710 19.880 19.00 19.200 19.440 19.710 10.820 9.700 8.110 7.548 22.095 12.189 9.888 23.107 11.257 11.844
PRIMET_226 2016-09-29 15:35:00 226 156.7 0.00 192 0.781 0.670 246.000 30.450 10.030 8.570 9.860 12.410 19.15 19.390 19.720 20.130 55.520 47.360 2.117 19.32 19.600 19.950 20.400 19.04 19.200 19.530 19.900 11.040 9.510 8.240 7.401 22.178 12.303 9.865 23.569 11.151 12.407
PRIMET_226 2016-09-29 15:30:00 226 156.7 0.00 196 1.159 0.874 277.400 40.170 9.560 8.040 10.950 13.640 19.66 19.970 20.330 20.690 52.190 44.120 1.940 19.93 20.400 20.720 20.850 19.36 19.640 19.990 20.440 11.010 9.500 7.795 7.161 22.893 11.921 10.945 24.398 10.756 13.633
PRIMET_226 2016-09-29 15:25:00 226 156.7 0.00 196 1.022 0.849 235.000 33.340 9.610 8.390 11.190 13.270 19.86 20.210 20.530 20.630 51.720 45.400 1.967 20.20 20.400 20.740 20.820 19.72 20.050 20.330 20.500 11.310 10.160 7.821 7.190 23.178 11.962 11.191 24.308 11.015 13.272
PRIMET_226 2016-09-29 15:20:00 226 156.7 0.00 197 1.148 0.918 231.800 36.260 9.640 8.290 12.010 13.760 20.44 20.710 20.810 20.900 49.990 44.320 2.770 20.62 20.910 21.000 21.070 20.28 20.400 20.560 20.770 11.630 10.060 8.080 7.071 24.025 11.986 12.015 24.715 10.941 13.761
PRIMET_226 2016-09-29 15:15:00 226 156.7 0.00 196 1.400 1.219 238.300 29.140 8.800 7.733 13.160 14.350 20.76 21.070 21.100 21.020 46.280 42.350 2.626 20.84 21.210 21.250 21.110 20.64 20.930 20.940 20.910 10.250 9.180 7.687 7.143 24.503 11.326 13.163 24.898 10.533 14.354
PRIMET_226 2016-09-29 15:10:00 226 156.7 0.00 192 1.151 1.022 239.000 27.190 9.720 8.350 12.370 13.710 20.72 20.910 20.980 20.900 49.410 44.540 3.077 21.06 21.140 21.160 21.070 20.58 20.750 20.840 20.820 11.680 10.430 7.736 7.152 24.443 12.050 12.366 24.715 10.985 13.707
PRIMET_226 2016-09-29 15:05:00 226 156.7 0.00 197 0.916 0.665 230.700 42.450 9.310 8.150 13.180 14.230 21.05 21.160 21.190 21.150 47.140 43.270 1.849 21.18 21.260 21.280 21.320 21.01 21.090 21.130 21.070 10.650 9.700 7.179 6.725 24.944 11.722 13.185 25.097 10.837 14.238
PRIMET_226 2016-09-29 15:00:00 226 156.7 0.00 192 0.970 0.682 256.800 44.170 9.120 8.060 13.540 14.460 21.20 21.310 21.330 21.250 46.210 42.750 2.300 21.38 21.570 21.580 21.420 21.05 21.010 21.040 21.130 11.500 9.800 7.098 6.721 25.174 11.573 13.541 25.252 10.771 14.457
PRIMET_226 2016-09-29 14:55:00 226 156.7 0.00 195 1.480 1.016 231.500 45.330 8.770 7.943 14.250 14.940 21.46 21.550 21.510 21.500 44.290 41.730 4.345 21.62 21.800 21.730 21.630 21.37 21.350 21.310 21.390 10.920 9.710 7.604 6.939 25.579 11.303 14.250 25.641 10.685 14.941
PRIMET_226 2016-09-29 14:50:00 226 156.7 0.00 201 1.296 1.051 229.300 35.180 9.210 8.040 14.170 15.150 21.64 21.850 21.780 21.690 45.220 41.570 4.083 21.78 21.970 21.890 21.770 21.53 21.710 21.650 21.570 12.110 10.300 7.241 6.750 25.862 11.644 14.167 25.941 10.756 15.157
PRIMET_226 2016-09-29 14:45:00 226 156.7 0.00 202 0.885 0.515 272.500 52.360 9.580 8.570 13.920 14.710 21.66 21.770 21.730 21.650 46.240 43.180 2.136 21.72 21.920 21.850 21.730 21.57 21.660 21.630 21.560 11.810 10.160 7.743 7.278 25.893 11.937 13.920 25.877 11.151 14.704
PRIMET_226 2016-09-29 14:40:00 226 156.7 0.00 185 0.960 0.793 240.200 33.830 10.320 8.750 13.820 14.960 21.97 22.080 21.950 21.890 47.640 43.020 3.156 22.28 22.540 22.360 22.030 21.63 21.620 21.530 21.690 12.200 10.210 8.420 7.307 26.388 12.545 13.817 26.259 11.287 14.963
PRIMET_226 2016-09-29 14:35:00 226 156.7 0.00 195 0.540 0.423 258.400 37.590 9.720 8.510 14.730 15.270 22.24 22.300 22.150 21.970 45.050 42.140 1.914 22.42 22.480 22.360 22.070 21.96 22.020 21.890 21.790 11.820 10.310 7.974 7.239 26.825 12.050 14.741 26.388 11.105 15.268
PRIMET_226 2016-09-29 14:30:00 226 156.7 0.00 191 1.561 1.280 247.200 34.380 8.860 7.920 14.950 15.510 21.95 21.970 21.860 21.850 43.280 40.790 2.933 22.08 22.170 21.990 21.900 21.87 21.840 21.750 21.760 11.430 9.930 7.521 7.050 26.356 11.372 14.949 26.195 10.669 15.510
PRIMET_226 2016-09-29 14:25:00 226 156.7 0.00 196 1.953 1.595 238.600 34.690 8.040 7.412 15.800 16.120 22.08 22.070 22.030 22.000 40.520 39.000 3.946 22.25 22.270 22.220 22.100 21.89 21.860 21.840 21.890 9.190 8.250 7.495 7.102 26.565 10.756 15.801 26.436 10.305 16.126
PRIMET_226 2016-09-29 14:20:00 226 156.7 0.00 202 1.205 0.857 255.000 43.570 8.940 7.862 15.170 15.790 22.12 22.240 22.180 21.990 43.010 40.240 2.528 22.27 22.400 22.300 22.100 22.02 22.100 22.050 21.910 10.880 9.420 7.671 7.111 26.630 11.433 15.177 26.420 10.627 15.789
PRIMET_226 2016-09-29 14:15:00 226 156.7 0.00 210 1.320 1.046 238.500 36.880 9.430 8.420 14.720 15.240 22.09 22.180 22.080 21.910 44.630 42.040 3.018 22.25 22.390 22.220 22.040 21.99 22.070 21.990 21.870 12.610 10.400 7.774 7.482 26.582 11.818 14.718 26.292 11.038 15.239
PRIMET_226 2016-09-29 14:10:00 226 156.7 0.00 199 0.798 0.502 229.800 49.340 10.850 9.810 13.400 14.090 21.99 22.120 22.060 21.880 49.290 46.300 2.345 22.23 22.430 22.310 22.000 21.68 21.700 21.740 21.710 12.320 11.650 9.060 8.270 26.420 12.996 13.398 26.243 12.123 14.093
PRIMET_226 2016-09-29 14:05:00 226 156.7 0.00 194 1.465 1.177 240.000 35.930 10.100 9.310 13.730 14.360 21.82 21.860 21.810 21.800 47.480 45.000 2.953 21.95 22.170 22.070 21.900 21.69 21.680 21.660 21.700 12.460 11.320 8.350 7.912 26.148 12.361 13.733 26.116 11.722 14.364
PRIMET_226 2016-09-29 14:00:00 226 156.7 0.00 214 1.465 1.239 234.900 31.820 9.810 8.870 14.300 14.820 22.02 22.110 21.950 21.860 45.980 43.470 2.600 22.12 22.220 22.040 21.910 21.94 22.020 21.880 21.830 12.650 10.620 8.190 7.865 26.468 12.123 14.298 26.211 11.379 14.817
PRIMET_226 2016-09-29 13:55:00 226 156.7 0.00 194 1.853 1.373 217.500 41.220 9.510 8.760 14.310 14.760 21.86 21.890 21.800 21.770 45.400 43.380 3.404 22.06 22.160 21.960 21.850 21.77 21.750 21.680 21.680 12.630 10.740 8.330 7.913 26.211 11.881 14.311 26.068 11.295 14.760
PRIMET_226 2016-09-29 13:50:00 226 156.7 0.00 184 1.464 0.959 239.300 47.590 10.310 9.250 13.590 14.410 21.83 21.850 21.780 21.790 48.050 44.810 2.711 21.99 21.950 21.890 21.860 21.76 21.730 21.640 21.750 13.070 11.690 8.680 8.280 26.164 12.536 13.592 26.100 11.675 14.404
PRIMET_226 2016-09-29 13:45:00 226 156.7 0.00 199 1.531 1.285 240.400 32.520 10.930 9.730 13.250 14.150 21.96 22.050 21.970 21.870 49.750 46.070 2.711 22.10 22.210 22.070 21.920 21.82 21.950 21.810 21.790 13.270 11.510 9.050 8.710 26.372 13.065 13.252 26.227 12.058 14.144
PRIMET_226 2016-09-29 13:40:00 226 156.7 0.00 200 1.555 1.413 234.400 24.500 10.700 9.700 12.940 13.680 21.65 21.740 21.660 21.570 49.990 46.880 2.751 21.80 22.010 21.930 21.750 21.58 21.640 21.530 21.520 13.760 12.710 9.120 8.600 25.877 12.867 12.941 25.751 12.034 13.679
PRIMET_226 2016-09-29 13:35:00 226 156.7 0.00 203 1.204 0.973 214.300 35.470 11.020 10.100 12.400 13.140 21.47 21.550 21.480 21.430 51.550 48.550 2.378 21.60 21.800 21.680 21.590 21.35 21.430 21.370 21.370 13.350 12.610 9.310 8.880 25.594 13.144 12.400 25.532 12.361 13.136
PRIMET_226 2016-09-29 13:30:00 226 156.7 0.00 206 0.861 0.603 245.500 44.350 12.200 11.180 11.610 12.380 21.65 21.580 21.530 21.540 55.130 51.830 2.215 21.78 21.830 21.750 21.630 21.53 21.370 21.310 21.380 13.900 12.890 9.230 8.850 25.877 14.211 11.611 25.704 13.284 12.382
PRIMET_226 2016-09-29 13:25:00 226 156.7 0.00 195 0.776 0.557 213.100 43.010 11.960 11.050 11.980 12.540 21.75 21.790 21.690 21.570 53.970 51.280 1.810 21.83 21.970 21.830 21.640 21.62 21.670 21.590 21.450 14.000 13.010 9.570 9.090 26.036 13.988 11.984 25.751 13.170 12.546
PRIMET_226 2016-09-29 13:20:00 226 156.7 0.00 195 1.301 1.118 219.600 30.400 11.270 10.450 12.020 12.690 21.37 21.420 21.400 21.340 52.750 50.020 2.012 21.60 21.800 21.660 21.410 21.21 21.160 21.260 21.300 13.770 12.610 9.480 8.920 25.438 13.364 12.019 25.391 12.654 12.691
PRIMET_226 2016-09-29 13:15:00 226 156.7 0.00 206 0.969 0.745 226.900 38.900 12.120 10.970 11.150 12.170 21.30 21.300 21.340 21.280 55.980 51.910 2.208 21.39 21.460 21.460 21.350 21.20 21.110 21.230 21.200 13.910 13.000 9.710 9.360 25.329 14.136 11.150 25.298 13.100 12.166
PRIMET_226 2016-09-29 13:10:00 226 156.7 0.00 192 0.819 0.724 218.600 27.580 12.260 11.110 11.270 12.150 21.47 21.490 21.400 21.350 55.960 52.180 2.234 21.54 21.630 21.510 21.400 21.38 21.370 21.290 21.280 14.570 13.020 9.930 9.470 25.594 14.267 11.272 25.407 13.222 12.150
PRIMET_226 2016-09-29 13:05:00 226 156.7 0.00 225 0.948 0.698 189.900 41.610 12.770 11.360 10.910 11.900 21.55 21.490 21.390 21.330 57.580 53.080 3.169 21.66 21.660 21.530 21.410 21.41 21.280 21.240 21.270 14.550 13.100 10.280 9.450 25.720 14.753 10.910 25.376 13.444 11.906
PRIMET_226 2016-09-29 13:00:00 226 156.7 0.00 193 1.078 0.818 200.500 39.780 11.970 10.960 11.290 12.190 21.32 21.330 21.310 21.300 55.460 51.840 2.470 21.50 21.490 21.440 21.450 21.16 21.160 21.160 21.230 14.520 13.210 9.650 9.160 25.360 13.997 11.295 25.329 13.091 12.199
PRIMET_226 2016-09-29 12:55:00 226 156.7 0.00 201 1.013 0.541 219.300 55.300 11.930 11.000 11.290 12.010 21.27 21.360 21.270 21.190 55.340 52.240 2.012 21.39 21.600 21.490 21.280 21.16 21.200 21.150 21.100 14.050 12.740 9.930 9.410 25.283 13.960 11.291 25.159 13.126 12.016
PRIMET_226 2016-09-29 12:50:00 226 156.7 0.00 206 0.661 0.540 192.800 34.610 13.100 11.530 10.090 11.410 21.21 21.180 21.090 21.110 59.940 54.400 1.392 21.29 21.280 21.180 21.200 21.11 21.100 20.960 21.000 14.430 12.970 11.570 10.150 25.190 15.075 10.091 25.036 13.596 11.416
PRIMET_226 2016-09-29 12:45:00 226 156.7 0.00 196 0.843 0.420 190.100 57.350 11.650 10.590 10.990 11.850 20.91 20.930 20.860 20.840 55.550 51.900 1.797 21.29 21.370 21.250 21.120 20.59 20.590 20.560 20.610 13.840 12.160 10.070 9.580 24.730 13.704 10.993 24.624 12.773 11.844
PRIMET_226 2016-09-29 12:40:00 226 156.7 0.00 212 0.781 0.493 202.100 49.190 12.970 11.770 9.940 10.890 21.03 20.850 20.820 20.900 60.080 55.930 2.698 21.31 21.310 21.230 21.190 20.65 20.440 20.420 20.620 14.410 12.770 10.160 9.670 24.913 14.947 9.945 24.715 13.813 10.892
PRIMET_226 2016-09-29 12:35:00 226 156.7 0.00 199 0.805 0.613 221.000 39.630 11.980 10.950 10.850 11.610 21.04 21.060 21.020 20.910 56.530 53.070 1.980 21.23 21.470 21.400 21.130 20.82 20.500 20.460 20.710 14.660 13.150 9.770 9.330 24.928 14.006 10.836 24.730 13.083 11.606
PRIMET_226 2016-09-29 12:30:00 226 156.7 0.00 212 0.694 0.554 215.600 36.320 12.430 11.670 10.270 10.710 20.92 20.810 20.760 20.740 58.480 56.210 1.986 20.96 20.960 20.880 20.800 20.88 20.650 20.660 20.690 13.850 12.950 10.170 9.970 24.745 14.427 10.274 24.473 13.722 10.717
PRIMET_226 2016-09-29 12:25:00 226 156.7 0.00 192 0.845 0.428 194.000 56.940 12.240 11.150 10.950 11.560 21.26 21.210 21.070 20.980 56.640 53.480 1.731 21.33 21.440 21.250 21.090 21.00 20.710 20.650 20.770 14.400 12.760 10.350 9.930 25.267 14.248 10.956 24.837 13.258 11.554
PRIMET_226 2016-09-29 12:20:00 226 156.7 0.00 193 0.478 0.069 273.500 74.880 12.460 11.520 10.570 11.350 21.13 21.370 21.270 21.060 57.820 54.510 1.124 21.26 21.610 21.480 21.110 20.93 21.060 20.990 20.970 14.040 12.830 10.690 10.230 25.066 14.456 10.573 24.959 13.587 11.354
PRIMET_226 2016-09-29 12:15:00 226 156.7 0.00 192 0.359 0.159 130.900 60.500 12.450 11.060 10.960 12.070 21.37 21.430 21.460 21.260 56.940 52.240 0.758 21.61 21.910 21.930 21.470 20.95 20.940 20.990 20.960 14.000 12.450 10.740 10.190 25.438 14.446 10.954 25.267 13.179 12.068
PRIMET_226 2016-09-29 12:10:00 226 156.7 0.00 214 0.555 0.489 215.300 27.860 12.140 11.020 10.660 11.590 21.00 21.220 21.140 20.930 57.160 53.200 1.267 21.47 21.690 21.620 21.280 20.54 20.720 20.670 20.680 14.950 13.970 10.720 10.210 24.867 14.154 10.653 24.761 13.144 11.588
PRIMET_226 2016-09-29 12:05:00 226 156.7 0.00 188 0.959 0.430 72.530 60.140 12.180 11.080 9.370 10.710 20.15 20.210 20.300 20.370 60.270 55.220 1.784 20.51 20.680 20.700 20.670 19.88 19.750 19.930 20.170 14.140 12.970 10.690 10.020 23.598 14.192 9.376 23.921 13.196 10.712
PRIMET_226 2016-09-29 12:00:00 226 156.7 0.00 198 0.467 0.168 74.980 64.840 12.840 11.560 9.550 10.590 20.69 20.650 20.650 20.570 60.850 56.280 1.287 20.87 21.040 21.000 20.790 20.50 20.200 20.340 20.410 13.800 12.450 11.030 10.350 24.398 14.820 9.552 24.218 13.623 10.588
PRIMET_226 2016-09-29 11:55:00 226 156.7 0.00 211 0.618 0.556 201.900 25.580 11.730 11.180 10.360 10.780 20.54 20.680 20.620 20.480 57.130 55.240 2.136 20.78 21.050 21.010 20.720 20.33 20.330 20.250 20.290 13.420 12.740 10.710 10.480 24.173 13.777 10.363 24.084 13.284 10.780
PRIMET_226 2016-09-29 11:50:00 226 156.7 0.00 194 1.074 0.925 229.400 30.160 12.460 11.800 9.440 10.010 20.38 20.490 20.400 20.340 60.550 58.070 2.411 20.47 20.700 20.630 20.440 20.26 20.360 20.320 20.290 14.380 13.240 10.890 10.630 23.936 14.456 9.443 23.877 13.841 10.012
PRIMET_226 2016-09-29 11:45:00 226 156.7 0.00 189 0.706 0.608 224.600 30.230 12.130 11.550 9.230 9.840 20.01 20.080 20.140 20.050 60.520 58.080 2.228 20.21 20.530 20.510 20.260 19.95 19.730 19.860 19.910 13.820 12.520 11.310 11.110 23.395 14.145 9.236 23.453 13.614 9.831
PRIMET_226 2016-09-29 11:40:00 226 156.7 0.00 196 0.707 0.663 211.400 20.180 12.430 11.700 8.640 9.190 19.80 19.800 19.760 19.700 62.580 59.960 1.529 20.01 20.150 20.130 19.950 19.69 19.480 19.480 19.580 14.480 13.200 11.260 11.000 23.092 14.427 8.641 22.950 13.749 9.189
PRIMET_226 2016-09-29 11:35:00 226 156.7 0.00 201 0.753 0.604 193.400 36.060 12.440 11.720 8.670 9.140 19.83 19.860 19.810 19.680 62.510 60.100 1.509 19.98 20.060 20.010 19.840 19.68 19.700 19.670 19.540 14.180 13.120 11.450 11.040 23.135 14.437 8.673 22.921 13.768 9.146
PRIMET_226 2016-09-29 11:30:00 226 156.7 0.00 192 1.245 1.148 231.400 22.550 12.440 11.780 8.290 8.850 19.56 19.610 19.590 19.510 63.560 60.980 1.940 19.65 19.860 19.830 19.570 19.51 19.450 19.480 19.480 14.100 13.100 11.410 11.040 22.751 14.437 8.290 22.680 13.822 8.850
PRIMET_226 2016-09-29 11:25:00 226 156.7 0.00 195 0.722 0.316 258.600 60.750 12.150 11.550 8.100 8.750 19.22 19.550 19.530 19.290 63.630 60.880 1.620 19.48 19.790 19.780 19.480 18.89 19.050 19.070 18.960 13.430 12.600 11.530 11.110 22.275 14.164 8.101 22.372 13.614 8.752
PRIMET_226 2016-09-29 11:20:00 226 156.7 0.00 206 0.444 0.230 177.700 56.220 13.070 12.030 7.105 8.110 19.16 19.160 19.150 19.140 67.980 63.420 1.032 19.37 19.690 19.630 19.330 18.89 18.780 18.810 18.950 14.240 12.730 11.200 10.960 22.192 15.045 7.106 22.164 14.052 8.108
PRIMET_226 2016-09-29 11:15:00 226 156.7 0.00 195 0.658 0.162 34.140 70.320 13.110 12.080 6.437 7.509 18.68 19.010 18.990 18.730 70.130 65.260 1.137 19.04 19.450 19.390 19.050 18.34 18.660 18.640 18.440 14.190 12.950 11.380 11.310 21.537 15.085 6.433 21.604 14.099 7.505
PRIMET_226 2016-09-29 11:10:00 226 156.7 0.00 200 0.724 0.633 106.500 28.600 11.970 11.270 6.341 7.172 17.77 18.230 18.220 17.930 68.870 65.120 2.313 18.26 18.800 18.770 18.370 17.30 17.560 17.600 17.430 13.420 12.430 11.140 10.730 20.341 13.997 6.332 20.547 13.364 7.167
PRIMET_226 2016-09-29 11:05:00 226 156.7 0.00 201 0.628 0.522 102.700 33.250 13.060 12.140 4.760 5.777 17.36 17.530 17.580 17.450 75.960 71.010 1.326 17.51 17.930 17.910 17.630 17.08 17.260 17.310 17.100 14.450 13.040 11.800 11.270 19.822 15.035 4.765 19.935 14.154 5.779
PRIMET_226 2016-09-29 11:00:00 226 156.7 0.00 198 0.209 0.114 180.400 54.740 13.750 12.760 3.853 4.777 17.17 17.070 17.120 17.120 80.300 75.520 0.895 17.28 17.330 17.360 17.280 17.09 16.930 16.990 17.030 14.350 13.240 13.160 11.970 19.585 15.727 3.858 19.523 14.743 4.779
PRIMET_226 2016-09-29 10:55:00 226 156.7 0.00 201 0.198 0.167 198.500 31.910 13.860 12.930 3.864 4.795 17.27 17.180 17.260 17.270 80.400 75.670 0.581 17.33 17.290 17.380 17.410 17.19 17.050 17.130 17.220 14.260 13.340 13.550 12.650 19.709 15.840 3.863 19.709 14.908 4.795
PRIMET_226 2016-09-29 10:50:00 226 156.7 0.00 201 0.186 0.152 164.300 34.660 13.280 12.440 4.366 5.362 17.20 17.420 17.540 17.350 77.760 72.930 0.745 17.46 17.880 17.980 17.570 16.93 16.960 17.130 17.100 14.080 13.200 12.030 11.710 19.622 15.253 4.364 19.809 14.437 5.362
PRIMET_226 2016-09-29 10:45:00 226 156.7 0.00 221 0.527 0.420 163.400 36.470 13.730 12.720 3.637 4.989 16.98 17.080 17.260 17.260 81.200 74.670 1.019 17.12 17.440 17.650 17.400 16.92 16.950 17.120 17.170 14.010 13.040 13.080 12.160 19.351 15.707 3.638 19.697 14.704 4.989
PRIMET_226 2016-09-29 10:40:00 226 156.7 0.00 212 0.232 0.218 195.800 19.650 13.260 12.250 4.002 5.177 16.89 17.240 17.370 17.050 79.200 73.370 0.719 17.11 17.580 17.700 17.330 16.70 16.860 16.960 16.780 14.030 12.760 12.090 11.780 19.241 15.233 4.002 19.437 14.257 5.176
PRIMET_226 2016-09-29 10:35:00 226 156.7 0.00 181 0.308 0.297 176.100 15.570 13.490 12.690 3.234 4.123 16.44 16.570 16.680 16.530 82.700 78.080 0.764 16.66 16.910 17.030 16.760 16.25 16.220 16.380 16.390 13.920 12.950 12.560 12.070 18.698 15.463 3.235 18.806 14.675 4.122
PRIMET_226 2016-09-29 10:30:00 226 156.7 0.00 198 0.321 0.299 163.800 21.220 13.560 12.630 2.675 3.838 16.03 16.130 16.300 16.240 85.300 79.210 1.000 16.24 16.310 16.450 16.380 15.88 16.000 16.200 16.130 14.160 12.780 13.250 12.280 18.216 15.534 2.678 18.462 14.618 3.838
PRIMET_226 2016-09-29 10:25:00 226 156.7 0.00 198 0.255 0.242 178.700 18.240 13.310 12.590 2.897 3.978 15.99 16.180 16.410 16.320 84.100 78.570 0.862 16.03 16.390 16.620 16.410 15.92 15.980 16.140 16.190 13.660 12.720 13.160 12.520 18.170 15.283 2.889 18.556 14.579 3.977
PRIMET_226 2016-09-29 10:20:00 226 156.7 0.00 219 0.526 0.493 188.700 20.210 13.130 12.360 2.701 3.995 15.67 16.150 16.400 16.150 84.800 78.240 1.163 16.01 16.480 16.710 16.350 15.40 15.800 16.100 16.000 13.410 12.650 12.330 11.890 17.801 15.104 2.706 18.356 14.361 3.994
PRIMET_226 2016-09-29 10:15:00 226 156.7 0.00 192 0.449 0.400 194.300 26.740 13.120 12.430 2.162 3.726 15.18 15.780 16.200 15.980 87.500 79.470 1.509 15.37 15.980 16.360 16.080 15.13 15.610 16.010 15.840 13.290 12.580 12.810 12.040 17.250 15.094 2.156 18.158 14.427 3.728
PRIMET_226 2016-09-29 10:10:00 226 156.7 0.00 197 0.371 0.333 206.600 26.100 13.080 12.410 2.221 3.252 15.20 15.530 15.780 15.550 87.100 81.600 1.222 15.29 15.800 16.240 15.800 15.11 15.380 15.510 15.360 13.400 12.540 12.710 11.970 17.273 15.055 2.228 17.665 14.408 3.250
PRIMET_226 2016-09-29 10:05:00 226 156.7 0.00 186 0.274 0.270 189.600 10.460 13.070 12.370 2.261 2.959 15.23 15.280 15.380 15.250 86.900 82.900 0.647 15.29 15.430 15.580 15.370 15.17 15.190 15.250 15.160 13.340 12.470 12.680 12.150 17.306 15.045 2.267 17.328 14.370 2.963
PRIMET_226 2016-09-29 10:00:00 226 156.7 0.00 196 0.129 0.121 172.100 20.450 12.930 12.330 2.346 2.877 15.18 15.340 15.340 15.140 86.400 83.300 0.490 15.22 15.440 15.430 15.160 15.15 15.200 15.240 15.120 13.150 12.370 12.750 12.280 17.250 14.908 2.346 17.206 14.333 2.873
PRIMET_226 2016-09-29 09:55:00 226 156.7 0.00 191 0.322 0.288 172.700 26.140 12.860 12.390 2.269 2.668 15.05 15.310 15.290 15.010 86.700 84.400 0.764 15.15 15.410 15.380 15.120 14.92 15.230 15.190 14.870 12.960 12.460 12.760 12.320 17.107 14.840 2.275 17.063 14.389 2.662
PRIMET_226 2016-09-29 09:50:00 226 156.7 0.00 196 0.186 0.186 178.400 0.000 12.910 12.480 1.721 2.324 14.59 15.100 15.140 14.760 89.600 86.200 0.399 14.90 15.250 15.220 14.870 14.27 14.870 14.990 14.640 13.100 12.570 12.780 12.390 16.607 14.889 1.727 16.790 14.475 2.317
PRIMET_226 2016-09-29 09:45:00 226 156.7 0.00 191 0.153 0.153 178.400 0.028 12.870 12.500 1.010 1.939 13.88 14.340 14.580 14.420 93.600 88.200 0.294 14.22 14.830 14.960 14.620 13.60 13.950 14.220 14.220 13.050 12.530 12.780 12.470 15.861 14.850 1.015 16.426 14.494 1.938
PRIMET_226 2016-09-29 09:40:00 226 156.7 0.00 208 0.024 0.024 178.400 0.000 12.600 12.380 0.830 1.614 13.45 13.810 14.000 14.010 94.600 89.900 0.216 13.58 13.920 14.190 14.200 13.38 13.740 13.910 13.890 12.780 12.490 12.510 12.220 15.423 14.589 0.833 15.995 14.380 1.615
PRIMET_226 2016-09-29 09:35:00 226 156.7 0.00 192 0.007 0.007 178.400 0.000 12.500 12.230 0.897 1.760 13.42 13.790 14.000 14.020 94.200 89.000 0.007 13.46 13.870 14.090 14.160 13.38 13.730 13.910 13.890 12.530 12.300 12.470 12.180 15.393 14.494 0.893 16.005 14.239 1.761
PRIMET_226 2016-09-29 09:30:00 226 156.7 0.00 190 0.007 0.007 178.400 0.000 12.500 12.380 0.959 1.771 13.48 13.960 14.230 14.160 93.800 89.000 0.007 13.50 14.030 14.340 14.240 13.46 13.870 14.110 14.050 12.600 12.440 12.370 12.310 15.453 14.494 0.958 16.151 14.380 1.777
PRIMET_226 2016-09-29 09:25:00 226 156.7 0.00 196 0.056 0.056 178.400 0.056 12.380 12.420 1.026 1.487 13.43 14.090 14.340 13.920 93.300 90.600 0.222 13.50 14.170 14.450 14.050 13.29 13.940 14.190 13.780 12.430 12.500 12.310 12.370 15.403 14.380 1.032 15.902 14.418 1.495
PRIMET_226 2016-09-29 09:20:00 226 156.7 0.00 191 0.007 0.007 178.200 0.000 12.330 12.440 0.614 0.995 12.96 13.550 13.850 13.450 95.900 93.600 0.007 13.27 13.940 14.180 13.770 12.65 13.130 13.500 13.160 12.360 12.580 12.290 12.320 14.937 14.333 0.612 15.423 14.437 0.987
PRIMET_226 2016-09-29 09:15:00 226 156.7 0.00 190 0.007 0.007 178.200 0.000 12.000 12.130 0.373 0.736 12.40 12.800 13.150 12.900 97.400 95.100 0.007 12.60 13.070 13.450 13.120 12.31 12.640 12.890 12.720 12.270 12.280 11.880 12.060 14.399 14.025 0.374 14.879 14.145 0.729
PRIMET_226 2016-09-29 09:10:00 226 156.7 0.00 195 0.007 0.007 178.200 0.000 11.790 11.840 0.455 0.587 12.28 12.580 12.730 12.470 96.800 95.900 0.007 12.31 12.630 12.850 12.690 12.27 12.540 12.670 12.320 11.870 12.050 11.760 11.670 14.286 13.831 0.457 14.465 13.877 0.593
PRIMET_226 2016-09-29 09:05:00 226 156.7 0.00 195 0.007 0.007 178.300 0.000 11.820 11.710 0.439 0.565 12.29 12.550 12.710 12.320 96.900 96.100 0.007 12.31 12.570 12.720 12.330 12.27 12.530 12.690 12.310 11.840 11.730 11.770 11.670 14.295 13.859 0.443 14.323 13.759 0.559
PRIMET_226 2016-09-29 09:00:00 226 156.7 0.00 192 0.007 0.007 178.300 0.000 11.770 11.620 0.486 0.608 12.29 12.550 12.760 12.280 96.600 95.700 0.007 12.32 12.570 12.830 12.300 12.27 12.540 12.720 12.250 11.790 11.710 11.730 11.550 14.295 13.813 0.486 14.286 13.677 0.614
PRIMET_226 2016-09-29 08:55:00 226 156.7 0.00 187 0.007 0.007 178.200 0.000 11.850 11.760 0.476 0.630 12.36 12.630 12.980 12.440 96.700 95.600 0.007 12.38 12.670 13.070 12.510 12.34 12.580 12.840 12.320 11.880 11.920 11.800 11.590 14.361 13.886 0.474 14.437 13.804 0.635
PRIMET_226 2016-09-29 08:50:00 226 156.7 0.00 195 0.007 0.007 178.700 0.231 11.800 12.000 0.467 0.356 12.30 12.570 12.870 12.380 96.700 97.500 0.007 12.37 12.630 13.050 12.500 12.21 12.490 12.630 12.200 11.850 12.060 11.750 11.910 14.304 13.841 0.472 14.380 14.025 0.359
PRIMET_226 2016-09-29 08:45:00 226 156.7 0.00 186 0.007 0.007 178.800 0.000 11.620 11.760 0.464 0.237 12.13 12.370 12.470 12.020 96.700 98.300 0.007 12.20 12.470 12.610 12.190 12.09 12.310 12.390 11.880 11.760 11.890 11.560 11.650 14.145 13.677 0.467 14.043 13.804 0.239
PRIMET_226 2016-09-29 08:40:00 226 156.7 0.00 196 0.007 0.007 178.900 0.000 11.500 11.710 0.532 0.147 12.08 12.330 12.410 11.870 96.200 98.900 0.007 12.10 12.340 12.420 11.880 12.07 12.320 12.390 11.850 11.560 11.760 11.460 11.660 14.099 13.569 0.536 13.905 13.759 0.153
PRIMET_226 2016-09-29 08:35:00 226 156.7 0.00 196 0.007 0.007 178.900 0.028 11.490 11.760 0.498 0.037 12.03 12.310 12.380 11.800 96.500 99.700 0.007 12.08 12.350 12.420 11.860 11.97 12.270 12.340 11.720 11.550 11.790 11.380 11.720 14.052 13.560 0.492 13.841 13.804 0.042
PRIMET_226 2016-09-29 08:30:00 226 156.7 0.00 196 0.212 0.211 193.300 5.536 11.400 11.660 0.436 0.000 11.89 12.160 12.240 11.660 96.900 100.000 0.653 11.95 12.250 12.330 11.730 11.80 12.080 12.140 11.580 11.550 11.730 11.310 11.580 13.923 13.479 0.432 13.713 13.713 0.000
PRIMET_226 2016-09-29 08:25:00 226 156.7 0.00 192 0.194 0.191 204.200 10.150 11.250 11.500 0.411 0.000 11.71 11.960 12.050 11.500 97.000 100.000 0.438 11.80 12.060 12.110 11.550 11.67 11.910 12.000 11.460 11.410 11.550 11.160 11.460 13.759 13.346 0.413 13.569 13.569 0.000
PRIMET_226 2016-09-29 08:20:00 226 156.7 0.00 195 0.156 0.154 202.700 8.570 11.320 11.430 0.318 0.000 11.68 11.930 12.010 11.430 97.700 100.000 0.915 11.72 11.970 12.040 11.470 11.61 11.860 11.910 11.350 11.390 11.470 11.250 11.350 13.731 13.408 0.316 13.506 13.506 0.000
PRIMET_226 2016-09-29 08:15:00 226 156.7 0.00 182 0.668 0.659 206.100 9.280 11.290 11.290 0.260 0.000 11.58 11.800 11.860 11.290 98.100 100.000 0.941 11.60 11.840 11.900 11.340 11.55 11.750 11.830 11.260 11.400 11.340 11.230 11.260 13.641 13.381 0.259 13.381 13.381 0.000
PRIMET_226 2016-09-29 08:10:00 226 156.7 0.00 187 0.638 0.632 213.200 7.767 11.440 11.290 0.093 0.000 11.54 11.820 11.890 11.290 99.300 100.000 1.006 11.59 11.870 11.920 11.320 11.50 11.780 11.870 11.270 11.460 11.320 11.410 11.270 13.605 13.515 0.095 13.381 13.381 0.000
PRIMET_226 2016-09-29 08:05:00 226 156.7 0.00 193 0.169 0.168 207.800 5.355 11.400 11.240 0.022 0.000 11.42 11.700 11.810 11.240 99.800 100.000 0.516 11.46 11.780 11.870 11.280 11.40 11.660 11.770 11.200 11.450 11.280 11.370 11.200 13.497 13.479 0.027 13.337 13.337 -0.000
PRIMET_226 2016-09-29 08:00:00 226 156.7 0.00 196 0.007 0.007 221.700 0.168 11.310 11.140 0.000 0.000 11.31 11.620 11.720 11.140 100.000 100.000 0.007 11.39 11.690 11.800 11.200 11.21 11.530 11.630 11.070 11.390 11.200 11.210 11.070 13.399 13.399 0.000 13.249 13.249 0.000
PRIMET_226 2016-09-29 07:55:00 226 156.7 0.00 196 0.007 0.006 213.700 11.970 11.130 11.000 0.000 0.000 11.13 11.430 11.540 11.000 100.000 100.000 0.007 11.20 11.520 11.620 11.060 11.06 11.340 11.440 10.930 11.200 11.060 11.060 10.930 13.240 13.240 0.000 13.126 13.126 0.000
PRIMET_226 2016-09-29 07:50:00 226 156.7 0.00 193 0.023 0.023 197.100 3.372 10.950 10.820 0.000 0.000 10.95 11.210 11.300 10.820 100.000 100.000 0.170 11.04 11.310 11.420 10.930 10.86 11.110 11.200 10.740 11.040 10.930 10.860 10.740 13.083 13.083 0.000 12.970 12.970 0.000
PRIMET_226 2016-09-29 07:45:00 226 156.7 0.00 196 0.064 0.064 202.800 5.113 10.850 10.690 0.000 0.000 10.85 11.100 11.170 10.690 100.000 100.000 0.542 10.93 11.180 11.240 10.760 10.78 11.010 11.090 10.590 10.930 10.760 10.780 10.590 12.996 12.996 0.000 12.858 12.858 0.000
PRIMET_226 2016-09-29 07:40:00 226 156.7 0.00 192 0.007 0.006 196.800 7.695 10.770 10.570 0.000 0.000 10.77 11.020 11.060 10.570 100.000 100.000 0.007 10.83 11.060 11.110 10.610 10.73 10.960 11.000 10.540 10.830 10.610 10.730 10.540 12.927 12.927 0.000 12.756 12.756 0.000
PRIMET_226 2016-09-29 07:35:00 226 156.7 0.00 188 0.007 0.007 188.900 0.560 10.660 10.490 0.000 0.000 10.66 10.880 10.950 10.490 100.000 100.000 0.007 10.74 10.950 11.000 10.540 10.58 10.800 10.870 10.410 10.740 10.540 10.580 10.410 12.832 12.832 0.000 12.688 12.688 0.000
PRIMET_226 2016-09-29 07:30:00 226 156.7 0.00 184 0.023 0.022 208.900 21.340 10.520 10.370 0.000 0.000 10.52 10.740 10.820 10.370 100.000 100.000 0.216 10.58 10.790 10.860 10.400 10.47 10.710 10.800 10.360 10.580 10.400 10.470 10.360 12.713 12.713 0.000 12.586 12.586 0.000
PRIMET_226 2016-09-29 07:25:00 226 156.7 0.00 192 0.033 0.033 213.900 0.603 10.440 10.290 0.000 0.000 10.44 10.670 10.750 10.290 100.000 100.000 0.320 10.48 10.730 10.810 10.360 10.40 10.630 10.700 10.250 10.480 10.360 10.400 10.250 12.645 12.645 0.000 12.519 12.519 0.000
PRIMET_226 2016-09-29 07:20:00 226 156.7 0.00 178 0.007 0.007 215.000 0.028 10.330 10.200 0.000 0.000 10.33 10.560 10.640 10.200 100.000 100.000 0.007 10.39 10.630 10.710 10.240 10.28 10.510 10.600 10.160 10.390 10.240 10.280 10.160 12.553 12.553 -0.000 12.444 12.444 0.000
PRIMET_226 2016-09-29 07:15:00 226 156.7 0.00 182 0.007 0.007 215.000 0.040 10.230 10.120 0.000 0.000 10.23 10.470 10.560 10.120 100.000 100.000 0.007 10.28 10.530 10.610 10.160 10.19 10.420 10.520 10.070 10.280 10.160 10.190 10.070 12.469 12.469 0.000 12.378 12.378 0.000
PRIMET_226 2016-09-29 07:10:00 226 156.7 0.00 192 0.007 0.007 215.000 0.040 10.140 10.030 0.000 0.000 10.14 10.370 10.460 10.030 100.000 100.000 0.007 10.18 10.400 10.510 10.070 10.09 10.320 10.420 10.000 10.180 10.070 10.090 10.000 12.394 12.394 0.000 12.303 12.303 0.000
PRIMET_226 2016-09-29 07:05:00 226 156.7 0.00 196 0.007 0.007 215.000 0.028 10.000 9.900 0.000 0.000 10.00 10.250 10.350 9.900 100.000 100.000 0.007 10.09 10.320 10.440 10.000 9.93 10.160 10.270 9.830 10.090 10.000 9.930 9.830 12.279 12.279 0.000 12.197 12.197 0.000
PRIMET_226 2016-09-29 07:00:00 226 156.7 0.00 179 0.007 0.007 215.000 0.056 9.900 9.810 0.000 0.000 9.90 10.140 10.250 9.810 100.000 100.000 0.007 9.94 10.160 10.270 9.850 9.84 10.100 10.210 9.770 9.940 9.850 9.840 9.770 12.197 12.197 0.000 12.123 12.123 0.000
PRIMET_226 2016-09-29 06:55:00 226 156.7 0.00 196 0.007 0.007 215.000 0.028 9.790 9.680 0.000 0.000 9.79 10.050 10.130 9.680 100.000 100.000 0.007 9.83 10.100 10.200 9.750 9.73 9.990 10.070 9.610 9.830 9.750 9.730 9.610 12.107 12.107 0.000 12.018 12.018 0.000
PRIMET_226 2016-09-29 06:50:00 226 156.7 0.00 196 0.007 0.007 215.000 0.040 9.660 9.550 0.000 0.000 9.66 9.890 9.980 9.550 100.000 100.000 0.007 9.72 9.980 10.070 9.610 9.62 9.820 9.920 9.500 9.720 9.610 9.620 9.500 12.002 12.002 0.000 11.913 11.913 0.000
PRIMET_226 2016-09-29 06:45:00 226 156.7 0.00 183 0.007 0.007 215.000 0.040 9.570 9.480 0.000 0.000 9.57 9.810 9.890 9.480 100.000 100.000 0.007 9.62 9.830 9.920 9.510 9.54 9.780 9.860 9.440 9.620 9.510 9.540 9.440 11.929 11.929 0.000 11.857 11.857 0.000
PRIMET_226 2016-09-29 06:40:00 226 156.7 0.00 196 0.007 0.007 215.000 0.040 9.480 9.380 0.000 0.000 9.48 9.740 9.810 9.380 100.000 100.000 0.007 9.54 9.790 9.870 9.440 9.43 9.690 9.750 9.320 9.540 9.440 9.430 9.320 11.857 11.857 0.000 11.778 11.778 0.000
PRIMET_226 2016-09-29 06:35:00 226 156.7 0.00 196 0.007 0.007 215.000 0.040 9.380 9.280 0.000 0.000 9.38 9.610 9.700 9.280 100.000 100.000 0.007 9.42 9.680 9.750 9.330 9.34 9.570 9.660 9.240 9.420 9.330 9.340 9.240 11.778 11.778 0.000 11.699 11.699 0.000
PRIMET_226 2016-09-29 06:30:00 226 156.7 0.00 196 0.007 0.007 215.000 0.028 9.320 9.210 0.000 0.000 9.32 9.550 9.630 9.210 100.000 100.000 0.007 9.35 9.580 9.660 9.240 9.28 9.510 9.590 9.170 9.350 9.240 9.280 9.170 11.730 11.730 0.000 11.644 11.644 -0.000
PRIMET_226 2016-09-29 06:25:00 226 156.7 0.00 174 0.007 0.007 215.000 0.040 9.230 9.140 0.000 0.000 9.23 9.480 9.570 9.140 100.000 100.000 0.007 9.28 9.510 9.590 9.180 9.19 9.450 9.530 9.100 9.280 9.180 9.190 9.100 11.659 11.659 0.000 11.589 11.589 0.000
PRIMET_226 2016-09-29 06:20:00 226 156.7 0.00 179 0.007 0.007 215.000 0.000 9.150 9.070 0.000 0.000 9.15 9.410 9.500 9.070 100.000 100.000 0.007 9.19 9.430 9.530 9.110 9.12 9.390 9.470 9.040 9.190 9.110 9.120 9.040 11.597 11.597 0.000 11.534 11.534 0.000
PRIMET_226 2016-09-29 06:15:00 226 156.7 0.00 192 0.007 0.007 215.000 0.028 9.090 9.000 0.000 0.000 9.09 9.350 9.440 9.000 100.000 100.000 0.007 9.12 9.390 9.470 9.040 9.07 9.310 9.410 8.970 9.120 9.040 9.070 8.970 11.550 11.550 0.000 11.480 11.480 0.000
PRIMET_226 2016-09-29 06:10:00 226 156.7 0.00 196 0.007 0.007 215.000 0.048 9.040 8.950 0.000 0.000 9.04 9.290 9.380 8.950 100.000 100.000 0.007 9.07 9.310 9.410 8.970 9.02 9.260 9.350 8.920 9.070 8.970 9.020 8.920 11.511 11.511 -0.000 11.441 11.441 0.000
PRIMET_226 2016-09-29 06:05:00 226 156.7 0.00 195 0.007 0.007 215.000 0.028 8.980 8.890 0.000 0.000 8.98 9.230 9.320 8.890 100.000 100.000 0.007 9.03 9.250 9.350 8.920 8.95 9.200 9.290 8.870 9.030 8.920 8.950 8.870 11.464 11.464 0.000 11.395 11.395 0.000
PRIMET_226 2016-09-29 06:00:00 226 156.7 0.00 182 0.007 0.007 215.000 0.040 8.920 8.840 0.000 0.000 8.92 9.170 9.250 8.840 100.000 100.000 0.007 8.95 9.200 9.290 8.870 8.87 9.130 9.220 8.810 8.950 8.870 8.870 8.810 11.418 11.418 0.000 11.356 11.356 0.000
PRIMET_226 2016-09-29 05:55:00 226 156.7 0.00 192 0.007 0.007 215.000 0.028 8.840 8.790 0.000 0.000 8.84 9.090 9.190 8.790 100.000 100.000 0.007 8.88 9.130 9.220 8.820 8.82 9.060 9.160 8.770 8.880 8.820 8.820 8.770 11.356 11.356 0.000 11.318 11.318 0.000
PRIMET_226 2016-09-29 05:50:00 226 156.7 0.00 191 0.007 0.007 215.000 0.000 8.790 8.740 0.000 0.000 8.79 9.030 9.130 8.740 100.000 100.000 0.007 8.82 9.060 9.150 8.770 8.76 9.010 9.100 8.720 8.820 8.770 8.760 8.720 11.318 11.318 0.000 11.280 11.280 0.000
PRIMET_226 2016-09-29 05:45:00 226 156.7 0.00 178 0.007 0.007 215.000 0.000 8.730 8.680 0.000 0.000 8.73 8.980 9.070 8.680 100.000 100.000 0.007 8.77 9.010 9.100 8.720 8.70 8.950 9.030 8.650 8.770 8.720 8.700 8.650 11.272 11.272 0.000 11.234 11.234 0.000
PRIMET_226 2016-09-29 05:40:00 226 156.7 0.00 197 0.007 0.007 215.000 0.000 8.620 8.580 0.000 0.000 8.62 8.890 8.980 8.580 100.000 100.000 0.007 8.69 8.940 9.030 8.630 8.58 8.840 8.930 8.520 8.690 8.630 8.580 8.520 11.188 11.188 0.000 11.158 11.158 0.000
PRIMET_226 2016-09-29 05:35:00 226 156.7 0.00 192 0.007 0.007 215.000 0.040 8.540 8.490 0.000 0.000 8.54 8.810 8.900 8.490 100.000 100.000 0.007 8.57 8.840 8.930 8.530 8.51 8.790 8.880 8.470 8.570 8.530 8.510 8.470 11.128 11.128 0.000 11.090 11.090 0.000
PRIMET_226 2016-09-29 05:30:00 226 156.7 0.00 179 0.007 0.007 215.000 0.028 8.480 8.460 0.000 0.000 8.48 8.760 8.850 8.460 100.000 100.000 0.007 8.52 8.790 8.880 8.480 8.45 8.730 8.820 8.440 8.520 8.480 8.450 8.440 11.083 11.083 0.000 11.068 11.068 0.000
PRIMET_226 2016-09-29 05:25:00 226 156.7 0.00 192 0.007 0.007 215.000 0.040 8.420 8.400 0.000 0.000 8.42 8.700 8.790 8.400 100.000 100.000 0.007 8.44 8.730 8.830 8.460 8.38 8.660 8.760 8.370 8.440 8.460 8.380 8.370 11.038 11.038 0.000 11.023 11.023 0.000
PRIMET_226 2016-09-29 05:20:00 226 156.7 0.00 177 0.007 0.007 215.000 0.028 8.320 8.330 0.000 0.000 8.32 8.610 8.720 8.330 100.000 100.000 0.007 8.38 8.670 8.760 8.380 8.24 8.540 8.660 8.290 8.380 8.380 8.240 8.290 10.963 10.963 0.000 10.970 10.970 0.000
PRIMET_226 2016-09-29 05:15:00 226 156.7 0.00 190 0.007 0.007 215.000 0.000 8.190 8.220 0.000 0.000 8.19 8.440 8.570 8.220 100.000 100.000 0.007 8.24 8.530 8.650 8.270 8.15 8.360 8.490 8.140 8.240 8.270 8.150 8.140 10.867 10.867 0.000 10.889 10.889 0.000
PRIMET_226 2016-09-29 05:10:00 226 156.7 0.00 182 0.007 0.007 215.000 0.028 8.090 8.090 0.000 0.000 8.09 8.300 8.420 8.090 100.000 100.000 0.007 8.13 8.350 8.480 8.140 8.06 8.270 8.390 8.050 8.130 8.140 8.060 8.050 10.793 10.793 0.000 10.793 10.793 0.000
PRIMET_226 2016-09-29 05:05:00 226 156.7 0.00 190 0.007 0.007 215.000 0.028 8.050 8.070 0.000 0.000 8.05 8.250 8.360 8.070 100.000 100.000 0.007 8.07 8.270 8.400 8.090 8.02 8.230 8.320 8.050 8.070 8.090 8.020 8.050 10.764 10.764 0.000 10.778 10.778 0.000
PRIMET_226 2016-09-29 05:00:00 226 156.7 0.00 182 0.007 0.007 215.000 0.040 8.010 8.090 0.000 0.000 8.01 8.200 8.330 8.090 100.000 100.000 0.007 8.02 8.220 8.340 8.110 7.99 8.180 8.320 8.060 8.020 8.110 7.989 8.060 10.734 10.734 0.000 10.793 10.793 0.000
PRIMET_226 2016-09-29 04:55:00 226 156.7 0.00 179 0.007 0.007 215.000 0.000 8.050 8.090 0.000 0.000 8.05 8.190 8.330 8.090 100.000 100.000 0.007 8.09 8.220 8.350 8.110 8.01 8.170 8.320 8.080 8.090 8.110 8.010 8.080 10.764 10.764 0.000 10.793 10.793 0.000
PRIMET_226 2016-09-29 04:50:00 226 156.7 0.00 179 0.007 0.007 215.000 0.028 8.090 8.100 0.000 0.000 8.09 8.240 8.360 8.100 100.000 100.000 0.007 8.11 8.260 8.370 8.120 8.07 8.210 8.340 8.090 8.110 8.120 8.070 8.090 10.793 10.793 0.000 10.800 10.800 0.000
PRIMET_226 2016-09-29 04:45:00 226 156.7 0.00 182 0.007 0.007 215.000 0.028 8.110 8.110 0.000 0.000 8.11 8.220 8.350 8.110 100.000 100.000 0.007 8.13 8.250 8.390 8.130 8.08 8.210 8.330 8.090 8.130 8.130 8.080 8.090 10.808 10.808 0.000 10.808 10.808 0.000
PRIMET_226 2016-09-29 04:40:00 226 156.7 0.00 183 0.007 0.007 215.000 0.040 8.130 8.160 0.000 0.000 8.13 8.260 8.390 8.160 100.000 100.000 0.007 8.14 8.280 8.400 8.180 8.12 8.240 8.380 8.130 8.140 8.180 8.120 8.130 10.822 10.822 -0.000 10.844 10.844 0.000
PRIMET_226 2016-09-29 04:35:00 226 156.7 0.00 196 0.007 0.007 215.000 0.000 8.160 8.180 0.000 0.000 8.16 8.260 8.380 8.180 100.000 100.000 0.007 8.18 8.270 8.390 8.190 8.13 8.250 8.370 8.170 8.180 8.190 8.130 8.170 10.844 10.844 0.000 10.859 10.859 0.000
PRIMET_226 2016-09-29 04:30:00 226 156.7 0.00 196 0.007 0.007 215.000 0.028 8.190 8.210 0.000 0.000 8.19 8.300 8.410 8.210 100.000 100.000 0.007 8.21 8.340 8.440 8.240 8.16 8.260 8.370 8.190 8.210 8.240 8.160 8.190 10.867 10.867 0.000 10.881 10.881 0.000
PRIMET_226 2016-09-29 04:25:00 226 156.7 0.00 174 0.007 0.007 215.000 0.048 8.230 8.270 0.000 0.000 8.23 8.370 8.490 8.270 100.000 100.000 0.007 8.25 8.390 8.530 8.300 8.21 8.330 8.450 8.230 8.250 8.300 8.210 8.230 10.896 10.896 0.000 10.926 10.926 0.000
PRIMET_226 2016-09-29 04:20:00 226 156.7 0.00 179 0.007 0.007 215.000 0.000 8.250 8.310 0.000 0.000 8.25 8.420 8.550 8.310 100.000 100.000 0.007 8.26 8.440 8.570 8.330 8.23 8.390 8.520 8.290 8.260 8.330 8.230 8.290 10.911 10.911 0.000 10.956 10.956 -0.000
PRIMET_226 2016-09-29 04:15:00 226 156.7 0.00 193 0.007 0.007 215.000 0.040 8.250 8.350 0.000 0.000 8.25 8.440 8.560 8.350 100.000 100.000 0.007 8.26 8.440 8.580 8.380 8.23 8.430 8.550 8.320 8.260 8.380 8.230 8.320 10.911 10.911 0.000 10.985 10.985 -0.000
PRIMET_226 2016-09-29 04:10:00 226 156.7 0.00 197 0.007 0.007 215.000 0.028 8.300 8.380 0.000 0.000 8.30 8.450 8.590 8.380 100.000 100.000 0.007 8.32 8.480 8.590 8.390 8.27 8.440 8.580 8.360 8.320 8.390 8.270 8.360 10.948 10.948 0.000 11.008 11.008 0.000
PRIMET_226 2016-09-29 04:05:00 226 156.7 0.00 197 0.007 0.007 215.000 0.040 8.350 8.380 0.000 0.000 8.35 8.460 8.570 8.380 100.000 100.000 0.007 8.39 8.480 8.590 8.400 8.31 8.450 8.550 8.370 8.390 8.400 8.310 8.370 10.985 10.985 -0.000 11.008 11.008 0.000
PRIMET_226 2016-09-29 04:00:00 226 156.7 0.00 178 0.007 0.007 215.000 0.048 8.430 8.440 0.000 0.000 8.43 8.490 8.610 8.440 100.000 100.000 0.007 8.46 8.550 8.660 8.480 8.40 8.450 8.560 8.390 8.460 8.480 8.400 8.390 11.045 11.045 -0.000 11.053 11.053 0.000
PRIMET_226 2016-09-29 03:55:00 226 156.7 0.00 195 0.007 0.007 215.000 0.040 8.470 8.490 0.000 0.000 8.47 8.580 8.700 8.490 100.000 100.000 0.007 8.49 8.600 8.740 8.520 8.45 8.550 8.670 8.450 8.490 8.520 8.450 8.450 11.075 11.075 0.000 11.090 11.090 0.000
PRIMET_226 2016-09-29 03:50:00 226 156.7 0.00 196 0.007 0.007 215.000 0.048 8.500 8.530 0.000 0.000 8.50 8.620 8.750 8.530 100.000 100.000 0.007 8.52 8.630 8.770 8.550 8.48 8.600 8.730 8.510 8.520 8.550 8.480 8.510 11.098 11.098 -0.000 11.120 11.120 0.000
PRIMET_226 2016-09-29 03:45:00 226 156.7 0.00 187 0.007 0.007 215.000 0.000 8.520 8.570 0.000 0.000 8.52 8.630 8.760 8.570 100.000 100.000 0.007 8.55 8.660 8.790 8.590 8.50 8.620 8.740 8.540 8.550 8.590 8.500 8.540 11.113 11.113 0.000 11.151 11.151 0.000
PRIMET_226 2016-09-29 03:40:00 226 156.7 0.00 196 0.007 0.007 215.000 0.040 8.570 8.610 0.000 0.000 8.57 8.670 8.820 8.610 100.000 100.000 0.007 8.60 8.700 8.850 8.640 8.55 8.650 8.800 8.600 8.600 8.640 8.550 8.600 11.151 11.151 0.000 11.181 11.181 0.000
PRIMET_226 2016-09-29 03:35:00 226 156.7 0.00 196 0.007 0.007 215.000 0.048 8.600 8.650 0.000 0.000 8.60 8.730 8.860 8.650 100.000 100.000 0.007 8.62 8.770 8.900 8.670 8.58 8.710 8.840 8.620 8.610 8.670 8.580 8.620 11.173 11.173 0.000 11.211 11.211 0.000
PRIMET_226 2016-09-29 03:30:00 226 156.7 0.00 196 0.007 0.007 215.000 0.048 8.630 8.710 0.000 0.000 8.63 8.790 8.930 8.710 100.000 100.000 0.007 8.68 8.810 8.950 8.730 8.61 8.760 8.910 8.680 8.680 8.730 8.610 8.680 11.196 11.196 0.000 11.257 11.257 0.000
PRIMET_226 2016-09-29 03:25:00 226 156.7 0.00 195 0.007 0.007 215.000 0.000 8.680 8.730 0.000 0.000 8.68 8.820 8.960 8.730 100.000 100.000 0.007 8.70 8.830 8.970 8.740 8.66 8.800 8.940 8.720 8.700 8.740 8.660 8.710 11.234 11.234 0.000 11.272 11.272 0.000
PRIMET_226 2016-09-29 03:20:00 226 156.7 0.00 196 0.007 0.007 215.000 0.000 8.710 8.740 0.000 0.000 8.71 8.850 8.960 8.740 100.000 100.000 0.007 8.73 8.870 8.980 8.760 8.69 8.820 8.950 8.720 8.730 8.760 8.690 8.720 11.257 11.257 0.000 11.280 11.280 0.000
PRIMET_226 2016-09-29 03:15:00 226 156.7 0.00 174 0.007 0.007 215.000 0.048 8.710 8.770 0.000 0.000 8.71 8.870 8.990 8.770 100.000 100.000 0.007 8.73 8.890 9.020 8.800 8.70 8.850 8.960 8.750 8.730 8.800 8.700 8.750 11.257 11.257 0.000 11.303 11.303 0.000
PRIMET_226 2016-09-29 03:10:00 226 156.7 0.00 178 0.007 0.007 215.000 0.000 8.770 8.820 0.000 0.000 8.77 8.890 9.020 8.820 100.000 100.000 0.007 8.80 8.920 9.050 8.840 8.72 8.850 9.000 8.800 8.800 8.840 8.720 8.800 11.303 11.303 0.000 11.341 11.341 0.000
PRIMET_226 2016-09-29 03:05:00 226 156.7 0.00 197 0.007 0.007 215.000 0.028 8.820 8.830 0.000 0.000 8.82 8.910 9.030 8.830 100.000 100.000 0.007 8.84 8.920 9.050 8.850 8.80 8.890 9.020 8.810 8.840 8.850 8.800 8.810 11.341 11.341 0.000 11.349 11.349 0.000
PRIMET_226 2016-09-29 03:00:00 226 156.7 0.00 192 0.007 0.007 215.000 0.040 8.860 8.860 0.000 0.000 8.86 8.930 9.030 8.860 100.000 100.000 0.007 8.87 8.950 9.050 8.870 8.83 8.900 9.010 8.840 8.870 8.870 8.830 8.840 11.372 11.372 0.000 11.372 11.372 0.000
PRIMET_226 2016-09-29 02:55:00 226 156.7 0.00 194 0.007 0.007 215.000 0.028 8.880 8.890 0.000 0.000 8.88 8.950 9.050 8.890 100.000 100.000 0.007 8.89 8.960 9.080 8.930 8.87 8.940 9.030 8.870 8.890 8.930 8.870 8.870 11.387 11.387 0.000 11.395 11.395 0.000
PRIMET_226 2016-09-29 02:50:00 226 156.7 0.00 175 0.007 0.007 215.000 0.000 8.920 8.950 0.000 0.000 8.92 9.000 9.130 8.950 100.000 100.000 0.007 8.94 9.050 9.180 8.990 8.89 8.960 9.080 8.920 8.940 8.990 8.890 8.920 11.418 11.418 0.000 11.441 11.441 0.000
PRIMET_226 2016-09-29 02:45:00 226 156.7 0.00 182 0.007 0.007 215.000 0.028 8.970 9.020 0.000 0.000 8.97 9.100 9.220 9.020 100.000 100.000 0.007 9.00 9.120 9.240 9.050 8.94 9.060 9.180 8.990 9.000 9.050 8.940 8.990 11.457 11.457 0.000 11.495 11.495 0.000
PRIMET_226 2016-09-29 02:40:00 226 156.7 0.00 196 0.007 0.007 215.000 0.000 9.020 9.040 0.000 0.000 9.02 9.130 9.260 9.040 100.000 100.000 0.007 9.03 9.160 9.300 9.070 8.99 9.110 9.230 9.020 9.030 9.070 8.990 9.020 11.495 11.495 0.000 11.511 11.511 -0.000
PRIMET_226 2016-09-29 02:35:00 226 156.7 0.00 186 0.007 0.007 215.000 0.028 9.050 9.080 0.000 0.000 9.05 9.160 9.300 9.080 100.000 100.000 0.007 9.08 9.180 9.320 9.100 9.02 9.150 9.290 9.070 9.080 9.100 9.020 9.070 11.519 11.519 0.000 11.542 11.542 0.000
PRIMET_226 2016-09-29 02:30:00 226 156.7 0.00 191 0.007 0.007 215.000 0.028 9.090 9.100 0.000 0.000 9.09 9.200 9.320 9.100 100.000 100.000 0.007 9.12 9.220 9.340 9.120 9.06 9.170 9.300 9.080 9.120 9.120 9.060 9.080 11.550 11.550 0.000 11.558 11.558 0.000
PRIMET_226 2016-09-29 02:25:00 226 156.7 0.00 182 0.007 0.007 215.000 0.028 9.130 9.140 0.000 0.000 9.13 9.230 9.350 9.140 100.000 100.000 0.007 9.16 9.270 9.380 9.160 9.11 9.220 9.340 9.110 9.160 9.160 9.110 9.110 11.581 11.581 -0.000 11.589 11.589 0.000
PRIMET_226 2016-09-29 02:20:00 226 156.7 0.00 186 0.007 0.007 215.000 0.000 9.170 9.190 0.000 0.000 9.17 9.290 9.420 9.190 100.000 100.000 0.007 9.19 9.330 9.440 9.210 9.15 9.270 9.380 9.160 9.190 9.210 9.150 9.160 11.612 11.612 0.000 11.628 11.628 -0.000
PRIMET_226 2016-09-29 02:15:00 226 156.7 0.00 181 0.007 0.007 215.000 0.048 9.200 9.230 0.000 0.000 9.20 9.320 9.440 9.230 100.000 100.000 0.007 9.22 9.330 9.450 9.250 9.19 9.310 9.430 9.210 9.220 9.250 9.190 9.210 11.636 11.636 0.000 11.659 11.659 0.000
PRIMET_226 2016-09-29 02:10:00 226 156.7 0.00 196 0.007 0.007 215.000 0.040 9.240 9.270 0.000 0.000 9.24 9.360 9.480 9.270 100.000 100.000 0.007 9.25 9.380 9.500 9.290 9.22 9.330 9.440 9.250 9.250 9.290 9.220 9.250 11.667 11.667 -0.000 11.691 11.691 0.000
PRIMET_226 2016-09-29 02:05:00 226 156.7 0.00 174 0.007 0.007 215.000 0.028 9.270 9.310 0.000 0.000 9.27 9.400 9.520 9.310 100.000 100.000 0.007 9.29 9.410 9.530 9.330 9.26 9.380 9.500 9.280 9.290 9.330 9.260 9.280 11.691 11.691 0.000 11.722 11.722 0.000
PRIMET_226 2016-09-29 02:00:00 226 156.7 0.00 196 0.007 0.007 215.000 0.048 9.300 9.360 0.000 0.000 9.30 9.450 9.570 9.360 100.000 100.000 0.007 9.32 9.490 9.600 9.390 9.27 9.410 9.520 9.330 9.320 9.390 9.270 9.330 11.715 11.715 0.000 11.762 11.762 0.000
PRIMET_226 2016-09-29 01:55:00 226 156.7 0.00 196 0.007 0.007 215.000 0.028 9.340 9.400 0.000 0.000 9.34 9.500 9.620 9.400 100.000 100.000 0.007 9.36 9.520 9.640 9.440 9.32 9.480 9.600 9.380 9.360 9.440 9.320 9.380 11.746 11.746 0.000 11.794 11.794 0.000
PRIMET_226 2016-09-29 01:50:00 226 156.7 0.00 195 0.007 0.007 215.000 0.028 9.350 9.450 0.000 0.000 9.35 9.510 9.640 9.450 100.000 100.000 0.007 9.36 9.520 9.650 9.470 9.34 9.500 9.630 9.420 9.360 9.470 9.340 9.420 11.754 11.754 0.000 11.833 11.833 0.000
PRIMET_226 2016-09-29 01:45:00 226 156.7 0.00 174 0.007 0.007 215.000 0.000 9.390 9.490 0.000 0.000 9.39 9.520 9.670 9.490 100.000 100.000 0.007 9.43 9.540 9.680 9.510 9.35 9.510 9.650 9.460 9.430 9.510 9.350 9.460 11.786 11.786 0.000 11.865 11.865 0.000
PRIMET_226 2016-09-29 01:40:00 226 156.7 0.00 190 0.007 0.007 215.000 0.040 9.460 9.530 0.000 0.000 9.46 9.580 9.710 9.530 100.000 100.000 0.007 9.49 9.620 9.740 9.550 9.42 9.530 9.670 9.500 9.490 9.550 9.420 9.500 11.841 11.841 0.000 11.897 11.897 -0.000
PRIMET_226 2016-09-29 01:35:00 226 156.7 0.00 186 0.007 0.007 215.000 0.048 9.470 9.580 0.000 0.000 9.47 9.640 9.770 9.580 100.000 100.000 0.007 9.49 9.660 9.790 9.610 9.45 9.620 9.740 9.550 9.490 9.610 9.450 9.550 11.849 11.849 0.000 11.937 11.937 0.000
PRIMET_226 2016-09-29 01:30:00 226 156.7 0.00 195 0.007 0.007 215.000 0.028 9.470 9.630 0.000 0.000 9.47 9.660 9.810 9.630 100.000 100.000 0.007 9.52 9.690 9.830 9.650 9.45 9.640 9.800 9.600 9.520 9.650 9.450 9.600 11.849 11.849 0.000 11.978 11.978 0.000
PRIMET_226 2016-09-29 01:25:00 226 156.7 0.00 195 0.007 0.007 215.000 0.028 9.570 9.670 0.000 0.000 9.57 9.710 9.850 9.670 100.000 100.000 0.007 9.60 9.730 9.880 9.700 9.53 9.680 9.830 9.650 9.600 9.700 9.530 9.650 11.929 11.929 0.000 12.010 12.010 0.000
PRIMET_226 2016-09-29 01:20:00 226 156.7 0.00 197 0.007 0.007 215.000 0.028 9.650 9.710 0.000 0.000 9.65 9.770 9.880 9.710 100.000 100.000 0.007 9.69 9.810 9.930 9.750 9.60 9.730 9.850 9.690 9.690 9.750 9.600 9.690 11.994 11.994 0.000 12.042 12.042 0.000
PRIMET_226 2016-09-29 01:15:00 226 156.7 0.00 179 0.007 0.007 215.000 0.028 9.710 9.780 0.000 0.000 9.71 9.860 9.970 9.780 100.000 100.000 0.007 9.73 9.880 9.990 9.790 9.69 9.820 9.940 9.750 9.730 9.790 9.690 9.750 12.042 12.042 0.000 12.099 12.099 -0.000
PRIMET_226 2016-09-29 01:10:00 226 156.7 0.00 196 0.007 0.007 215.000 0.028 9.740 9.810 0.000 0.000 9.74 9.880 10.000 9.810 100.000 100.000 0.007 9.76 9.900 10.010 9.830 9.72 9.870 9.990 9.780 9.760 9.830 9.720 9.780 12.066 12.066 0.000 12.123 12.123 0.000
PRIMET_226 2016-09-29 01:05:00 226 156.7 0.00 195 0.007 0.007 215.000 0.028 9.790 9.860 0.000 0.000 9.79 9.920 10.050 9.860 100.000 100.000 0.007 9.82 9.950 10.070 9.880 9.76 9.890 10.010 9.820 9.820 9.880 9.760 9.820 12.107 12.107 0.000 12.164 12.164 0.000
PRIMET_226 2016-09-29 01:00:00 226 156.7 0.00 182 0.007 0.007 215.000 0.056 9.830 9.890 0.000 0.000 9.83 9.970 10.090 9.890 100.000 100.000 0.007 9.85 10.000 10.120 9.930 9.81 9.950 10.070 9.870 9.850 9.930 9.810 9.870 12.140 12.140 0.000 12.189 12.189 0.000
PRIMET_226 2016-09-29 00:55:00 226 156.7 0.00 190 0.007 0.007 215.000 0.028 9.870 9.950 0.000 0.000 9.87 10.010 10.130 9.950 100.000 100.000 0.007 9.90 10.040 10.160 9.970 9.85 9.990 10.110 9.920 9.900 9.970 9.850 9.920 12.172 12.172 0.000 12.238 12.238 0.000
PRIMET_226 2016-09-29 00:50:00 226 156.7 0.00 190 0.007 0.007 215.000 0.040 9.900 9.990 0.000 0.000 9.90 10.050 10.170 9.990 100.000 100.000 0.007 9.93 10.070 10.190 10.020 9.88 10.030 10.150 9.970 9.930 10.020 9.880 9.970 12.197 12.197 0.000 12.271 12.271 0.000
PRIMET_226 2016-09-29 00:45:00 226 156.7 0.00 182 0.007 0.007 215.000 0.028 9.950 10.030 0.000 0.000 9.95 10.100 10.210 10.030 100.000 100.000 0.007 9.98 10.120 10.230 10.040 9.92 10.070 10.190 10.010 9.980 10.040 9.920 10.010 12.238 12.238 0.000 12.303 12.303 0.000
PRIMET_226 2016-09-29 00:40:00 226 156.7 0.00 192 0.007 0.007 215.000 0.040 9.970 10.050 0.000 0.000 9.97 10.110 10.220 10.050 100.000 100.000 0.007 9.99 10.120 10.240 10.090 9.96 10.100 10.200 10.040 9.990 10.090 9.960 10.040 12.254 12.254 0.000 12.320 12.320 0.000
PRIMET_226 2016-09-29 00:35:00 226 156.7 0.00 196 0.007 0.007 215.000 0.040 10.010 10.110 0.000 0.000 10.01 10.140 10.270 10.110 100.000 100.000 0.007 10.04 10.160 10.290 10.140 9.98 10.120 10.240 10.080 10.040 10.140 9.980 10.080 12.287 12.287 0.000 12.370 12.370 0.000
PRIMET_226 2016-09-29 00:30:00 226 156.7 0.00 197 0.007 0.007 215.000 0.028 10.050 10.150 0.000 0.000 10.05 10.150 10.290 10.150 100.000 100.000 0.007 10.08 10.170 10.330 10.170 10.03 10.150 10.280 10.130 10.080 10.170 10.030 10.130 12.320 12.320 0.000 12.403 12.403 0.000
PRIMET_226 2016-09-29 00:25:00 226 156.7 0.00 187 0.007 0.007 215.000 0.048 10.110 10.200 0.000 0.000 10.11 10.220 10.350 10.200 100.000 100.000 0.007 10.14 10.270 10.380 10.230 10.08 10.180 10.320 10.180 10.140 10.230 10.080 10.180 12.370 12.370 0.000 12.444 12.444 0.000
PRIMET_226 2016-09-29 00:20:00 226 156.7 0.00 196 0.007 0.007 215.000 0.048 10.160 10.260 0.000 0.000 10.16 10.300 10.420 10.260 100.000 100.000 0.007 10.17 10.320 10.440 10.290 10.14 10.270 10.390 10.220 10.170 10.290 10.140 10.220 12.411 12.411 -0.000 12.494 12.494 0.000
PRIMET_226 2016-09-29 00:15:00 226 156.7 0.00 195 0.007 0.007 215.000 0.028 10.200 10.320 0.000 0.000 10.20 10.330 10.470 10.320 100.000 100.000 0.007 10.23 10.350 10.500 10.350 10.18 10.310 10.450 10.280 10.230 10.350 10.180 10.280 12.444 12.444 0.000 12.545 12.545 0.000
PRIMET_226 2016-09-29 00:10:00 226 156.7 0.00 195 0.007 0.007 215.000 0.028 10.240 10.360 0.000 0.000 10.24 10.340 10.490 10.360 100.000 100.000 0.007 10.27 10.360 10.500 10.390 10.22 10.330 10.480 10.350 10.270 10.390 10.220 10.350 12.478 12.478 0.000 12.578 12.578 0.000
PRIMET_226 2016-09-29 00:05:00 226 156.7 0.00 197 0.007 0.007 215.000 0.048 10.350 10.420 0.000 0.000 10.35 10.440 10.550 10.420 100.000 100.000 0.007 10.38 10.510 10.610 10.460 10.27 10.320 10.480 10.380 10.380 10.460 10.270 10.380 12.570 12.570 0.000 12.629 12.629 0.000
PRIMET_226 2016-09-29 00:00:00 226 156.7 0.00 188 0.007 0.007 215.000 0.048 10.390 10.490 0.000 0.000 10.39 10.520 10.640 10.490 100.000 100.000 0.007 10.41 10.540 10.670 10.510 10.38 10.510 10.610 10.460 10.410 10.510 10.380 10.460 12.603 12.603 0.000 12.688 12.688 0.000
PRIMET_226 2016-09-28 23:55:00 226 156.7 0.00 192 0.007 0.007 215.000 0.000 10.430 10.540 0.000 0.000 10.43 10.550 10.690 10.540 100.000 100.000 0.007 10.47 10.580 10.730 10.570 10.41 10.530 10.660 10.510 10.470 10.570 10.410 10.510 12.637 12.637 0.000 12.730 12.730 0.000
PRIMET_226 2016-09-28 23:50:00 226 156.7 0.00 190 0.007 0.007 215.000 0.028 10.500 10.600 0.000 0.000 10.50 10.640 10.770 10.600 100.000 100.000 0.007 10.53 10.680 10.800 10.630 10.45 10.590 10.730 10.570 10.530 10.630 10.450 10.570 12.696 12.696 0.000 12.781 12.781 0.000
PRIMET_226 2016-09-28 23:45:00 226 156.7 0.00 192 0.007 0.007 215.000 0.028 10.560 10.660 0.000 0.000 10.56 10.720 10.840 10.660 100.000 100.000 0.007 10.60 10.760 10.870 10.680 10.53 10.690 10.800 10.620 10.600 10.680 10.530 10.620 12.747 12.747 0.000 12.832 12.832 0.000
PRIMET_226 2016-09-28 23:40:00 226 156.7 0.00 190 0.007 0.007 215.000 0.028 10.600 10.690 0.000 0.000 10.60 10.740 10.850 10.690 100.000 100.000 0.007 10.63 10.760 10.860 10.700 10.57 10.730 10.840 10.670 10.620 10.700 10.570 10.670 12.781 12.781 0.000 12.858 12.858 0.000
PRIMET_226 2016-09-28 23:35:00 226 156.7 0.00 192 0.007 0.007 215.000 0.028 10.640 10.740 0.000 0.000 10.64 10.790 10.900 10.740 100.000 100.000 0.007 10.66 10.830 10.940 10.770 10.62 10.760 10.870 10.710 10.660 10.770 10.620 10.710 12.815 12.815 0.000 12.901 12.901 0.000
PRIMET_226 2016-09-28 23:30:00 226 156.7 0.00 186 0.007 0.007 215.000 0.028 10.680 10.800 0.000 0.000 10.68 10.850 10.970 10.800 100.000 100.000 0.007 10.71 10.870 11.000 10.820 10.65 10.830 10.940 10.770 10.710 10.820 10.650 10.770 12.850 12.850 0.000 12.953 12.953 0.000
PRIMET_226 2016-09-28 23:25:00 226 156.7 0.00 190 0.007 0.007 215.000 0.040 10.740 10.860 0.000 0.000 10.74 10.890 11.010 10.860 100.000 100.000 0.007 10.78 10.900 11.020 10.880 10.72 10.870 11.000 10.820 10.780 10.880 10.720 10.820 12.901 12.901 0.000 13.004 13.004 0.000
PRIMET_226 2016-09-28 23:20:00 226 156.7 0.00 195 0.007 0.007 215.000 0.028 10.790 10.900 0.000 0.000 10.79 10.940 11.050 10.900 100.000 100.000 0.007 10.81 10.960 11.080 10.920 10.77 10.890 11.020 10.880 10.810 10.920 10.770 10.880 12.944 12.944 0.000 13.039 13.039 0.000
PRIMET_226 2016-09-28 23:15:00 226 156.7 0.00 190 0.007 0.007 215.000 0.040 10.830 10.930 0.000 0.000 10.83 10.970 11.080 10.930 100.000 100.000 0.007 10.86 10.980 11.090 10.950 10.81 10.960 11.070 10.910 10.860 10.950 10.810 10.910 12.979 12.979 -0.000 13.065 13.065 0.000
PRIMET_226 2016-09-28 23:10:00 226 156.7 0.00 190 0.007 0.007 215.000 0.028 10.860 10.980 0.000 0.000 10.86 11.000 11.120 10.980 100.000 100.000 0.007 10.88 11.040 11.160 11.020 10.84 10.970 11.090 10.950 10.880 11.020 10.840 10.950 13.004 13.004 0.000 13.109 13.109 -0.000
PRIMET_226 2016-09-28 23:05:00 226 156.7 0.00 178 0.007 0.007 215.000 0.028 10.880 11.040 0.000 0.000 10.88 11.050 11.180 11.040 100.000 100.000 0.007 10.90 11.060 11.210 11.070 10.87 11.040 11.160 11.010 10.900 11.070 10.870 11.010 13.022 13.022 0.000 13.161 13.161 0.000
PRIMET_226 2016-09-28 23:00:00 226 156.7 0.00 191 0.007 0.007 215.000 0.028 10.880 11.090 0.000 0.000 10.88 11.050 11.210 11.090 100.000 100.000 0.007 10.90 11.060 11.220 11.100 10.87 11.040 11.190 11.070 10.900 11.100 10.870 11.070 13.022 13.022 0.000 13.205 13.205 0.000
PRIMET_226 2016-09-28 22:55:00 226 156.7 0.00 191 0.007 0.007 215.000 0.040 10.900 11.120 0.000 0.000 10.90 11.040 11.190 11.120 100.000 100.000 0.007 10.92 11.070 11.220 11.140 10.88 11.010 11.160 11.090 10.920 11.140 10.880 11.090 13.039 13.039 0.000 13.231 13.231 0.000
PRIMET_226 2016-09-28 22:50:00 226 156.7 0.00 192 0.007 0.007 215.000 0.040 10.990 11.190 0.000 0.000 10.99 11.160 11.300 11.190 100.000 100.000 0.007 11.06 11.230 11.370 11.260 10.93 11.080 11.230 11.140 11.060 11.260 10.930 11.140 13.117 13.117 0.000 13.293 13.293 0.000
PRIMET_226 2016-09-28 22:45:00 226 156.7 0.00 182 0.007 0.007 215.000 0.040 11.120 11.290 0.000 0.000 11.12 11.270 11.400 11.290 100.000 100.000 0.007 11.17 11.310 11.430 11.320 11.07 11.240 11.370 11.250 11.170 11.320 11.070 11.250 13.231 13.231 0.000 13.381 13.381 0.000
PRIMET_226 2016-09-28 22:40:00 226 156.7 0.00 174 0.007 0.007 215.000 0.040 11.220 11.340 0.000 0.000 11.22 11.340 11.460 11.340 100.000 100.000 0.007 11.27 11.390 11.510 11.380 11.18 11.310 11.420 11.300 11.270 11.380 11.180 11.300 13.319 13.319 0.000 13.426 13.426 0.000
PRIMET_226 2016-09-28 22:35:00 226 156.7 0.00 195 0.007 0.007 215.000 0.000 11.300 11.410 0.000 0.000 11.30 11.440 11.560 11.410 100.000 100.000 0.007 11.33 11.470 11.580 11.460 11.27 11.400 11.520 11.380 11.330 11.460 11.270 11.380 13.390 13.390 0.000 13.488 13.488 0.000
PRIMET_226 2016-09-28 22:30:00 226 156.7 0.00 193 0.007 0.007 215.000 0.040 11.350 11.460 0.000 0.000 11.35 11.490 11.600 11.460 100.000 100.000 0.007 11.39 11.510 11.620 11.480 11.32 11.470 11.590 11.440 11.390 11.480 11.320 11.440 13.435 13.435 0.000 13.533 13.533 0.000
PRIMET_226 2016-09-28 22:25:00 226 156.7 0.00 182 0.007 0.007 215.000 0.028 11.400 11.500 0.000 0.000 11.40 11.510 11.620 11.500 100.000 100.000 0.007 11.43 11.530 11.640 11.530 11.37 11.500 11.610 11.480 11.430 11.530 11.370 11.480 13.479 13.479 -0.000 13.569 13.569 0.000
PRIMET_226 2016-09-28 22:20:00 226 156.7 0.00 174 0.007 0.007 215.000 0.028 11.460 11.570 0.000 0.000 11.46 11.560 11.680 11.570 100.000 100.000 0.007 11.49 11.590 11.710 11.610 11.42 11.540 11.640 11.530 11.490 11.610 11.420 11.530 13.533 13.533 0.000 13.632 13.632 0.000
PRIMET_226 2016-09-28 22:15:00 226 156.7 0.00 187 0.007 0.007 215.000 0.048 11.530 11.640 0.000 0.000 11.53 11.650 11.760 11.640 100.000 100.000 0.007 11.56 11.690 11.800 11.680 11.49 11.600 11.720 11.600 11.560 11.680 11.490 11.600 13.596 13.596 0.000 13.695 13.695 0.000
PRIMET_226 2016-09-28 22:10:00 226 156.7 0.00 196 0.007 0.007 215.000 0.028 11.580 11.720 0.000 0.000 11.58 11.720 11.830 11.720 100.000 100.000 0.007 11.61 11.750 11.860 11.750 11.55 11.690 11.800 11.670 11.610 11.750 11.550 11.670 13.641 13.641 0.000 13.768 13.768 0.000
PRIMET_226 2016-09-28 22:05:00 226 156.7 0.00 193 0.007 0.007 215.000 0.028 11.650 11.780 0.000 0.000 11.65 11.780 11.890 11.780 100.000 100.000 0.007 11.69 11.800 11.920 11.800 11.61 11.760 11.850 11.740 11.690 11.800 11.610 11.740 13.704 13.704 0.000 13.822 13.822 0.000
PRIMET_226 2016-09-28 22:00:00 226 156.7 0.00 193 0.007 0.007 215.000 0.028 11.690 11.830 0.000 0.000 11.69 11.820 11.940 11.830 100.000 100.000 0.007 11.71 11.860 11.970 11.870 11.67 11.800 11.910 11.790 11.710 11.870 11.670 11.790 13.740 13.740 0.000 13.868 13.868 0.000
PRIMET_226 2016-09-28 21:55:00 226 156.7 0.00 191 0.007 0.007 215.000 0.048 11.740 11.890 0.000 0.000 11.74 11.860 11.980 11.890 100.000 100.000 0.007 11.78 11.900 12.020 11.930 11.72 11.840 11.950 11.870 11.780 11.930 11.720 11.870 13.786 13.786 0.000 13.923 13.923 0.000
PRIMET_226 2016-09-28 21:50:00 226 156.7 0.00 196 0.007 0.007 215.000 0.028 11.800 11.960 0.000 0.000 11.80 11.950 12.060 11.960 100.000 100.000 0.007 11.83 11.990 12.100 12.010 11.76 11.910 12.020 11.930 11.830 12.010 11.760 11.930 13.841 13.841 0.000 13.988 13.988 0.000
PRIMET_226 2016-09-28 21:45:00 226 156.7 0.00 178 0.007 0.007 215.000 0.028 11.850 12.040 0.000 0.000 11.85 12.010 12.110 12.040 100.000 100.000 0.007 11.86 12.020 12.120 12.060 11.84 12.000 12.100 12.010 11.860 12.060 11.840 12.010 13.886 13.886 0.000 14.062 14.062 0.000
PRIMET_226 2016-09-28 21:40:00 226 156.7 0.00 182 0.007 0.007 215.000 0.028 11.870 12.050 0.000 0.000 11.87 12.000 12.120 12.050 100.000 100.000 0.007 11.88 12.020 12.140 12.080 11.84 11.990 12.110 12.020 11.880 12.080 11.840 12.020 13.905 13.905 -0.000 14.071 14.071 0.000
PRIMET_226 2016-09-28 21:35:00 226 156.7 0.00 196 0.007 0.007 215.000 0.028 11.870 12.110 0.000 0.000 11.87 12.020 12.170 12.110 100.000 100.000 0.007 11.89 12.040 12.200 12.140 11.85 12.000 12.140 12.080 11.890 12.140 11.850 12.080 13.905 13.905 -0.000 14.127 14.127 0.000
PRIMET_226 2016-09-28 21:30:00 226 156.7 0.00 196 0.007 0.007 215.000 0.040 11.930 12.160 0.000 0.000 11.93 12.080 12.220 12.160 100.000 100.000 0.007 11.98 12.110 12.250 12.190 11.88 12.040 12.200 12.130 11.980 12.190 11.880 12.130 13.960 13.960 0.000 14.173 14.173 0.000
PRIMET_226 2016-09-28 21:25:00 226 156.7 0.00 186 0.007 0.007 215.000 0.040 12.050 12.240 0.000 0.000 12.05 12.190 12.290 12.240 100.000 100.000 0.007 12.10 12.250 12.340 12.280 11.99 12.110 12.250 12.190 12.100 12.280 11.990 12.190 14.071 14.071 0.000 14.248 14.248 -0.000
PRIMET_226 2016-09-28 21:20:00 226 156.7 0.00 196 0.007 0.007 215.000 0.000 12.120 12.310 0.000 0.000 12.12 12.250 12.350 12.310 100.000 100.000 0.007 12.16 12.280 12.380 12.350 12.09 12.240 12.330 12.270 12.160 12.350 12.090 12.270 14.136 14.136 0.000 14.314 14.314 0.000
PRIMET_226 2016-09-28 21:15:00 226 156.7 0.00 182 0.007 0.007 215.000 0.048 12.220 12.380 0.000 0.000 12.22 12.320 12.430 12.380 100.000 100.000 0.007 12.26 12.370 12.490 12.410 12.16 12.280 12.380 12.340 12.260 12.410 12.160 12.340 14.229 14.229 0.000 14.380 14.380 0.000
PRIMET_226 2016-09-28 21:10:00 226 156.7 0.00 192 0.007 0.007 215.000 0.048 12.290 12.450 0.000 0.000 12.29 12.400 12.520 12.450 100.000 100.000 0.007 12.33 12.430 12.570 12.480 12.26 12.370 12.490 12.400 12.330 12.480 12.260 12.400 14.295 14.295 0.000 14.446 14.446 0.000
PRIMET_226 2016-09-28 21:05:00 226 156.7 0.00 196 0.007 0.007 215.000 0.048 12.350 12.510 0.000 0.003 12.35 12.480 12.610 12.520 100.000 100.000 0.007 12.37 12.520 12.650 12.550 12.33 12.440 12.580 12.490 12.370 12.540 12.330 12.490 14.351 14.351 0.000 14.513 14.503 0.000
PRIMET_226 2016-09-28 21:00:00 226 156.7 0.00 177 0.007 0.007 215.000 0.040 12.420 12.550 0.000 0.019 12.42 12.560 12.670 12.570 100.000 99.900 0.007 12.46 12.590 12.710 12.600 12.37 12.530 12.650 12.550 12.460 12.570 12.370 12.530 14.418 14.418 0.000 14.560 14.541 0.015
PRIMET_226 2016-09-28 20:55:00 226 156.7 0.00 195 0.007 0.007 215.000 0.000 12.470 12.600 0.000 0.036 12.47 12.610 12.720 12.630 100.000 99.800 0.007 12.49 12.630 12.750 12.670 12.45 12.600 12.700 12.600 12.490 12.620 12.450 12.570 14.465 14.465 0.000 14.618 14.589 0.029
PRIMET_226 2016-09-28 20:50:00 226 156.7 0.00 191 0.007 0.007 215.000 0.040 12.490 12.640 0.000 0.054 12.49 12.660 12.790 12.690 100.000 99.600 0.007 12.51 12.690 12.820 12.730 12.47 12.630 12.750 12.670 12.510 12.670 12.470 12.620 14.484 14.484 0.000 14.675 14.627 0.059
PRIMET_226 2016-09-28 20:45:00 226 156.7 0.00 192 0.007 0.007 215.000 0.000 12.510 12.670 0.000 0.075 12.51 12.700 12.840 12.750 100.000 99.500 0.007 12.55 12.720 12.870 12.780 12.49 12.680 12.810 12.710 12.550 12.690 12.490 12.650 14.503 14.503 0.000 14.733 14.656 0.074
PRIMET_226 2016-09-28 20:40:00 226 156.7 0.00 196 0.007 0.007 215.000 0.040 12.580 12.680 0.000 0.113 12.58 12.750 12.890 12.800 100.000 99.200 0.007 12.64 12.790 12.910 12.830 12.55 12.730 12.870 12.770 12.640 12.700 12.550 12.670 14.570 14.570 0.000 14.782 14.666 0.118
PRIMET_226 2016-09-28 20:35:00 226 156.7 0.00 196 0.007 0.007 215.000 0.000 12.690 12.710 0.000 0.147 12.69 12.810 12.930 12.860 100.000 99.000 0.007 12.73 12.840 12.950 12.880 12.65 12.790 12.900 12.820 12.730 12.730 12.650 12.690 14.675 14.675 0.000 14.840 14.695 0.148
PRIMET_226 2016-09-28 20:30:00 226 156.7 0.00 187 0.007 0.007 215.000 0.048 12.740 12.740 0.000 0.175 12.74 12.860 12.970 12.920 100.000 98.800 0.007 12.76 12.890 13.020 12.970 12.70 12.830 12.940 12.860 12.760 12.780 12.700 12.680 14.724 14.724 0.000 14.898 14.724 0.179
PRIMET_226 2016-09-28 20:25:00 226 156.7 0.00 196 0.007 0.007 215.000 0.028 12.760 12.810 0.000 0.189 12.76 12.910 13.040 13.010 100.000 98.700 0.007 12.78 12.940 13.080 13.060 12.75 12.890 13.010 12.960 12.780 12.850 12.750 12.770 14.743 14.743 0.000 14.986 14.791 0.195
PRIMET_226 2016-09-28 20:20:00 226 156.7 0.00 179 0.007 0.007 215.000 0.040 12.830 12.860 0.000 0.212 12.83 12.970 13.110 13.080 100.000 98.600 0.007 12.88 13.000 13.150 13.110 12.77 12.930 13.070 13.030 12.880 12.890 12.770 12.820 14.811 14.811 0.000 15.055 14.840 0.211
PRIMET_226 2016-09-28 20:15:00 226 156.7 0.00 195 0.007 0.007 215.000 0.028 12.940 12.910 0.000 0.242 12.94 13.040 13.180 13.150 100.000 98.400 0.007 13.00 13.100 13.210 13.190 12.89 13.000 13.150 13.120 13.000 12.930 12.890 12.890 14.918 14.918 0.000 15.124 14.889 0.242
PRIMET_226 2016-09-28 20:10:00 226 156.7 0.00 196 0.007 0.007 215.000 0.040 13.020 12.960 0.000 0.262 13.02 13.150 13.270 13.230 100.000 98.300 0.007 13.04 13.200 13.300 13.260 13.00 13.100 13.210 13.200 13.040 12.980 13.000 12.940 14.996 14.996 0.000 15.203 14.937 0.258
PRIMET_226 2016-09-28 20:05:00 226 156.7 0.00 174 0.007 0.007 215.000 0.028 13.040 12.990 0.000 0.297 13.04 13.200 13.320 13.290 100.000 98.100 0.007 13.05 13.230 13.340 13.330 13.02 13.190 13.300 13.260 13.050 13.010 13.020 12.960 15.016 15.016 0.000 15.263 14.967 0.290
PRIMET_226 2016-09-28 20:00:00 226 156.7 0.00 190 0.007 0.007 215.000 0.040 13.040 13.020 0.015 0.331 13.05 13.230 13.370 13.360 99.900 97.800 0.007 13.11 13.250 13.380 13.390 13.02 13.220 13.350 13.320 13.100 13.040 13.000 13.010 15.025 15.016 0.015 15.333 14.996 0.337
PRIMET_226 2016-09-28 19:55:00 226 156.7 0.00 197 0.007 0.007 215.000 0.028 13.080 13.030 0.037 0.380 13.12 13.270 13.400 13.410 99.800 97.500 0.007 13.14 13.280 13.420 13.460 13.11 13.250 13.380 13.390 13.110 13.060 13.050 13.010 15.094 15.055 0.030 15.383 15.006 0.385
PRIMET_226 2016-09-28 19:50:00 226 156.7 0.00 195 0.007 0.007 215.000 0.040 13.160 13.110 0.061 0.401 13.22 13.380 13.520 13.510 99.600 97.400 0.007 13.29 13.440 13.590 13.560 13.14 13.280 13.420 13.460 13.240 13.150 13.080 13.060 15.193 15.134 0.061 15.483 15.085 0.403
PRIMET_226 2016-09-28 19:45:00 226 156.7 0.00 179 0.007 0.007 215.000 0.040 13.250 13.180 0.068 0.424 13.32 13.460 13.610 13.600 99.600 97.300 0.007 13.35 13.470 13.650 13.640 13.29 13.440 13.590 13.550 13.280 13.200 13.220 13.140 15.293 15.223 0.061 15.574 15.154 0.421
PRIMET_226 2016-09-28 19:40:00 226 156.7 0.00 173 0.007 0.007 215.000 0.000 13.310 13.210 0.082 0.463 13.39 13.550 13.690 13.670 99.500 97.000 0.007 13.43 13.590 13.730 13.710 13.35 13.460 13.660 13.620 13.320 13.230 13.280 13.180 15.363 15.283 0.077 15.646 15.183 0.469
PRIMET_226 2016-09-28 19:35:00 226 156.7 0.00 178 0.007 0.007 215.000 0.040 13.410 13.270 0.102 0.497 13.51 13.650 13.790 13.760 99.300 96.800 0.007 13.58 13.740 13.870 13.820 13.42 13.600 13.720 13.710 13.510 13.320 13.320 13.230 15.483 15.383 0.108 15.737 15.243 0.504
PRIMET_226 2016-09-28 19:30:00 226 156.7 0.00 183 0.007 0.007 214.900 0.063 13.530 13.330 0.078 0.526 13.61 13.780 13.900 13.850 99.500 96.700 0.007 13.63 13.800 13.920 13.900 13.59 13.750 13.880 13.810 13.560 13.360 13.520 13.320 15.585 15.504 0.078 15.830 15.303 0.522
PRIMET_226 2016-09-28 19:25:00 226 156.7 0.00 196 0.007 0.007 215.200 0.170 13.530 13.400 0.116 0.567 13.64 13.810 13.960 13.950 99.300 96.400 0.007 13.69 13.840 14.000 14.000 13.61 13.790 13.920 13.910 13.560 13.430 13.490 13.360 15.615 15.504 0.109 15.933 15.373 0.574
PRIMET_226 2016-09-28 19:20:00 226 156.7 0.00 173 0.007 0.007 215.300 0.040 13.610 13.450 0.124 0.600 13.73 13.920 14.060 14.040 99.200 96.300 0.007 13.78 13.960 14.090 14.080 13.69 13.850 14.000 13.990 13.660 13.480 13.570 13.420 15.707 15.585 0.126 16.026 15.423 0.593
PRIMET_226 2016-09-28 19:15:00 226 156.7 0.00 195 0.007 0.007 215.300 0.040 13.740 13.490 0.104 0.651 13.84 14.010 14.130 14.130 99.300 96.000 0.007 13.87 14.040 14.170 14.180 13.78 13.970 14.100 14.080 13.780 13.530 13.660 13.460 15.819 15.717 0.111 16.120 15.463 0.645
PRIMET_226 2016-09-28 19:10:00 226 156.7 0.00 195 0.007 0.007 215.300 0.048 13.780 13.550 0.107 0.698 13.88 14.090 14.220 14.220 99.300 95.700 0.007 13.89 14.120 14.270 14.270 13.86 14.040 14.180 14.180 13.800 13.570 13.760 13.520 15.861 15.758 0.111 16.214 15.524 0.697
PRIMET_226 2016-09-28 19:05:00 226 156.7 0.00 182 0.007 0.007 215.300 0.040 13.760 13.600 0.144 0.748 13.90 14.150 14.310 14.320 99.100 95.400 0.007 13.91 14.180 14.340 14.360 13.88 14.110 14.270 14.270 13.770 13.620 13.740 13.570 15.881 15.737 0.143 16.320 15.574 0.751
PRIMET_226 2016-09-28 19:00:00 226 156.7 0.00 191 0.007 0.007 215.300 0.040 13.770 13.650 0.198 0.801 13.96 14.200 14.380 14.420 98.800 95.100 0.007 14.03 14.260 14.410 14.470 13.91 14.160 14.330 14.370 13.820 13.680 13.720 13.620 15.943 15.748 0.191 16.426 15.625 0.805
PRIMET_226 2016-09-28 18:55:00 226 156.7 0.00 179 0.007 0.007 215.300 0.000 13.850 13.710 0.226 0.855 14.07 14.330 14.480 14.530 98.600 94.800 0.007 14.11 14.370 14.520 14.580 14.04 14.270 14.420 14.470 13.880 13.740 13.830 13.670 16.057 15.830 0.225 16.543 15.686 0.860
PRIMET_226 2016-09-28 18:50:00 226 156.7 0.00 178 0.007 0.007 215.300 0.028 13.930 13.790 0.281 0.895 14.20 14.420 14.590 14.640 98.300 94.600 0.007 14.27 14.490 14.660 14.700 14.12 14.370 14.530 14.590 14.000 13.830 13.860 13.740 16.193 15.912 0.275 16.661 15.768 0.900
PRIMET_226 2016-09-28 18:45:00 226 156.7 0.00 196 0.007 0.007 215.300 0.040 14.040 13.850 0.291 0.948 14.32 14.530 14.700 14.750 98.200 94.300 0.007 14.38 14.590 14.740 14.800 14.27 14.490 14.660 14.690 14.110 13.890 14.000 13.810 16.320 16.026 0.294 16.779 15.830 0.956
PRIMET_226 2016-09-28 18:40:00 226 156.7 0.00 192 0.007 0.007 215.300 0.040 14.130 13.930 0.292 0.997 14.41 14.640 14.800 14.870 98.200 94.100 0.007 14.45 14.670 14.860 14.930 14.39 14.590 14.760 14.810 14.150 13.970 14.120 13.890 16.415 16.120 0.295 16.910 15.912 0.998
PRIMET_226 2016-09-28 18:35:00 226 156.7 0.00 191 0.007 0.007 215.300 0.028 14.200 14.020 0.326 1.044 14.51 14.720 14.900 15.000 98.000 93.900 0.007 14.57 14.790 14.960 15.060 14.46 14.670 14.850 14.940 14.250 14.060 14.160 13.970 16.521 16.193 0.330 17.052 16.005 1.040
PRIMET_226 2016-09-28 18:30:00 226 156.7 0.00 196 0.007 0.007 215.300 0.028 14.310 14.110 0.344 1.088 14.63 14.870 15.050 15.120 97.900 93.700 0.007 14.67 14.930 15.110 15.190 14.58 14.790 14.980 15.070 14.340 14.160 14.260 14.070 16.650 16.309 0.350 17.184 16.099 1.083
PRIMET_226 2016-09-28 18:25:00 226 156.7 0.00 182 0.007 0.007 215.300 0.028 14.370 14.180 0.379 1.159 14.73 14.970 15.160 15.260 97.700 93.300 0.007 14.78 14.990 15.200 15.320 14.68 14.930 15.120 15.200 14.410 14.210 14.350 14.160 16.758 16.372 0.385 17.339 16.172 1.162
PRIMET_226 2016-09-28 18:20:00 226 156.7 0.00 196 0.007 0.007 215.300 0.028 14.430 14.230 0.420 1.244 14.82 15.070 15.270 15.380 97.500 92.900 0.007 14.86 15.120 15.330 15.440 14.79 15.010 15.210 15.330 14.440 14.250 14.410 14.210 16.855 16.436 0.421 17.474 16.225 1.241
PRIMET_226 2016-09-28 18:15:00 226 156.7 0.00 192 0.007 0.007 215.300 0.040 14.480 14.290 0.501 1.346 14.94 15.220 15.400 15.520 97.100 92.400 0.007 15.00 15.270 15.450 15.600 14.87 15.130 15.340 15.450 14.510 14.320 14.450 14.250 16.986 16.489 0.493 17.631 16.288 1.340
PRIMET_226 2016-09-28 18:10:00 226 156.7 0.00 182 0.007 0.007 215.300 0.028 14.530 14.340 0.588 1.447 15.08 15.340 15.520 15.660 96.600 91.900 0.007 15.17 15.400 15.590 15.720 15.00 15.270 15.450 15.600 14.550 14.370 14.510 14.310 17.140 16.543 0.583 17.790 16.341 1.441
PRIMET_226 2016-09-28 18:05:00 226 156.7 0.00 195 0.007 0.007 215.300 0.040 14.610 14.360 0.666 1.575 15.22 15.430 15.610 15.790 96.200 91.200 0.007 15.26 15.460 15.630 15.860 15.17 15.400 15.590 15.720 14.640 14.380 14.550 14.340 17.295 16.628 0.657 17.939 16.362 1.579
PRIMET_226 2016-09-28 18:00:00 226 156.7 0.00 187 0.007 0.007 215.300 0.028 14.650 14.380 0.748 1.717 15.33 15.540 15.710 15.930 95.700 90.500 0.007 15.42 15.620 15.780 16.000 15.26 15.460 15.630 15.860 14.700 14.430 14.620 14.340 17.418 16.671 0.749 18.100 16.383 1.719
PRIMET_226 2016-09-28 17:55:00 226 156.7 0.00 195 0.007 0.007 215.300 0.040 14.720 14.430 0.830 1.825 15.47 15.690 15.850 16.060 95.300 90.000 0.007 15.54 15.740 15.910 16.130 15.42 15.630 15.790 15.990 14.750 14.440 14.700 14.400 17.575 16.747 0.826 18.251 16.436 1.825
PRIMET_226 2016-09-28 17:50:00 226 156.7 0.00 173 0.007 0.007 215.300 0.040 14.760 14.470 0.939 1.910 15.61 15.810 16.000 16.180 94.700 89.600 0.007 15.67 15.880 16.060 16.230 15.54 15.740 15.920 16.120 14.810 14.480 14.720 14.440 17.733 16.790 0.940 18.391 16.479 1.913
PRIMET_226 2016-09-28 17:45:00 226 156.7 0.00 196 0.007 0.007 215.300 0.028 14.840 14.490 0.998 2.030 15.73 15.950 16.120 16.290 94.400 89.000 0.007 15.82 16.010 16.180 16.390 15.68 15.880 16.070 16.220 14.860 14.510 14.810 14.470 17.870 16.877 1.001 18.521 16.500 2.037
PRIMET_226 2016-09-28 17:40:00 226 156.7 0.00 187 0.007 0.007 215.400 0.040 14.860 14.530 1.133 2.159 15.88 16.080 16.260 16.440 93.700 88.500 0.007 15.92 16.140 16.340 16.500 15.81 16.020 16.190 16.380 14.900 14.570 14.840 14.490 18.042 16.899 1.137 18.698 16.543 2.150
PRIMET_226 2016-09-28 17:35:00 226 156.7 0.00 195 0.007 0.007 213.700 0.131 14.900 14.570 1.263 2.300 16.02 16.210 16.400 16.600 93.100 87.800 0.007 16.10 16.270 16.480 16.670 15.94 16.140 16.340 16.510 14.910 14.590 14.880 14.550 18.204 16.942 1.256 18.890 16.586 2.305
PRIMET_226 2016-09-28 17:30:00 226 156.7 0.00 196 0.007 0.007 213.700 0.056 14.960 14.590 1.379 2.473 16.17 16.360 16.560 16.750 92.500 87.000 0.007 16.25 16.450 16.660 16.840 16.10 16.290 16.490 16.660 15.020 14.610 14.900 14.550 18.379 17.008 1.378 19.071 16.607 2.479
PRIMET_226 2016-09-28 17:25:00 226 156.7 0.00 184 0.013 0.013 213.700 0.069 15.060 14.630 1.450 2.650 16.33 16.540 16.750 16.930 92.200 86.300 0.124 16.42 16.630 16.850 17.030 16.25 16.460 16.650 16.840 15.080 14.660 15.020 14.600 18.568 17.118 1.448 19.290 16.650 2.643
PRIMET_226 2016-09-28 17:20:00 226 156.7 0.00 195 0.072 0.072 213.700 0.056 15.100 14.680 1.626 2.852 16.51 16.740 16.960 17.150 91.300 85.400 0.314 16.61 16.820 17.060 17.250 16.41 16.640 16.860 17.040 15.140 14.720 15.030 14.650 18.782 17.162 1.634 19.560 16.704 2.856
PRIMET_226 2016-09-28 17:15:00 226 156.7 0.00 182 0.007 0.007 213.800 0.056 15.210 14.750 1.756 3.020 16.73 16.930 17.150 17.340 90.800 84.700 0.007 16.85 17.030 17.230 17.430 16.61 16.840 17.070 17.250 15.320 14.810 15.140 14.710 19.046 17.284 1.752 19.797 16.779 3.029
PRIMET_226 2016-09-28 17:10:00 226 156.7 0.00 192 0.007 0.007 213.800 0.063 15.400 14.840 1.833 3.180 16.96 17.150 17.360 17.550 90.500 84.100 0.007 17.07 17.260 17.480 17.670 16.87 17.050 17.240 17.450 15.460 14.940 15.350 14.770 19.326 17.496 1.836 20.061 16.877 3.190
PRIMET_226 2016-09-28 17:05:00 226 156.7 0.00 195 0.007 0.007 213.900 0.063 15.570 15.020 1.950 3.326 17.21 17.400 17.600 17.820 90.100 83.700 0.007 17.29 17.510 17.720 17.920 17.08 17.250 17.490 17.700 15.630 15.060 15.450 14.990 19.635 17.688 1.944 20.405 17.074 3.326
PRIMET_226 2016-09-28 17:00:00 226 156.7 0.00 191 0.007 0.007 214.800 0.832 15.540 15.010 2.279 3.691 17.45 17.620 17.840 18.090 88.600 82.200 0.007 17.59 17.760 17.990 18.240 17.30 17.500 17.720 17.940 15.670 15.110 15.460 14.920 19.935 17.654 2.273 20.755 17.063 3.694
PRIMET_226 2016-09-28 16:55:00 226 156.7 0.00 191 0.007 0.007 215.600 0.172 15.670 15.000 2.542 4.155 17.77 17.950 18.170 18.430 87.500 80.400 0.007 17.89 18.130 18.350 18.560 17.61 17.770 18.000 18.250 15.790 15.160 15.380 14.710 20.341 17.801 2.543 21.202 17.052 4.156
PRIMET_226 2016-09-28 16:50:00 226 156.7 0.00 195 0.167 0.084 208.600 57.040 15.120 14.540 3.461 5.036 18.01 18.240 18.480 18.720 83.200 76.680 0.653 18.16 18.400 18.650 18.880 17.90 18.140 18.360 18.560 15.340 14.830 14.920 14.210 20.651 17.184 3.469 21.591 16.553 5.035
PRIMET_226 2016-09-28 16:45:00 226 156.7 0.00 187 0.133 0.111 312.400 32.720 15.000 14.260 3.986 5.767 18.30 18.540 18.790 19.040 81.100 73.820 0.954 18.41 18.680 18.920 19.120 18.16 18.400 18.660 18.900 15.110 14.430 14.750 13.900 21.030 17.052 3.975 22.026 16.256 5.767
PRIMET_226 2016-09-28 16:40:00 226 156.7 0.00 192 0.040 0.033 264.200 33.110 15.020 14.280 4.330 6.068 18.58 18.790 19.010 19.270 79.770 72.850 0.170 18.70 18.950 19.160 19.390 18.42 18.620 18.860 19.110 15.200 14.450 14.720 14.010 21.402 17.074 4.330 22.344 16.277 6.067
PRIMET_226 2016-09-28 16:35:00 226 156.7 0.00 187 0.085 0.082 292.100 13.830 14.790 14.050 4.891 6.721 18.81 19.050 19.290 19.560 77.480 70.470 0.457 18.97 19.190 19.430 19.700 18.68 18.960 19.170 19.410 15.030 14.360 14.620 13.570 21.713 16.823 4.890 22.751 16.037 6.718
PRIMET_226 2016-09-28 16:30:00 226 156.7 0.00 187 0.287 0.171 238.800 51.480 14.660 13.650 5.511 7.512 19.17 19.360 19.590 19.830 75.180 67.530 0.732 19.28 19.520 19.730 19.930 18.98 19.160 19.410 19.700 15.030 14.040 13.550 12.860 22.206 16.682 5.511 23.135 15.625 7.512
PRIMET_226 2016-09-28 16:25:00 226 156.7 0.00 184 0.205 0.175 249.600 31.140 14.620 13.720 6.019 7.901 19.50 19.700 19.930 20.150 73.440 66.530 0.555 19.63 19.910 20.140 20.280 19.30 19.440 19.670 19.930 14.910 14.000 14.100 13.120 22.666 16.639 6.020 23.598 15.697 7.898
PRIMET_226 2016-09-28 16:20:00 226 156.7 0.00 197 0.530 0.399 239.400 40.340 14.420 13.460 6.228 8.190 19.50 19.800 20.040 20.170 72.540 65.350 2.189 19.68 20.000 20.220 20.280 19.31 19.530 19.750 20.010 15.120 14.160 13.010 12.530 22.666 16.426 6.224 23.627 15.433 8.187
PRIMET_226 2016-09-28 16:15:00 226 156.7 0.00 188 0.420 0.308 271.200 41.810 14.510 13.500 6.073 8.240 19.45 19.750 20.020 20.230 73.130 65.260 1.535 19.51 19.830 20.100 20.280 19.40 19.640 19.900 20.170 15.130 13.930 13.690 12.800 22.596 16.521 6.072 23.715 15.473 8.239
PRIMET_226 2016-09-28 16:10:00 226 156.7 0.00 187 0.266 0.221 257.100 33.050 14.680 13.520 6.114 8.300 19.61 19.850 20.090 20.280 73.210 65.110 0.647 19.68 19.980 20.240 20.360 19.53 19.750 20.000 20.230 15.250 13.980 13.610 12.730 22.822 16.704 6.114 23.789 15.494 8.300
PRIMET_226 2016-09-28 16:05:00 226 156.7 0.00 196 0.268 0.234 312.300 28.990 14.630 13.640 6.498 8.400 19.84 20.060 20.260 20.440 71.940 65.030 0.980 19.99 20.180 20.360 20.610 19.70 19.860 20.080 20.330 15.010 14.070 14.330 13.170 23.150 16.650 6.496 24.025 15.615 8.401
PRIMET_226 2016-09-28 16:00:00 226 156.7 0.00 192 0.485 0.397 272.200 34.380 14.820 13.660 6.666 8.780 20.10 20.320 20.520 20.710 71.660 64.060 0.941 20.36 20.620 20.780 20.930 19.94 20.100 20.340 20.580 15.240 14.170 13.320 12.410 23.525 16.855 6.667 24.428 15.635 8.779
PRIMET_226 2016-09-28 15:55:00 226 156.7 0.00 192 0.739 0.613 271.000 33.510 14.290 13.330 7.219 9.110 20.10 20.420 20.620 20.700 69.310 62.710 1.842 20.38 20.760 20.920 20.930 19.84 20.140 20.360 20.490 15.170 14.040 13.280 12.760 23.525 16.288 7.220 24.413 15.303 9.103
PRIMET_226 2016-09-28 15:50:00 226 156.7 0.00 198 0.403 0.305 250.700 40.090 14.930 14.000 6.158 8.290 19.83 20.070 20.330 20.610 73.390 65.850 0.699 19.92 20.160 20.460 20.820 19.76 19.970 20.200 20.460 15.300 14.320 13.760 13.440 23.135 16.975 6.156 24.278 15.985 8.291
PRIMET_226 2016-09-28 15:45:00 226 156.7 0.00 197 0.400 0.318 266.500 36.710 14.920 13.650 6.437 9.120 20.02 20.270 20.600 20.920 72.490 63.140 1.026 20.13 20.420 20.750 21.020 19.93 20.170 20.490 20.840 15.340 14.220 14.280 13.130 23.409 16.964 6.440 24.745 15.625 9.121
PRIMET_226 2016-09-28 15:40:00 226 156.7 0.00 187 0.506 0.382 259.100 40.070 14.790 13.640 6.944 9.530 20.26 20.480 20.800 21.180 70.780 62.100 1.137 20.48 20.670 21.060 21.390 20.12 20.370 20.670 21.010 15.190 13.970 14.410 13.210 23.759 16.823 6.942 25.143 15.615 9.529
PRIMET_226 2016-09-28 15:35:00 226 156.7 0.00 187 0.352 0.312 256.900 27.440 15.030 14.010 7.378 9.930 20.73 20.860 21.180 21.680 69.840 61.720 1.058 21.03 21.090 21.430 22.040 20.51 20.630 20.910 21.420 15.410 14.480 14.660 13.270 24.458 17.085 7.376 25.925 15.995 9.924
PRIMET_226 2016-09-28 15:30:00 226 156.7 0.00 195 1.084 0.932 240.800 30.320 14.580 13.590 8.900 11.690 21.42 21.650 22.110 22.510 65.140 57.150 1.829 21.70 22.150 22.630 22.790 21.07 21.130 21.470 22.100 15.460 14.550 13.060 12.610 25.516 16.596 8.895 27.269 15.564 11.685
PRIMET_226 2016-09-28 15:25:00 226 156.7 0.00 191 0.426 0.241 210.900 53.410 14.790 13.650 9.480 12.360 21.92 22.420 22.930 22.940 63.970 55.840 1.392 22.15 22.790 23.230 23.090 21.58 21.870 22.490 22.720 15.540 14.310 13.370 12.760 26.308 16.823 9.479 27.989 15.625 12.360
PRIMET_226 2016-09-28 15:20:00 226 156.7 0.00 195 0.672 0.638 243.900 18.310 14.800 13.810 10.440 12.470 22.52 22.950 23.100 23.100 61.740 55.880 1.953 22.67 23.230 23.310 23.170 22.20 22.650 22.960 23.020 15.640 14.540 13.620 12.940 27.286 16.834 10.440 28.261 15.789 12.469
PRIMET_226 2016-09-28 15:15:00 226 156.7 0.00 208 0.726 0.604 240.000 33.180 14.590 13.570 10.860 12.670 22.63 22.960 23.060 23.080 60.480 55.090 1.352 22.92 23.170 23.260 23.230 22.48 22.680 22.800 22.940 15.610 14.360 13.270 12.780 27.468 16.607 10.856 28.227 15.544 12.677
PRIMET_226 2016-09-28 15:10:00 226 156.7 0.00 200 0.890 0.683 245.600 39.070 14.310 13.510 11.900 13.210 23.08 23.400 23.450 23.360 57.830 53.960 1.810 23.23 23.580 23.610 23.450 22.94 23.210 23.260 23.290 15.370 14.530 13.340 12.850 28.227 16.309 11.903 28.708 15.483 13.217
PRIMET_226 2016-09-28 15:05:00 226 156.7 0.00 198 1.133 0.739 246.300 47.780 14.320 13.410 12.010 13.300 23.15 23.370 23.390 23.350 57.640 53.630 2.287 23.34 23.560 23.520 23.430 22.93 23.160 23.180 23.240 15.430 14.630 13.300 12.870 28.347 16.320 12.008 28.691 15.383 13.304
PRIMET_226 2016-09-28 15:00:00 226 156.7 0.00 196 1.169 0.991 233.300 31.610 14.730 13.970 11.750 12.800 23.25 23.400 23.380 23.390 58.800 55.490 2.058 23.57 23.860 23.760 23.610 23.00 23.020 23.000 23.150 15.760 15.140 13.540 13.070 28.519 16.758 11.750 28.760 15.954 12.801
PRIMET_226 2016-09-28 14:55:00 226 156.7 0.00 202 1.063 0.622 250.700 52.180 14.260 13.520 12.420 13.230 23.35 23.450 23.420 23.370 56.710 53.960 2.339 23.46 23.830 23.750 23.490 23.21 23.250 23.230 23.310 15.560 14.820 13.410 12.970 28.691 16.256 12.420 28.726 15.494 13.225
PRIMET_226 2016-09-28 14:50:00 226 156.7 0.00 196 0.462 0.348 236.400 40.250 15.180 14.230 11.660 12.670 23.48 23.440 23.400 23.480 59.680 56.160 0.823 23.54 23.570 23.520 23.610 23.43 23.310 23.260 23.380 15.970 15.090 13.940 13.360 28.917 17.250 11.659 28.917 16.225 12.677
PRIMET_226 2016-09-28 14:45:00 226 156.7 0.00 202 1.305 1.136 240.000 29.180 14.690 13.840 12.570 13.490 23.70 23.780 23.700 23.710 57.110 54.000 2.058 23.93 24.100 24.040 23.890 23.51 23.520 23.500 23.550 15.890 14.900 13.550 13.080 29.302 16.715 12.568 29.320 15.819 13.487
PRIMET_226 2016-09-28 14:40:00 226 156.7 0.00 208 0.837 0.681 238.800 34.980 15.010 13.990 12.720 13.620 23.98 24.000 23.980 23.870 57.330 54.000 2.359 24.18 24.250 24.230 23.990 23.81 23.730 23.720 23.770 16.200 15.110 13.690 13.220 29.800 17.063 12.716 29.603 15.974 13.618
PRIMET_226 2016-09-28 14:35:00 226 156.7 0.00 202 1.016 0.762 246.000 40.470 14.940 14.030 13.080 13.560 24.14 24.150 24.010 23.860 56.510 54.180 2.228 24.26 24.360 24.150 23.950 24.03 23.910 23.810 23.770 16.170 14.980 13.670 13.310 30.087 16.986 13.085 29.586 16.016 13.556
PRIMET_226 2016-09-28 14:30:00 226 156.7 0.00 198 1.301 1.168 229.500 25.880 14.960 14.010 13.050 13.410 24.14 23.860 23.790 23.770 56.620 54.410 2.019 24.23 24.140 24.000 23.860 24.06 23.690 23.590 23.650 16.180 15.360 13.790 13.350 30.087 17.008 13.052 29.426 15.995 13.415
PRIMET_226 2016-09-28 14:25:00 226 156.7 0.00 203 0.931 0.817 226.900 28.330 15.020 14.310 12.710 13.230 23.98 23.950 23.910 23.840 57.360 55.220 2.038 24.08 24.120 24.080 23.870 23.91 23.820 23.790 23.800 16.220 15.370 13.860 13.400 29.800 17.074 12.707 29.550 16.309 13.233
PRIMET_226 2016-09-28 14:20:00 226 156.7 0.00 196 1.017 0.623 231.400 50.400 14.810 13.950 12.960 13.750 23.99 24.010 23.960 23.920 56.550 53.690 2.195 24.09 24.220 24.150 24.030 23.89 23.780 23.770 23.830 16.080 15.070 13.710 13.260 29.818 16.844 12.956 29.693 15.933 13.751
PRIMET_226 2016-09-28 14:15:00 226 156.7 0.00 194 1.311 1.138 225.900 29.360 14.410 13.810 13.620 13.880 24.12 24.130 24.020 23.910 54.690 53.230 2.136 24.19 24.270 24.190 24.010 24.05 23.980 23.870 23.800 16.480 15.100 13.780 13.300 30.051 16.415 13.616 29.675 15.789 13.879
PRIMET_226 2016-09-28 14:10:00 226 156.7 0.00 197 1.179 0.847 225.100 42.990 14.660 13.920 13.270 13.610 24.08 23.940 23.840 23.820 55.730 53.890 2.437 24.16 24.150 24.020 23.890 24.01 23.760 23.680 23.780 16.760 15.500 13.790 13.410 29.979 16.682 13.272 29.515 15.902 13.609
PRIMET_226 2016-09-28 14:05:00 226 156.7 0.00 194 1.097 0.882 256.800 35.900 15.040 14.090 13.340 13.780 24.34 24.240 24.080 24.020 56.220 53.860 2.751 24.49 24.550 24.360 24.170 24.12 23.900 23.790 23.870 16.790 15.500 13.920 13.630 30.450 17.096 13.331 29.871 16.078 13.783
PRIMET_226 2016-09-28 14:00:00 226 156.7 0.00 205 0.879 0.728 236.700 33.640 15.060 14.310 13.500 13.670 24.44 24.420 24.260 24.090 55.940 54.430 1.934 24.51 24.580 24.440 24.140 24.33 24.290 24.140 24.020 16.520 15.770 13.860 13.500 30.632 17.118 13.497 29.997 16.309 13.670
PRIMET_226 2016-09-28 13:55:00 226 156.7 0.00 224 0.944 0.730 225.400 38.530 15.260 14.450 13.100 13.300 24.34 24.410 24.200 23.970 56.990 55.330 2.267 24.50 24.570 24.360 24.100 24.23 24.280 24.060 23.870 16.720 15.740 14.100 13.630 30.450 17.339 13.096 29.782 16.457 13.304
PRIMET_226 2016-09-28 13:50:00 226 156.7 0.00 188 0.947 0.705 228.000 40.910 14.710 14.030 13.020 13.510 23.96 24.040 23.920 23.830 56.260 54.260 3.273 24.19 24.270 24.110 23.950 23.77 23.750 23.680 23.720 16.010 15.050 13.850 13.450 29.764 16.736 13.019 29.532 16.016 13.508
PRIMET_226 2016-09-28 13:45:00 226 156.7 0.00 194 1.110 0.894 219.900 35.710 14.650 14.110 13.150 13.380 24.00 24.060 23.930 23.800 55.930 54.610 1.967 24.16 24.270 24.130 23.910 23.88 23.880 23.770 23.710 16.220 15.540 13.920 13.620 29.835 16.671 13.148 29.479 16.099 13.381
PRIMET_226 2016-09-28 13:40:00 226 156.7 0.00 235 1.074 0.836 244.000 38.170 14.880 14.240 12.530 13.000 23.80 23.850 23.730 23.670 57.480 55.550 2.006 23.93 24.060 23.950 23.800 23.72 23.730 23.620 23.570 16.340 15.590 14.020 13.580 29.479 16.921 12.535 29.250 16.235 13.001
PRIMET_226 2016-09-28 13:35:00 226 156.7 0.00 195 0.821 0.702 227.800 30.800 15.080 14.510 12.170 12.450 23.71 23.760 23.620 23.510 58.510 57.060 2.901 23.89 23.920 23.750 23.650 23.41 23.440 23.340 23.210 16.400 15.550 13.990 13.630 29.320 17.140 12.165 28.969 16.521 12.439
PRIMET_226 2016-09-28 13:30:00 226 156.7 0.00 213 1.330 0.923 242.400 44.800 14.400 13.800 12.470 12.620 23.46 23.430 23.290 23.180 56.820 55.560 2.940 23.56 23.630 23.420 23.310 23.38 23.250 23.160 23.070 15.710 14.400 13.970 13.570 28.882 16.404 12.471 28.398 15.778 12.620
PRIMET_226 2016-09-28 13:25:00 226 156.7 0.00 202 1.213 0.944 213.600 38.160 14.910 14.240 12.190 12.390 23.62 23.580 23.390 23.320 58.180 56.720 2.888 23.80 23.840 23.660 23.490 23.44 23.320 23.160 23.100 16.490 15.570 14.040 13.580 29.162 16.953 12.195 28.639 16.235 12.395
PRIMET_226 2016-09-28 13:20:00 226 156.7 0.00 187 1.028 0.898 224.600 28.750 15.070 14.450 12.170 12.230 23.71 23.630 23.470 23.350 58.490 57.380 2.091 23.81 23.750 23.630 23.440 23.61 23.510 23.320 23.300 16.300 15.520 14.050 13.710 29.320 17.129 12.171 28.691 16.457 12.228
PRIMET_226 2016-09-28 13:15:00 226 156.7 0.00 209 0.648 0.517 265.800 36.340 15.340 14.440 11.470 11.890 23.48 23.410 23.280 23.150 60.320 58.050 1.516 23.62 23.620 23.480 23.260 23.34 23.240 23.160 23.020 16.310 15.620 14.230 13.830 28.917 17.429 11.474 28.347 16.447 11.891
PRIMET_226 2016-09-28 13:10:00 226 156.7 0.00 192 1.303 0.768 230.400 51.930 14.660 14.040 12.030 11.840 23.36 23.270 23.040 22.860 58.100 57.520 2.065 23.45 23.400 23.170 22.990 23.26 23.180 22.910 22.730 15.690 14.410 14.210 13.710 28.708 16.682 12.029 27.854 16.026 11.832
PRIMET_226 2016-09-28 13:05:00 226 156.7 0.00 201 1.313 1.107 210.300 32.120 14.790 14.100 11.550 11.580 23.18 23.030 22.800 22.750 59.330 58.140 1.986 23.30 23.180 22.950 22.830 23.08 22.960 22.700 22.680 16.910 14.940 14.060 13.710 28.398 16.823 11.550 27.669 16.089 11.582
PRIMET_226 2016-09-28 13:00:00 226 156.7 0.00 203 0.857 0.714 223.200 33.120 14.340 13.880 11.610 11.650 22.92 22.880 22.740 22.660 58.470 57.660 1.398 23.06 23.080 22.910 22.770 22.81 22.760 22.600 22.510 15.190 14.310 13.920 13.630 27.955 16.341 11.610 27.518 15.861 11.651
PRIMET_226 2016-09-28 12:55:00 226 156.7 0.00 195 1.306 1.177 230.200 25.500 14.600 14.010 11.160 11.490 22.82 22.780 22.640 22.640 59.830 58.200 2.345 23.00 22.990 22.890 22.810 22.64 22.460 22.330 22.490 15.620 14.990 14.010 13.690 27.787 16.618 11.162 27.485 15.995 11.489
PRIMET_226 2016-09-28 12:50:00 226 156.7 0.00 209 0.707 0.479 220.900 45.990 14.830 14.180 11.310 11.390 23.05 23.120 22.970 22.690 59.880 58.690 1.450 23.15 23.240 23.080 22.820 22.86 22.940 22.760 22.450 15.900 15.170 14.150 13.700 28.176 16.866 11.304 27.569 16.172 11.389
PRIMET_226 2016-09-28 12:45:00 226 156.7 0.00 192 0.822 0.699 222.300 31.270 14.390 13.810 11.680 11.330 22.99 22.870 22.660 22.420 58.400 58.210 2.254 23.18 23.050 22.850 22.560 22.78 22.600 22.420 22.310 15.370 14.720 13.980 13.450 28.074 16.394 11.679 27.121 15.789 11.334
PRIMET_226 2016-09-28 12:40:00 226 156.7 0.00 192 1.156 0.895 232.000 38.520 14.770 14.050 10.630 10.880 22.61 22.530 22.360 22.300 61.280 59.600 2.888 22.82 22.760 22.590 22.420 22.45 22.350 22.220 22.190 16.020 15.200 13.880 13.460 27.435 16.801 10.623 26.923 16.037 10.877
PRIMET_226 2016-09-28 12:35:00 226 156.7 0.00 193 1.263 1.108 219.600 28.400 14.670 14.060 11.000 11.040 22.77 22.750 22.560 22.400 60.290 59.230 2.568 22.93 23.000 22.770 22.490 22.52 22.390 22.230 22.230 15.760 14.860 13.790 13.500 27.703 16.693 11.001 27.088 16.047 11.044
PRIMET_226 2016-09-28 12:30:00 226 156.7 0.00 191 0.762 0.681 210.600 26.350 14.680 14.060 10.390 10.440 22.41 22.340 22.120 22.030 61.670 60.600 2.463 22.75 22.840 22.560 22.200 22.16 21.970 21.930 21.960 15.800 15.020 13.800 13.450 27.104 16.704 10.389 26.485 16.047 10.435
PRIMET_226 2016-09-28 12:25:00 226 156.7 0.00 201 0.928 0.749 216.000 35.600 14.750 14.020 10.090 10.540 22.28 22.220 22.160 22.070 62.450 60.300 1.771 22.48 22.410 22.300 22.150 22.06 22.120 22.080 21.970 15.870 15.000 13.960 13.550 26.891 16.779 10.097 26.549 16.005 10.540
PRIMET_226 2016-09-28 12:20:00 226 156.7 0.00 201 1.010 0.636 193.200 49.290 14.220 13.760 10.600 10.600 22.24 22.120 22.040 21.940 60.470 59.750 2.234 22.44 22.330 22.150 21.960 22.05 21.980 21.930 21.910 15.330 14.190 13.720 13.550 26.825 16.214 10.604 26.340 15.737 10.602
PRIMET_226 2016-09-28 12:15:00 226 156.7 0.00 198 1.110 0.924 221.600 33.170 14.320 13.760 10.740 10.670 22.39 22.390 22.210 21.980 60.330 59.610 2.430 22.49 22.470 22.280 22.010 22.27 22.270 22.150 21.940 15.540 14.460 13.730 13.460 27.071 16.320 10.739 26.404 15.737 10.665
PRIMET_226 2016-09-28 12:10:00 226 156.7 0.00 200 0.763 0.669 224.800 28.480 14.420 13.920 10.090 10.150 22.05 22.190 22.030 21.760 61.940 61.060 1.836 22.27 22.440 22.270 21.950 21.95 22.050 21.860 21.670 15.540 14.600 13.950 13.540 26.517 16.426 10.092 26.052 15.902 10.145
PRIMET_226 2016-09-28 12:05:00 226 156.7 0.00 224 0.588 0.446 201.300 39.840 14.650 14.010 9.390 9.580 21.78 21.940 21.800 21.460 63.980 62.530 1.542 22.00 22.150 22.000 21.730 21.58 21.760 21.660 21.290 15.880 14.870 14.040 13.630 26.084 16.671 9.395 25.579 15.995 9.584
PRIMET_226 2016-09-28 12:00:00 226 156.7 0.00 195 0.716 0.628 211.300 28.360 14.650 14.080 8.430 8.720 21.15 21.260 21.160 20.950 66.430 64.810 1.287 21.51 21.790 21.660 21.250 20.83 20.890 20.810 20.760 15.750 14.920 13.740 13.420 25.097 16.671 8.425 24.791 16.068 8.724
PRIMET_226 2016-09-28 11:55:00 226 156.7 0.00 198 1.137 0.867 191.800 39.430 14.300 13.670 8.340 8.680 20.86 20.880 20.810 20.640 66.150 64.340 1.999 21.00 21.060 21.020 20.810 20.73 20.780 20.650 20.470 15.600 14.220 13.730 13.420 24.654 16.298 8.345 24.323 15.646 8.673
PRIMET_226 2016-09-28 11:50:00 226 156.7 0.00 201 1.814 1.660 231.400 23.630 14.220 13.670 8.000 8.430 20.57 20.680 20.610 20.480 66.960 64.980 3.012 20.71 20.880 20.850 20.630 20.41 20.460 20.410 20.410 15.440 14.440 13.640 13.360 24.218 16.214 8.002 24.084 15.646 8.434
PRIMET_226 2016-09-28 11:45:00 226 156.7 0.00 209 0.991 0.743 198.800 40.510 14.560 13.900 7.116 7.700 20.21 20.390 20.320 20.140 70.000 67.370 2.992 20.58 20.860 20.770 20.460 19.94 19.960 19.940 19.890 15.400 14.460 13.720 13.440 23.686 16.575 7.106 23.584 15.881 7.695
PRIMET_226 2016-09-28 11:40:00 226 156.7 0.00 196 0.901 0.542 215.500 51.130 14.640 13.980 6.354 7.084 19.75 19.680 19.680 19.770 72.410 69.260 2.078 19.88 20.080 19.990 19.920 19.67 19.420 19.470 19.680 15.580 14.500 13.740 13.410 23.021 16.661 6.351 23.049 15.964 7.085
PRIMET_226 2016-09-28 11:35:00 226 156.7 0.00 219 0.933 0.747 187.900 36.140 14.860 14.090 6.564 7.317 20.06 19.990 20.050 20.010 72.040 68.720 2.718 20.33 20.340 20.270 20.070 19.84 19.740 19.810 19.940 15.210 14.470 14.250 13.770 23.467 16.899 6.561 23.395 16.078 7.318
PRIMET_226 2016-09-28 11:30:00 226 156.7 0.00 199 0.702 0.510 198.500 42.340 14.570 13.850 6.935 7.135 20.10 20.110 19.970 19.710 70.510 68.920 1.999 20.26 20.430 20.280 19.890 19.82 19.900 19.750 19.490 15.400 14.270 13.700 13.400 23.525 16.586 6.938 22.964 15.830 7.137
PRIMET_226 2016-09-28 11:25:00 226 156.7 0.00 205 1.140 1.050 197.800 22.710 14.050 13.600 6.734 6.852 19.58 19.630 19.500 19.330 70.440 69.440 2.561 19.83 20.000 19.800 19.460 19.32 19.280 19.250 19.210 15.100 14.010 13.760 13.390 22.779 16.037 6.734 22.428 15.574 6.854
PRIMET_226 2016-09-28 11:20:00 226 156.7 0.00 194 1.196 1.053 203.200 28.020 14.380 13.930 5.913 6.180 19.24 19.280 19.230 19.090 73.490 72.030 2.110 19.35 19.480 19.380 19.210 19.09 18.890 18.870 18.890 15.070 14.290 14.060 13.640 22.303 16.383 5.912 22.095 15.912 6.180
PRIMET_226 2016-09-28 11:15:00 226 156.7 0.00 197 1.008 0.847 193.900 32.440 14.640 14.050 5.505 5.859 19.14 19.030 18.980 18.950 75.160 73.250 2.450 19.22 19.280 19.180 19.040 19.06 18.820 18.830 18.890 15.050 14.300 13.880 13.610 22.164 16.661 5.506 21.903 16.037 5.859
PRIMET_226 2016-09-28 11:10:00 226 156.7 0.00 196 0.727 0.643 219.300 27.500 14.570 14.040 5.748 5.993 19.26 19.240 19.140 19.040 74.260 72.780 2.097 19.35 19.400 19.320 19.150 19.19 18.980 18.940 18.940 15.080 14.550 13.980 13.720 22.330 16.586 5.748 22.026 16.026 5.996
PRIMET_226 2016-09-28 11:05:00 226 156.7 0.00 200 0.683 0.581 192.500 31.270 14.490 13.840 5.636 5.885 19.12 19.060 18.960 18.810 74.540 72.890 1.842 19.27 19.340 19.180 18.910 18.97 18.910 18.810 18.720 14.840 14.060 14.120 13.600 22.137 16.500 5.636 21.713 15.819 5.886
PRIMET_226 2016-09-28 11:00:00 226 156.7 0.00 212 0.993 0.931 224.600 20.380 14.260 13.720 5.788 5.730 19.06 19.010 18.810 18.600 73.740 73.250 2.104 19.27 19.240 19.010 18.720 18.89 18.830 18.700 18.540 14.700 14.170 13.790 13.360 22.054 16.256 5.791 21.429 15.697 5.732
PRIMET_226 2016-09-28 10:55:00 226 156.7 0.00 211 0.967 0.840 217.700 29.320 14.130 13.600 5.468 5.553 18.72 18.730 18.620 18.370 74.670 73.720 2.006 18.97 18.970 18.840 18.590 18.46 18.440 18.330 18.190 14.680 13.920 13.770 13.430 21.591 16.120 5.469 21.123 15.574 5.551
PRIMET_226 2016-09-28 10:50:00 226 156.7 0.00 190 1.375 1.191 212.600 29.600 13.980 13.450 5.363 5.447 18.52 18.550 18.410 18.170 74.850 73.900 2.509 18.59 18.720 18.540 18.210 18.43 18.400 18.300 18.130 14.520 13.630 13.640 13.260 21.322 15.964 5.363 20.859 15.423 5.444
PRIMET_226 2016-09-28 10:45:00 226 156.7 0.00 192 1.213 1.155 210.100 17.660 13.830 13.360 5.329 5.419 18.38 18.500 18.370 18.090 74.800 73.880 2.568 18.55 18.740 18.570 18.190 18.30 18.340 18.270 18.020 14.160 13.670 13.600 13.210 21.136 15.809 5.326 20.755 15.333 5.421
PRIMET_226 2016-09-28 10:40:00 226 156.7 0.00 208 1.102 1.038 214.000 19.430 14.060 13.480 4.801 5.208 18.17 18.330 18.300 18.020 76.990 74.800 1.908 18.29 18.460 18.370 18.090 17.92 18.180 18.230 17.890 14.550 13.690 13.720 13.310 20.859 16.047 4.800 20.664 15.453 5.207
PRIMET_226 2016-09-28 10:35:00 226 156.7 0.00 190 0.531 0.501 207.500 19.360 14.070 13.490 4.284 4.874 17.77 17.970 18.030 17.770 78.940 76.030 1.320 17.90 18.120 18.150 17.830 17.70 17.840 17.910 17.700 14.870 13.660 13.620 13.270 20.341 16.057 4.284 20.341 15.463 4.876
PRIMET_226 2016-09-28 10:30:00 226 156.7 0.00 201 0.158 0.149 194.200 19.860 14.220 13.590 3.813 4.395 17.52 17.820 17.860 17.470 81.000 78.000 0.601 17.73 18.030 18.100 17.710 17.13 17.420 17.450 17.060 14.550 13.700 14.040 13.480 20.023 16.214 3.804 19.960 15.564 4.391
PRIMET_226 2016-09-28 10:25:00 226 156.7 0.00 195 0.049 0.049 197.600 2.526 14.160 13.660 3.042 3.398 16.85 17.090 17.110 16.720 84.200 82.200 0.274 17.10 17.410 17.420 16.990 16.74 16.930 16.960 16.570 14.450 13.890 13.630 13.400 19.192 16.151 3.032 19.034 15.635 3.388
PRIMET_226 2016-09-28 10:20:00 226 156.7 0.00 192 0.157 0.155 216.100 9.060 13.580 13.090 3.378 3.631 16.64 16.830 16.860 16.440 82.200 80.600 0.797 16.73 16.970 16.990 16.540 16.59 16.710 16.730 16.370 14.260 13.350 13.360 13.030 18.938 15.554 3.371 18.698 15.065 3.627
PRIMET_226 2016-09-28 10:15:00 226 156.7 0.00 194 0.911 0.877 215.700 15.630 13.650 13.260 3.166 3.309 16.52 16.670 16.690 16.310 83.200 82.200 1.431 16.62 16.770 16.780 16.390 16.46 16.610 16.650 16.240 14.090 13.560 13.330 13.070 18.794 15.625 3.157 18.544 15.233 3.301
PRIMET_226 2016-09-28 10:10:00 226 156.7 0.00 196 0.547 0.533 218.800 12.650 13.540 13.160 3.083 3.161 16.35 16.550 16.560 16.100 83.400 82.700 1.019 16.44 16.630 16.650 16.220 16.27 16.480 16.490 16.010 13.760 13.470 13.380 13.010 18.592 15.514 3.086 18.298 15.134 3.165
PRIMET_226 2016-09-28 10:05:00 226 156.7 0.00 186 0.618 0.587 215.300 18.050 13.550 13.090 2.804 2.996 16.12 16.360 16.380 15.900 84.700 83.400 1.124 16.29 16.510 16.510 16.020 16.00 16.240 16.260 15.800 14.170 13.410 13.220 12.870 18.321 15.524 2.803 18.065 15.065 2.999
PRIMET_226 2016-09-28 10:00:00 226 156.7 0.00 193 0.955 0.924 215.300 14.490 13.280 12.880 2.874 3.039 15.96 16.150 16.170 15.760 84.100 83.000 1.307 16.00 16.250 16.270 15.800 15.94 16.110 16.120 15.730 13.540 12.990 13.180 12.820 18.135 15.253 2.883 17.904 14.859 3.044
PRIMET_226 2016-09-28 09:55:00 226 156.7 0.00 192 0.750 0.728 213.000 14.110 13.250 12.860 2.854 3.029 15.91 16.130 16.160 15.730 84.200 83.100 1.424 15.97 16.160 16.190 15.740 15.87 16.110 16.120 15.710 13.450 12.950 13.150 12.790 18.077 15.223 2.856 17.870 14.840 3.020
PRIMET_226 2016-09-28 09:50:00 226 156.7 0.00 195 0.488 0.432 242.900 27.510 13.270 12.900 2.726 2.861 15.82 16.060 16.110 15.620 84.800 83.900 1.169 15.89 16.110 16.180 15.690 15.73 15.980 16.040 15.530 13.490 13.010 13.120 12.830 17.973 15.243 2.732 17.745 14.879 2.857
PRIMET_226 2016-09-28 09:45:00 226 156.7 0.00 192 0.822 0.772 219.300 19.980 13.200 12.880 2.550 2.656 15.60 15.850 15.890 15.410 85.600 84.800 1.483 15.71 15.960 16.020 15.530 15.54 15.780 15.800 15.340 13.500 12.980 12.960 12.750 17.722 15.173 2.552 17.507 14.859 2.661
PRIMET_226 2016-09-28 09:40:00 226 156.7 0.00 194 0.488 0.389 240.500 36.410 13.270 12.930 2.374 2.454 15.50 15.750 15.770 15.280 86.500 85.900 1.117 15.59 15.830 15.830 15.340 15.45 15.680 15.710 15.230 13.450 13.210 13.050 12.800 17.609 15.243 2.377 17.362 14.908 2.448
PRIMET_226 2016-09-28 09:35:00 226 156.7 0.00 177 0.540 0.412 209.000 39.420 13.330 13.060 2.100 2.116 15.32 15.610 15.620 15.090 87.900 87.700 1.561 15.46 15.730 15.760 15.230 15.17 15.450 15.470 14.950 13.570 13.210 13.170 12.960 17.406 15.303 2.106 17.151 15.035 2.110
PRIMET_226 2016-09-28 09:30:00 226 156.7 0.00 192 0.336 0.303 198.900 25.260 13.140 12.910 1.960 1.918 15.02 15.270 15.290 14.780 88.500 88.600 1.039 15.15 15.440 15.440 14.940 14.88 15.120 15.110 14.620 13.270 12.990 12.990 12.810 17.074 15.114 1.963 16.812 14.889 1.917
PRIMET_226 2016-09-28 09:25:00 226 156.7 0.00 195 0.788 0.749 211.400 17.960 13.000 12.800 1.919 1.830 14.86 15.060 15.050 14.590 88.600 89.000 1.575 14.89 15.100 15.100 14.630 14.84 15.020 15.020 14.560 13.130 12.890 12.910 12.730 16.899 14.976 1.926 16.607 14.782 1.827
PRIMET_226 2016-09-28 09:20:00 226 156.7 0.00 181 0.957 0.874 223.200 23.860 13.100 12.870 1.740 1.635 14.78 15.010 14.990 14.470 89.600 90.100 1.927 14.88 15.140 15.080 14.600 14.68 14.920 14.900 14.380 13.310 12.990 12.960 12.780 16.812 15.075 1.748 16.479 14.850 1.631
PRIMET_226 2016-09-28 09:15:00 226 156.7 0.00 187 0.830 0.764 214.500 22.950 13.020 12.890 1.596 1.436 14.58 14.830 14.840 14.310 90.400 91.200 1.359 14.67 14.900 14.890 14.370 14.50 14.760 14.800 14.270 13.160 13.050 12.950 12.820 16.596 14.996 1.593 16.309 14.869 1.435
PRIMET_226 2016-09-28 09:10:00 226 156.7 0.00 181 0.262 0.252 231.900 16.300 13.110 13.030 1.285 1.124 14.37 14.660 14.690 14.140 92.100 93.000 1.176 14.50 14.800 14.840 14.280 14.23 14.500 14.540 14.000 13.330 13.160 13.000 12.930 16.372 15.085 1.293 16.130 15.006 1.129
PRIMET_226 2016-09-28 09:05:00 226 156.7 0.00 195 0.887 0.825 211.700 21.390 12.950 12.830 1.221 1.079 14.16 14.390 14.410 13.910 92.400 93.200 1.581 14.21 14.480 14.500 13.990 14.12 14.330 14.360 13.880 13.060 12.910 12.820 12.770 16.151 14.928 1.228 15.892 14.811 1.081
PRIMET_226 2016-09-28 09:00:00 226 156.7 0.00 183 0.974 0.911 205.600 20.600 12.910 12.920 1.157 0.894 14.06 14.330 14.370 13.820 92.800 94.300 1.503 14.11 14.380 14.410 13.870 13.99 14.260 14.300 13.740 13.000 12.990 12.840 12.890 16.047 14.889 1.155 15.799 14.898 0.901
PRIMET_226 2016-09-28 08:55:00 226 156.7 0.00 182 0.822 0.772 209.300 19.950 12.930 12.950 0.991 0.698 13.92 14.170 14.210 13.650 93.800 95.500 1.496 13.98 14.250 14.300 13.710 13.85 14.100 14.140 13.580 13.060 13.020 12.860 12.900 15.902 14.908 0.986 15.625 14.928 0.703
PRIMET_226 2016-09-28 08:50:00 226 156.7 0.00 196 0.714 0.708 216.100 7.906 12.920 13.020 0.848 0.481 13.77 14.040 14.080 13.510 94.600 96.900 1.659 13.85 14.140 14.160 13.590 13.72 13.970 14.020 13.440 13.060 13.100 12.860 12.990 15.748 14.898 0.850 15.483 14.996 0.480
PRIMET_226 2016-09-28 08:45:00 226 156.7 0.00 196 0.511 0.488 203.500 16.890 12.930 13.040 0.677 0.317 13.61 13.880 13.930 13.360 95.700 97.900 1.143 13.71 14.010 14.060 13.450 13.52 13.780 13.850 13.310 13.030 13.090 12.840 13.020 15.585 14.908 0.670 15.333 15.016 0.322
PRIMET_226 2016-09-28 08:40:00 226 156.7 0.00 193 0.889 0.869 208.400 12.140 12.830 13.100 0.678 0.186 13.51 13.780 13.860 13.290 95.600 98.800 1.209 13.54 13.800 13.880 13.320 13.49 13.770 13.840 13.250 12.870 13.170 12.780 13.050 15.483 14.811 0.681 15.263 15.075 0.183
PRIMET_226 2016-09-28 08:35:00 226 156.7 0.00 191 0.189 0.166 196.300 28.100 12.910 13.210 0.552 0.012 13.47 13.770 13.840 13.220 96.400 99.900 1.058 13.51 13.820 13.900 13.270 13.42 13.730 13.800 13.160 13.000 13.240 12.840 13.160 15.443 14.889 0.556 15.193 15.183 0.015
PRIMET_226 2016-09-28 08:30:00 226 156.7 0.00 182 0.067 0.066 205.900 9.600 12.910 13.090 0.424 0.000 13.34 13.640 13.700 13.100 97.200 100.000 0.327 13.41 13.730 13.790 13.170 13.27 13.540 13.620 13.030 12.960 13.170 12.870 13.030 15.313 14.889 0.429 15.075 15.065 0.000
PRIMET_226 2016-09-28 08:25:00 226 156.7 0.00 193 0.517 0.504 209.600 13.100 12.930 12.990 0.304 0.000 13.24 13.490 13.560 12.990 98.000 100.000 1.463 13.27 13.530 13.610 13.030 13.23 13.460 13.520 12.950 13.090 13.030 12.870 12.950 15.213 14.908 0.304 14.967 14.967 0.000
PRIMET_226 2016-09-28 08:20:00 226 156.7 0.00 192 0.352 0.350 203.900 6.491 12.950 12.930 0.201 0.000 13.15 13.440 13.500 12.930 98.700 100.000 1.085 13.25 13.550 13.570 12.990 13.10 13.360 13.440 12.880 13.090 12.990 12.900 12.880 15.124 14.928 0.197 14.908 14.908 0.000
PRIMET_226 2016-09-28 08:15:00 226 156.7 0.00 182 0.559 0.542 210.800 14.220 13.030 12.880 0.049 0.000 13.08 13.370 13.430 12.880 99.700 100.000 1.000 13.13 13.400 13.460 12.910 13.02 13.330 13.400 12.830 13.070 12.910 12.970 12.830 15.055 15.006 0.045 14.859 14.859 0.000
PRIMET_226 2016-09-28 08:10:00 226 156.7 0.00 191 0.432 0.424 208.600 11.000 12.960 12.780 0.000 0.000 12.96 13.260 13.340 12.780 100.000 100.000 1.117 13.01 13.330 13.390 12.840 12.91 13.220 13.300 12.730 13.010 12.840 12.910 12.730 14.937 14.937 -0.000 14.762 14.762 0.000
PRIMET_226 2016-09-28 08:05:00 226 156.7 0.00 187 0.269 0.265 201.700 9.560 12.860 12.700 0.000 0.000 12.86 13.150 13.240 12.700 100.000 100.000 0.719 12.91 13.220 13.310 12.740 12.81 13.080 13.180 12.650 12.910 12.740 12.810 12.650 14.840 14.840 0.000 14.685 14.685 0.000
PRIMET_226 2016-09-28 08:00:00 226 156.7 0.00 191 0.520 0.510 208.100 11.330 12.770 12.630 0.000 0.000 12.77 13.050 13.130 12.630 100.000 100.000 1.196 12.83 13.110 13.190 12.700 12.70 12.970 13.060 12.580 12.830 12.700 12.700 12.580 14.753 14.753 -0.000 14.618 14.618 0.000
PRIMET_226 2016-09-28 07:55:00 226 156.7 0.00 186 0.824 0.811 215.700 10.180 12.670 12.530 0.000 0.000 12.67 12.950 13.030 12.530 100.000 100.000 1.235 12.69 12.970 13.060 12.560 12.65 12.920 13.010 12.510 12.690 12.560 12.650 12.510 14.656 14.656 0.000 14.522 14.522 0.000
PRIMET_226 2016-09-28 07:50:00 226 156.7 0.00 187 0.738 0.727 208.000 9.870 12.620 12.490 0.000 0.000 12.62 12.910 12.990 12.490 100.000 100.000 1.209 12.65 12.940 13.010 12.510 12.60 12.890 12.980 12.470 12.650 12.510 12.600 12.470 14.608 14.608 0.000 14.484 14.484 0.000
PRIMET_226 2016-09-28 07:45:00 226 156.7 0.00 196 0.253 0.249 210.100 9.850 12.580 12.470 0.000 0.000 12.58 12.880 12.980 12.470 100.000 100.000 0.823 12.61 12.900 12.990 12.490 12.55 12.850 12.940 12.440 12.610 12.490 12.550 12.440 14.570 14.570 0.000 14.465 14.465 0.000
PRIMET_226 2016-09-28 07:40:00 226 156.7 0.00 196 0.045 0.044 199.800 10.900 12.490 12.380 0.000 0.000 12.49 12.780 12.880 12.380 100.000 100.000 0.353 12.56 12.850 12.940 12.430 12.40 12.700 12.800 12.310 12.560 12.430 12.400 12.310 14.484 14.484 0.000 14.380 14.380 0.000
PRIMET_226 2016-09-28 07:35:00 226 156.7 0.00 196 0.007 0.007 209.300 0.570 12.400 12.290 0.000 0.000 12.40 12.680 12.780 12.290 100.000 100.000 0.007 12.42 12.700 12.810 12.310 12.38 12.640 12.740 12.250 12.420 12.310 12.380 12.250 14.399 14.399 0.000 14.295 14.295 0.000
PRIMET_226 2016-09-28 07:30:00 226 156.7 0.00 196 0.029 0.029 210.800 1.492 12.330 12.200 0.000 0.000 12.33 12.590 12.680 12.200 100.000 100.000 0.248 12.37 12.650 12.750 12.250 12.29 12.550 12.630 12.150 12.370 12.250 12.290 12.150 14.333 14.333 0.000 14.211 14.211 0.000
PRIMET_226 2016-09-28 07:25:00 226 156.7 0.00 187 0.007 0.007 206.000 0.074 12.230 12.100 0.000 0.000 12.23 12.500 12.580 12.100 100.000 100.000 0.007 12.28 12.560 12.630 12.160 12.19 12.440 12.520 12.040 12.280 12.160 12.190 12.040 14.239 14.239 0.000 14.117 14.117 0.000
PRIMET_226 2016-09-28 07:20:00 226 156.7 0.00 195 0.007 0.007 206.000 0.074 12.170 12.030 0.000 0.000 12.17 12.410 12.490 12.030 100.000 100.000 0.007 12.18 12.430 12.520 12.050 12.13 12.390 12.470 12.000 12.180 12.050 12.130 12.000 14.182 14.182 0.000 14.052 14.052 0.000
PRIMET_226 2016-09-28 07:15:00 226 156.7 0.00 196 0.007 0.007 206.100 0.564 12.100 11.970 0.000 0.000 12.10 12.360 12.430 11.970 100.000 100.000 0.007 12.14 12.400 12.460 12.020 12.06 12.310 12.390 11.930 12.140 12.020 12.060 11.930 14.117 14.117 0.000 13.997 13.997 0.000
PRIMET_226 2016-09-28 07:10:00 226 156.7 0.00 196 0.007 0.007 208.500 0.069 12.050 11.920 0.000 0.000 12.05 12.290 12.370 11.920 100.000 100.000 0.007 12.07 12.320 12.390 11.930 12.03 12.270 12.350 11.910 12.070 11.930 12.030 11.910 14.071 14.071 0.000 13.951 13.951 0.000
PRIMET_226 2016-09-28 07:05:00 226 156.7 0.00 187 0.007 0.007 208.500 0.074 12.020 11.880 0.000 0.000 12.02 12.280 12.350 11.880 100.000 100.000 0.007 12.05 12.300 12.360 11.920 11.99 12.250 12.310 11.850 12.050 11.920 11.990 11.850 14.043 14.043 0.000 13.914 13.914 0.000
PRIMET_226 2016-09-28 07:00:00 226 156.7 0.00 196 0.007 0.007 208.500 0.069 11.950 11.810 0.000 0.000 11.95 12.210 12.280 11.810 100.000 100.000 0.007 12.01 12.250 12.310 11.850 11.89 12.160 12.240 11.780 12.010 11.850 11.890 11.780 13.978 13.978 0.000 13.850 13.850 0.000
PRIMET_226 2016-09-28 06:55:00 226 156.7 0.00 195 0.007 0.007 208.500 0.079 11.880 11.750 0.000 0.000 11.88 12.120 12.200 11.750 100.000 100.000 0.007 11.90 12.150 12.230 11.780 11.85 12.090 12.170 11.710 11.900 11.780 11.850 11.710 13.914 13.914 0.000 13.795 13.795 0.000
PRIMET_226 2016-09-28 06:50:00 226 156.7 0.00 178 0.007 0.007 208.500 0.074 11.830 11.700 0.000 0.000 11.83 12.080 12.140 11.700 100.000 100.000 0.007 11.87 12.120 12.180 11.730 11.80 12.030 12.110 11.670 11.870 11.730 11.800 11.670 13.868 13.868 0.000 13.749 13.749 0.000
PRIMET_226 2016-09-28 06:45:00 226 156.7 0.00 192 0.007 0.007 208.500 0.069 11.770 11.660 0.000 0.000 11.77 12.010 12.090 11.660 100.000 100.000 0.007 11.80 12.030 12.100 11.680 11.74 12.000 12.070 11.640 11.800 11.680 11.740 11.640 13.813 13.813 -0.000 13.713 13.713 0.000
PRIMET_226 2016-09-28 06:40:00 226 156.7 0.00 192 0.007 0.007 208.500 0.069 11.710 11.600 0.000 0.000 11.71 11.960 12.040 11.600 100.000 100.000 0.007 11.74 12.000 12.070 11.630 11.68 11.910 12.000 11.570 11.740 11.630 11.680 11.570 13.759 13.759 0.000 13.659 13.659 -0.000
PRIMET_226 2016-09-28 06:35:00 226 156.7 0.00 196 0.007 0.007 208.500 0.063 11.660 11.570 0.000 0.000 11.66 11.900 11.990 11.570 100.000 100.000 0.007 11.69 11.920 12.010 11.590 11.64 11.880 11.970 11.550 11.690 11.590 11.640 11.550 13.713 13.713 0.000 13.632 13.632 0.000
PRIMET_226 2016-09-28 06:30:00 226 156.7 0.00 194 0.007 0.007 208.500 0.069 11.620 11.540 0.000 0.000 11.62 11.880 11.960 11.540 100.000 100.000 0.007 11.65 11.890 11.980 11.570 11.59 11.860 11.950 11.520 11.650 11.570 11.590 11.520 13.677 13.677 0.000 13.605 13.605 0.000
PRIMET_226 2016-09-28 06:25:00 226 156.7 0.00 182 0.007 0.007 208.500 0.074 11.580 11.510 0.000 0.000 11.58 11.840 11.930 11.510 100.000 100.000 0.007 11.59 11.860 11.950 11.530 11.56 11.820 11.910 11.490 11.590 11.530 11.560 11.490 13.641 13.641 0.000 13.578 13.578 0.000
PRIMET_226 2016-09-28 06:20:00 226 156.7 0.00 197 0.007 0.007 208.500 0.074 11.550 11.490 0.000 0.000 11.55 11.810 11.910 11.490 100.000 100.000 0.007 11.56 11.820 11.910 11.510 11.53 11.800 11.900 11.460 11.560 11.510 11.530 11.460 13.614 13.614 0.000 13.560 13.560 0.000
PRIMET_226 2016-09-28 06:15:00 226 156.7 0.00 178 0.007 0.007 208.500 0.063 11.530 11.450 0.000 0.000 11.53 11.790 11.890 11.450 100.000 100.000 0.007 11.54 11.800 11.900 11.490 11.52 11.770 11.880 11.440 11.540 11.490 11.520 11.440 13.596 13.596 0.000 13.524 13.524 0.000
PRIMET_226 2016-09-28 06:10:00 226 156.7 0.00 178 0.007 0.007 208.500 0.069 11.520 11.430 0.000 0.000 11.52 11.780 11.860 11.430 100.000 100.000 0.007 11.53 11.790 11.880 11.440 11.50 11.760 11.850 11.410 11.530 11.440 11.500 11.410 13.587 13.587 0.000 13.506 13.506 0.000
PRIMET_226 2016-09-28 06:05:00 226 156.7 0.00 196 0.007 0.007 208.500 0.069 11.480 11.400 0.000 0.000 11.48 11.720 11.810 11.400 100.000 100.000 0.007 11.50 11.750 11.840 11.410 11.46 11.700 11.790 11.380 11.500 11.410 11.460 11.380 13.551 13.551 0.000 13.479 13.479 -0.000
PRIMET_226 2016-09-28 06:00:00 226 156.7 0.00 187 0.007 0.007 208.500 0.069 11.450 11.360 0.000 0.000 11.45 11.680 11.770 11.360 100.000 100.000 0.007 11.47 11.700 11.800 11.380 11.43 11.660 11.760 11.340 11.470 11.380 11.430 11.340 13.524 13.524 0.000 13.444 13.444 0.000
PRIMET_226 2016-09-28 05:55:00 226 156.7 0.00 196 0.007 0.007 208.500 0.063 11.430 11.340 0.000 0.000 11.43 11.670 11.750 11.340 100.000 100.000 0.007 11.44 11.670 11.770 11.360 11.42 11.650 11.740 11.330 11.440 11.360 11.420 11.330 13.506 13.506 0.000 13.426 13.426 0.000
PRIMET_226 2016-09-28 05:50:00 226 156.7 0.00 196 0.007 0.007 208.500 0.063 11.440 11.350 0.000 0.000 11.44 11.690 11.760 11.350 100.000 100.000 0.007 11.45 11.700 11.770 11.360 11.43 11.670 11.740 11.330 11.450 11.360 11.430 11.330 13.515 13.515 0.000 13.435 13.435 0.000
PRIMET_226 2016-09-28 05:45:00 226 156.7 0.00 196 0.007 0.007 208.500 0.056 11.410 11.340 0.000 0.000 11.41 11.670 11.750 11.340 100.000 100.000 0.007 11.43 11.690 11.760 11.350 11.40 11.650 11.730 11.320 11.430 11.350 11.400 11.320 13.488 13.488 0.000 13.426 13.426 0.000
PRIMET_226 2016-09-28 05:40:00 226 156.7 0.00 195 0.007 0.007 208.500 0.063 11.380 11.310 0.000 0.000 11.38 11.630 11.720 11.310 100.000 100.000 0.007 11.40 11.660 11.740 11.340 11.36 11.610 11.700 11.290 11.400 11.340 11.360 11.290 13.461 13.461 -0.000 13.399 13.399 0.000
PRIMET_226 2016-09-28 05:35:00 226 156.7 0.00 196 0.007 0.007 208.500 0.063 11.360 11.290 0.000 0.000 11.36 11.600 11.690 11.290 100.000 100.000 0.007 11.39 11.610 11.700 11.300 11.35 11.590 11.680 11.270 11.390 11.300 11.350 11.270 13.444 13.444 0.000 13.381 13.381 0.000
PRIMET_226 2016-09-28 05:30:00 226 156.7 0.00 192 0.007 0.007 208.500 0.063 11.350 11.280 0.000 0.000 11.35 11.590 11.680 11.280 100.000 100.000 0.007 11.36 11.600 11.690 11.290 11.32 11.580 11.680 11.260 11.360 11.290 11.320 11.260 13.435 13.435 0.000 13.372 13.372 0.000
PRIMET_226 2016-09-28 05:25:00 226 156.7 0.00 196 0.007 0.007 208.500 0.069 11.310 11.260 0.000 0.000 11.31 11.580 11.670 11.260 100.000 100.000 0.007 11.33 11.600 11.680 11.280 11.30 11.560 11.640 11.250 11.330 11.280 11.300 11.250 13.399 13.399 0.000 13.355 13.355 0.000
PRIMET_226 2016-09-28 05:20:00 226 156.7 0.00 196 0.007 0.007 208.500 0.069 11.300 11.240 0.000 0.000 11.30 11.550 11.640 11.240 100.000 100.000 0.007 11.31 11.560 11.650 11.260 11.27 11.540 11.630 11.220 11.310 11.260 11.270 11.220 13.390 13.390 0.000 13.337 13.337 -0.000
PRIMET_226 2016-09-28 05:15:00 226 156.7 0.00 195 0.007 0.007 208.500 0.069 11.270 11.210 0.000 0.000 11.27 11.540 11.630 11.210 100.000 100.000 0.007 11.29 11.560 11.640 11.240 11.26 11.510 11.600 11.190 11.290 11.240 11.260 11.190 13.364 13.364 0.000 13.310 13.310 0.000
PRIMET_226 2016-09-28 05:10:00 226 156.7 0.00 178 0.007 0.007 208.500 0.074 11.240 11.180 0.000 0.000 11.24 11.490 11.590 11.180 100.000 100.000 0.007 11.25 11.510 11.600 11.200 11.23 11.470 11.560 11.160 11.250 11.200 11.230 11.160 13.337 13.337 -0.000 13.284 13.284 0.000
PRIMET_226 2016-09-28 05:05:00 226 156.7 0.00 196 0.007 0.007 208.500 0.079 11.220 11.160 0.000 0.000 11.22 11.480 11.560 11.160 100.000 100.000 0.007 11.24 11.490 11.570 11.170 11.21 11.460 11.550 11.140 11.240 11.170 11.210 11.140 13.319 13.319 0.000 13.266 13.266 0.000
PRIMET_226 2016-09-28 05:00:00 226 156.7 0.00 187 0.007 0.007 208.500 0.069 11.200 11.140 0.000 0.000 11.20 11.460 11.540 11.140 100.000 100.000 0.007 11.22 11.470 11.550 11.150 11.18 11.440 11.520 11.110 11.220 11.150 11.180 11.110 13.302 13.302 0.000 13.249 13.249 0.000
PRIMET_226 2016-09-28 04:55:00 226 156.7 0.00 195 0.007 0.007 208.500 0.079 11.180 11.110 0.000 0.000 11.18 11.430 11.520 11.120 100.000 100.000 0.007 11.20 11.440 11.520 11.140 11.17 11.410 11.510 11.090 11.200 11.140 11.170 11.090 13.284 13.284 0.000 13.231 13.222 0.000
PRIMET_226 2016-09-28 04:50:00 226 156.7 0.00 196 0.007 0.007 208.500 0.063 11.140 11.080 0.000 0.000 11.14 11.410 11.490 11.080 100.000 100.000 0.007 11.17 11.430 11.510 11.100 11.11 11.380 11.470 11.060 11.170 11.100 11.110 11.060 13.249 13.249 0.000 13.196 13.196 0.000
PRIMET_226 2016-09-28 04:45:00 226 156.7 0.00 196 0.007 0.007 208.500 0.074 11.100 11.050 0.000 0.000 11.10 11.360 11.450 11.050 100.000 100.000 0.007 11.12 11.380 11.470 11.070 11.09 11.350 11.430 11.030 11.120 11.070 11.090 11.030 13.214 13.214 0.000 13.170 13.170 -0.000
PRIMET_226 2016-09-28 04:40:00 226 156.7 0.00 195 0.007 0.007 208.500 0.063 11.060 11.020 0.000 0.000 11.06 11.330 11.420 11.020 100.000 100.000 0.007 11.09 11.350 11.440 11.040 11.04 11.310 11.390 10.990 11.090 11.040 11.040 10.990 13.179 13.179 -0.000 13.144 13.144 0.000
PRIMET_226 2016-09-28 04:35:00 226 156.7 0.00 196 0.007 0.007 208.500 0.074 11.020 10.980 0.000 0.000 11.02 11.290 11.380 10.980 100.000 100.000 0.007 11.05 11.300 11.390 11.010 11.00 11.270 11.360 10.960 11.050 11.010 11.000 10.960 13.144 13.144 0.000 13.109 13.109 -0.000
PRIMET_226 2016-09-28 04:30:00 226 156.7 0.00 197 0.007 0.007 208.500 0.079 10.990 10.950 0.000 0.000 10.99 11.260 11.350 10.950 100.000 100.000 0.007 11.02 11.280 11.370 10.970 10.97 11.240 11.320 10.920 11.020 10.970 10.970 10.920 13.117 13.117 0.000 13.083 13.083 0.000
PRIMET_226 2016-09-28 04:25:00 226 156.7 0.00 196 0.007 0.007 208.500 0.074 10.950 10.910 0.000 0.000 10.95 11.220 11.310 10.910 100.000 100.000 0.007 10.97 11.240 11.330 10.940 10.93 11.200 11.280 10.870 10.970 10.940 10.930 10.870 13.083 13.083 0.000 13.048 13.048 0.000
PRIMET_226 2016-09-28 04:20:00 226 156.7 0.00 195 0.007 0.007 208.500 0.074 10.910 10.880 0.000 0.000 10.91 11.180 11.270 10.880 100.000 100.000 0.007 10.93 11.200 11.290 10.900 10.87 11.160 11.250 10.850 10.930 10.900 10.870 10.850 13.048 13.048 0.000 13.022 13.022 0.000
PRIMET_226 2016-09-28 04:15:00 226 156.7 0.00 196 0.007 0.007 208.500 0.074 10.860 10.840 0.000 0.000 10.86 11.140 11.230 10.840 100.000 100.000 0.007 10.89 11.170 11.250 10.870 10.84 11.120 11.210 10.820 10.890 10.870 10.840 10.820 13.004 13.004 0.000 12.987 12.987 0.000
PRIMET_226 2016-09-28 04:10:00 226 156.7 0.00 195 0.007 0.007 208.500 0.074 10.820 10.800 0.000 0.000 10.82 11.100 11.190 10.800 100.000 100.000 0.007 10.85 11.120 11.210 10.810 10.80 11.080 11.170 10.780 10.850 10.810 10.800 10.780 12.970 12.970 0.000 12.953 12.953 0.000
PRIMET_226 2016-09-28 04:05:00 226 156.7 0.00 195 0.007 0.007 208.500 0.074 10.770 10.750 0.000 0.000 10.77 11.060 11.150 10.750 100.000 100.000 0.007 10.80 11.080 11.180 10.780 10.72 11.030 11.130 10.720 10.800 10.780 10.720 10.720 12.927 12.927 0.000 12.910 12.910 0.000
PRIMET_226 2016-09-28 04:00:00 226 156.7 0.00 188 0.007 0.007 208.500 0.074 10.690 10.680 0.000 0.000 10.69 10.980 11.070 10.680 100.000 100.000 0.007 10.72 11.030 11.120 10.720 10.66 10.940 11.030 10.640 10.720 10.720 10.660 10.640 12.858 12.858 0.000 12.850 12.850 0.000
PRIMET_226 2016-09-28 03:55:00 226 156.7 0.00 182 0.007 0.007 208.500 0.074 10.640 10.630 0.000 0.000 10.64 10.920 11.010 10.630 100.000 100.000 0.007 10.66 10.940 11.030 10.650 10.62 10.900 11.000 10.610 10.660 10.650 10.620 10.610 12.815 12.815 0.000 12.807 12.807 0.000
PRIMET_226 2016-09-28 03:50:00 226 156.7 0.00 196 0.007 0.007 208.500 0.074 10.590 10.600 0.000 0.000 10.59 10.870 10.980 10.600 100.000 100.000 0.007 10.62 10.900 11.000 10.630 10.56 10.840 10.950 10.560 10.620 10.630 10.560 10.560 12.773 12.773 0.000 12.781 12.781 0.000
PRIMET_226 2016-09-28 03:45:00 226 156.7 0.00 195 0.007 0.007 208.500 0.074 10.510 10.530 0.000 0.000 10.51 10.800 10.900 10.530 100.000 100.000 0.007 10.55 10.840 10.950 10.580 10.48 10.770 10.870 10.510 10.550 10.580 10.480 10.510 12.705 12.705 0.000 12.722 12.722 0.000
PRIMET_226 2016-09-28 03:40:00 226 156.7 0.00 195 0.007 0.007 208.500 0.074 10.470 10.500 0.000 0.000 10.47 10.750 10.850 10.500 100.000 100.000 0.007 10.49 10.770 10.870 10.530 10.44 10.730 10.830 10.470 10.490 10.530 10.440 10.470 12.671 12.671 0.000 12.696 12.696 0.000
PRIMET_226 2016-09-28 03:35:00 226 156.7 0.00 195 0.007 0.007 208.500 0.074 10.420 10.450 0.000 0.000 10.42 10.680 10.780 10.450 100.000 100.000 0.007 10.45 10.730 10.820 10.480 10.39 10.630 10.720 10.420 10.450 10.480 10.390 10.420 12.629 12.629 0.000 12.654 12.654 0.000
PRIMET_226 2016-09-28 03:30:00 226 156.7 0.00 177 0.007 0.007 208.500 0.074 10.400 10.410 0.000 0.000 10.40 10.610 10.710 10.410 100.000 100.000 0.007 10.42 10.620 10.720 10.420 10.39 10.590 10.680 10.390 10.420 10.420 10.390 10.390 12.612 12.612 0.000 12.620 12.620 0.000
PRIMET_226 2016-09-28 03:25:00 226 156.7 0.00 196 0.007 0.007 208.500 0.069 10.380 10.380 0.000 0.000 10.38 10.580 10.690 10.380 100.000 100.000 0.007 10.40 10.590 10.700 10.390 10.36 10.570 10.680 10.360 10.400 10.390 10.360 10.360 12.595 12.595 0.000 12.595 12.595 0.000
PRIMET_226 2016-09-28 03:20:00 226 156.7 0.00 186 0.007 0.007 208.500 0.074 10.350 10.360 0.000 0.000 10.35 10.570 10.670 10.360 100.000 100.000 0.007 10.37 10.580 10.690 10.380 10.32 10.550 10.660 10.350 10.370 10.380 10.320 10.350 12.570 12.570 0.000 12.578 12.578 0.000
PRIMET_226 2016-09-28 03:15:00 226 156.7 0.00 191 0.007 0.007 208.500 0.069 10.330 10.340 0.000 0.000 10.33 10.520 10.630 10.340 100.000 100.000 0.007 10.35 10.550 10.650 10.360 10.32 10.490 10.610 10.330 10.350 10.360 10.320 10.330 12.553 12.553 -0.000 12.561 12.561 0.000
PRIMET_226 2016-09-28 03:10:00 226 156.7 0.00 178 0.007 0.007 208.500 0.079 10.310 10.330 0.000 0.000 10.31 10.490 10.600 10.330 100.000 100.000 0.007 10.34 10.510 10.610 10.340 10.29 10.470 10.580 10.310 10.340 10.340 10.290 10.310 12.536 12.536 0.000 12.553 12.553 -0.000
PRIMET_226 2016-09-28 03:05:00 226 156.7 0.00 196 0.007 0.007 208.500 0.069 10.300 10.330 0.000 0.000 10.30 10.470 10.590 10.330 100.000 100.000 0.007 10.31 10.480 10.600 10.340 10.28 10.460 10.580 10.310 10.310 10.340 10.280 10.310 12.528 12.528 0.000 12.553 12.553 -0.000
PRIMET_226 2016-09-28 03:00:00 226 156.7 0.00 196 0.007 0.007 208.500 0.079 10.300 10.340 0.000 0.000 10.30 10.480 10.600 10.340 100.000 100.000 0.007 10.32 10.490 10.610 10.350 10.28 10.460 10.590 10.320 10.320 10.350 10.280 10.320 12.528 12.528 0.000 12.561 12.561 0.000
PRIMET_226 2016-09-28 02:55:00 226 156.7 0.00 174 0.007 0.007 208.500 0.069 10.330 10.360 0.000 0.000 10.33 10.500 10.620 10.360 100.000 100.000 0.007 10.34 10.520 10.640 10.380 10.32 10.470 10.600 10.350 10.340 10.380 10.320 10.350 12.553 12.553 -0.000 12.578 12.578 0.000
PRIMET_226 2016-09-28 02:50:00 226 156.7 0.00 196 0.007 0.007 208.500 0.069 10.340 10.390 0.000 0.000 10.34 10.520 10.650 10.390 100.000 100.000 0.007 10.35 10.530 10.660 10.420 10.33 10.500 10.630 10.370 10.350 10.420 10.330 10.370 12.561 12.561 0.000 12.603 12.603 0.000
PRIMET_226 2016-09-28 02:45:00 226 156.7 0.00 182 0.007 0.007 208.500 0.069 10.310 10.400 0.000 0.000 10.31 10.490 10.650 10.400 100.000 100.000 0.007 10.33 10.510 10.670 10.420 10.28 10.470 10.630 10.380 10.330 10.420 10.280 10.380 12.536 12.536 0.000 12.612 12.612 0.000
PRIMET_226 2016-09-28 02:40:00 226 156.7 0.00 195 0.007 0.007 208.500 0.069 10.310 10.400 0.000 0.000 10.31 10.490 10.640 10.400 100.000 100.000 0.007 10.35 10.530 10.670 10.440 10.28 10.470 10.630 10.380 10.350 10.440 10.280 10.380 12.536 12.536 0.000 12.612 12.612 0.000
PRIMET_226 2016-09-28 02:35:00 226 156.7 0.00 195 0.007 0.007 208.500 0.074 10.420 10.470 0.000 0.000 10.42 10.600 10.720 10.470 100.000 100.000 0.007 10.44 10.620 10.740 10.500 10.37 10.530 10.680 10.440 10.440 10.500 10.370 10.440 12.629 12.629 0.000 12.671 12.671 0.000
PRIMET_226 2016-09-28 02:30:00 226 156.7 0.00 196 0.007 0.007 208.500 0.069 10.450 10.500 0.000 0.000 10.45 10.630 10.750 10.500 100.000 100.000 0.007 10.48 10.640 10.770 10.520 10.43 10.620 10.730 10.490 10.480 10.520 10.430 10.490 12.654 12.654 0.000 12.696 12.696 0.000
PRIMET_226 2016-09-28 02:25:00 226 156.7 0.00 195 0.007 0.007 208.500 0.063 10.500 10.520 0.000 0.000 10.50 10.650 10.770 10.520 100.000 100.000 0.007 10.52 10.660 10.780 10.540 10.47 10.640 10.760 10.510 10.520 10.540 10.470 10.510 12.696 12.696 0.000 12.713 12.713 0.000
PRIMET_226 2016-09-28 02:20:00 226 156.7 0.00 196 0.007 0.007 208.500 0.063 10.530 10.560 0.000 0.000 10.53 10.670 10.800 10.560 100.000 100.000 0.007 10.54 10.680 10.820 10.600 10.51 10.650 10.770 10.530 10.540 10.600 10.510 10.530 12.722 12.722 0.000 12.747 12.747 0.000
PRIMET_226 2016-09-28 02:15:00 226 156.7 0.00 196 0.007 0.007 208.500 0.063 10.570 10.590 0.000 0.000 10.57 10.700 10.820 10.590 100.000 100.000 0.007 10.60 10.720 10.840 10.610 10.55 10.670 10.810 10.570 10.600 10.610 10.550 10.570 12.756 12.756 0.000 12.773 12.773 0.000
PRIMET_226 2016-09-28 02:10:00 226 156.7 0.00 195 0.007 0.007 208.500 0.079 10.600 10.630 0.000 0.000 10.60 10.750 10.870 10.630 100.000 100.000 0.007 10.63 10.780 10.900 10.660 10.58 10.730 10.830 10.600 10.630 10.660 10.580 10.600 12.781 12.781 0.000 12.807 12.807 0.000
PRIMET_226 2016-09-28 02:05:00 226 156.7 0.00 194 0.007 0.007 208.500 0.079 10.630 10.670 0.000 0.000 10.63 10.790 10.910 10.670 100.000 100.000 0.007 10.64 10.800 10.920 10.690 10.61 10.780 10.890 10.650 10.640 10.690 10.610 10.650 12.807 12.807 0.000 12.841 12.841 0.000
PRIMET_226 2016-09-28 02:00:00 226 156.7 0.00 192 0.007 0.007 208.500 0.079 10.650 10.700 0.000 0.000 10.65 10.790 10.930 10.700 100.000 100.000 0.007 10.67 10.800 10.940 10.720 10.63 10.780 10.920 10.680 10.670 10.720 10.630 10.680 12.824 12.824 0.000 12.867 12.867 0.000
PRIMET_226 2016-09-28 01:55:00 226 156.7 0.00 188 0.007 0.007 208.500 0.079 10.690 10.730 0.000 0.000 10.69 10.840 10.970 10.740 100.000 100.000 0.007 10.72 10.870 10.990 10.760 10.66 10.800 10.950 10.720 10.720 10.760 10.660 10.720 12.858 12.858 0.000 12.901 12.892 0.000
PRIMET_226 2016-09-28 01:50:00 226 156.7 0.00 197 0.007 0.007 208.500 0.074 10.740 10.780 0.000 0.000 10.74 10.890 11.000 10.780 100.000 100.000 0.007 10.76 10.910 11.030 10.800 10.72 10.880 10.990 10.750 10.760 10.800 10.720 10.750 12.901 12.901 0.000 12.935 12.935 0.000
PRIMET_226 2016-09-28 01:45:00 226 156.7 0.00 197 0.007 0.007 208.500 0.069 10.790 10.820 0.000 0.000 10.79 10.940 11.050 10.820 100.000 100.000 0.007 10.82 10.960 11.070 10.840 10.77 10.910 11.030 10.800 10.820 10.840 10.770 10.800 12.944 12.944 0.000 12.970 12.970 0.000
PRIMET_226 2016-09-28 01:40:00 226 156.7 0.00 181 0.007 0.007 208.500 0.063 10.820 10.860 0.000 0.000 10.82 10.960 11.070 10.860 100.000 100.000 0.007 10.85 10.970 11.090 10.890 10.79 10.950 11.060 10.830 10.850 10.890 10.790 10.830 12.970 12.970 0.000 13.004 13.004 0.000
PRIMET_226 2016-09-28 01:35:00 226 156.7 0.00 196 0.007 0.007 208.500 0.063 10.870 10.890 0.000 0.000 10.87 10.990 11.080 10.890 100.000 100.000 0.007 10.89 10.990 11.100 10.910 10.85 10.970 11.060 10.880 10.890 10.910 10.850 10.880 13.013 13.013 -0.000 13.030 13.030 -0.000
PRIMET_226 2016-09-28 01:30:00 226 156.7 0.00 195 0.007 0.007 208.500 0.074 10.910 10.930 0.000 0.000 10.91 11.020 11.100 10.930 100.000 100.000 0.007 10.93 11.060 11.160 10.960 10.89 11.000 11.060 10.900 10.930 10.960 10.890 10.900 13.048 13.048 0.000 13.065 13.065 0.000
PRIMET_226 2016-09-28 01:25:00 226 156.7 0.00 196 0.007 0.007 208.500 0.079 10.940 10.990 0.000 0.000 10.94 11.080 11.190 10.990 100.000 100.000 0.007 10.96 11.110 11.240 11.030 10.92 11.060 11.160 10.950 10.960 11.030 10.920 10.950 13.074 13.074 0.000 13.117 13.117 0.000
PRIMET_226 2016-09-28 01:20:00 226 156.7 0.00 178 0.007 0.007 208.500 0.063 10.980 11.040 0.000 0.000 10.98 11.140 11.260 11.040 100.000 100.000 0.007 11.00 11.170 11.280 11.070 10.96 11.110 11.240 11.020 11.000 11.070 10.960 11.020 13.109 13.109 -0.000 13.161 13.161 0.000
PRIMET_226 2016-09-28 01:15:00 226 156.7 0.00 192 0.007 0.007 208.500 0.063 11.010 11.090 0.000 0.000 11.01 11.190 11.310 11.090 100.000 100.000 0.007 11.03 11.220 11.330 11.120 10.99 11.170 11.280 11.070 11.030 11.120 10.990 11.070 13.135 13.135 0.000 13.205 13.205 0.000
PRIMET_226 2016-09-28 01:10:00 226 156.7 0.00 186 0.007 0.007 208.500 0.074 11.050 11.140 0.000 0.000 11.05 11.220 11.340 11.140 100.000 100.000 0.007 11.09 11.230 11.360 11.170 11.03 11.210 11.330 11.120 11.090 11.170 11.030 11.120 13.170 13.170 -0.000 13.249 13.249 0.000
PRIMET_226 2016-09-28 01:05:00 226 156.7 0.00 196 0.007 0.007 208.500 0.074 11.120 11.190 0.000 0.000 11.12 11.260 11.390 11.190 100.000 100.000 0.007 11.15 11.300 11.420 11.220 11.09 11.230 11.360 11.160 11.150 11.220 11.090 11.160 13.231 13.231 0.000 13.293 13.293 0.000
PRIMET_226 2016-09-28 01:00:00 226 156.7 0.00 195 0.007 0.007 208.500 0.069 11.150 11.240 0.000 0.000 11.15 11.320 11.440 11.240 100.000 100.000 0.007 11.18 11.350 11.490 11.260 11.13 11.300 11.410 11.210 11.180 11.260 11.130 11.210 13.258 13.258 -0.000 13.337 13.337 -0.000
PRIMET_226 2016-09-28 00:55:00 226 156.7 0.00 182 0.007 0.007 208.500 0.074 11.190 11.300 0.000 0.000 11.19 11.370 11.510 11.300 100.000 100.000 0.007 11.21 11.390 11.540 11.320 11.18 11.350 11.480 11.270 11.210 11.320 11.180 11.270 13.293 13.293 0.000 13.390 13.390 0.000
PRIMET_226 2016-09-28 00:50:00 226 156.7 0.00 196 0.007 0.007 208.500 0.079 11.240 11.320 0.000 0.000 11.24 11.390 11.510 11.320 100.000 100.000 0.007 11.28 11.410 11.530 11.340 11.19 11.360 11.490 11.300 11.280 11.340 11.190 11.300 13.337 13.337 -0.000 13.408 13.408 0.000
PRIMET_226 2016-09-28 00:45:00 226 156.7 0.00 196 0.007 0.007 208.500 0.063 11.300 11.370 0.000 0.000 11.30 11.440 11.550 11.370 100.000 100.000 0.007 11.33 11.470 11.590 11.410 11.28 11.400 11.490 11.340 11.330 11.410 11.280 11.340 13.390 13.390 0.000 13.452 13.452 0.000
PRIMET_226 2016-09-28 00:40:00 226 156.7 0.00 196 0.007 0.007 208.500 0.069 11.340 11.430 0.000 0.000 11.34 11.490 11.610 11.430 100.000 100.000 0.007 11.37 11.510 11.620 11.460 11.31 11.470 11.590 11.390 11.370 11.460 11.310 11.390 13.426 13.426 0.000 13.506 13.506 0.000
PRIMET_226 2016-09-28 00:35:00 226 156.7 0.00 174 0.007 0.007 208.500 0.074 11.400 11.470 0.000 0.000 11.40 11.530 11.650 11.470 100.000 100.000 0.007 11.43 11.560 11.680 11.490 11.37 11.500 11.620 11.440 11.430 11.490 11.370 11.440 13.479 13.479 -0.000 13.542 13.542 0.000
PRIMET_226 2016-09-28 00:30:00 226 156.7 0.00 187 0.007 0.007 208.500 0.074 11.450 11.520 0.000 0.000 11.45 11.590 11.700 11.520 100.000 100.000 0.007 11.48 11.630 11.740 11.560 11.43 11.550 11.680 11.480 11.480 11.560 11.430 11.480 13.524 13.524 0.000 13.587 13.587 0.000
PRIMET_226 2016-09-28 00:25:00 226 156.7 0.00 195 0.007 0.007 208.500 0.074 11.500 11.570 0.000 0.000 11.50 11.650 11.760 11.570 100.000 100.000 0.007 11.53 11.670 11.780 11.600 11.47 11.630 11.740 11.550 11.530 11.600 11.470 11.550 13.569 13.569 0.000 13.632 13.632 0.000
PRIMET_226 2016-09-28 00:20:00 226 156.7 0.00 195 0.007 0.007 208.500 0.069 11.540 11.630 0.000 0.000 11.54 11.650 11.780 11.630 100.000 100.000 0.007 11.57 11.670 11.800 11.650 11.52 11.640 11.760 11.600 11.570 11.650 11.520 11.600 13.605 13.605 0.000 13.686 13.686 0.000
PRIMET_226 2016-09-28 00:15:00 226 156.7 0.00 196 0.007 0.007 208.500 0.069 11.600 11.660 0.000 0.000 11.60 11.690 11.810 11.660 100.000 100.000 0.007 11.62 11.720 11.830 11.670 11.56 11.650 11.800 11.650 11.620 11.670 11.560 11.650 13.659 13.659 -0.000 13.713 13.713 0.000
PRIMET_226 2016-09-28 00:10:00 226 156.7 0.00 192 0.007 0.007 208.500 0.069 11.640 11.690 0.000 0.000 11.64 11.750 11.850 11.690 100.000 100.000 0.007 11.66 11.770 11.880 11.730 11.61 11.720 11.820 11.670 11.660 11.730 11.610 11.670 13.695 13.695 0.000 13.740 13.740 0.000
PRIMET_226 2016-09-28 00:05:00 226 156.7 0.00 196 0.007 0.007 208.500 0.079 11.690 11.750 0.000 0.000 11.69 11.810 11.910 11.750 100.000 100.000 0.007 11.72 11.830 11.940 11.770 11.66 11.770 11.870 11.710 11.720 11.770 11.660 11.710 13.740 13.740 0.000 13.795 13.795 0.000
PRIMET_226 2016-09-28 00:00:00 226 156.7 0.00 192 0.007 0.007 208.500 0.069 11.730 11.800 0.000 0.000 11.73 11.850 11.960 11.800 100.000 100.000 0.007 11.76 11.880 11.980 11.820 11.71 11.830 11.930 11.780 11.760 11.820 11.710 11.780 13.777 13.777 -0.000 13.841 13.841 0.000
PRIMET_226 2016-09-27 23:55:00 226 156.7 0.00 195 0.007 0.007 208.500 0.069 11.780 11.850 0.000 0.000 11.78 11.910 12.010 11.850 100.000 100.000 0.007 11.80 11.950 12.050 11.880 11.75 11.870 11.980 11.820 11.800 11.880 11.750 11.820 13.822 13.822 0.000 13.886 13.886 0.000
PRIMET_226 2016-09-27 23:50:00 226 156.7 0.00 186 0.007 0.007 208.500 0.069 11.820 11.920 0.000 0.000 11.82 11.980 12.090 11.920 100.000 100.000 0.007 11.84 11.990 12.100 11.950 11.79 11.950 12.060 11.880 11.840 11.950 11.790 11.880 13.859 13.859 -0.000 13.951 13.951 0.000
PRIMET_226 2016-09-27 23:45:00 226 156.7 0.00 196 0.007 0.007 208.500 0.074 11.850 11.970 0.000 0.000 11.85 11.990 12.090 11.970 100.000 100.000 0.007 11.87 12.000 12.130 12.000 11.83 11.980 12.080 11.940 11.870 12.000 11.830 11.940 13.886 13.886 0.000 13.997 13.997 0.000
PRIMET_226 2016-09-27 23:40:00 226 156.7 0.00 178 0.007 0.007 208.500 0.069 11.870 12.030 0.000 0.000 11.87 12.020 12.170 12.030 100.000 100.000 0.007 11.88 12.040 12.190 12.070 11.84 12.010 12.130 12.000 11.880 12.070 11.840 12.000 13.905 13.905 -0.000 14.052 14.052 0.000
PRIMET_226 2016-09-27 23:35:00 226 156.7 0.00 177 0.007 0.007 208.500 0.074 11.890 12.070 0.000 0.000 11.89 12.050 12.200 12.070 100.000 100.000 0.007 11.93 12.070 12.220 12.100 11.85 12.020 12.180 12.050 11.930 12.100 11.850 12.050 13.923 13.923 0.000 14.089 14.089 0.000
PRIMET_226 2016-09-27 23:30:00 226 156.7 0.00 178 0.007 0.007 208.500 0.069 11.990 12.120 0.000 0.000 11.99 12.120 12.250 12.120 100.000 100.000 0.007 12.07 12.170 12.290 12.150 11.93 12.070 12.220 12.090 12.070 12.150 11.930 12.090 14.015 14.015 0.000 14.136 14.136 0.000
PRIMET_226 2016-09-27 23:25:00 226 156.7 0.00 196 0.007 0.007 208.500 0.074 12.090 12.190 0.000 0.000 12.09 12.220 12.330 12.190 100.000 100.000 0.007 12.12 12.240 12.350 12.210 12.05 12.180 12.300 12.160 12.120 12.210 12.050 12.160 14.108 14.108 0.000 14.201 14.201 0.000
PRIMET_226 2016-09-27 23:20:00 226 156.7 0.00 173 0.007 0.007 208.500 0.063 12.150 12.240 0.000 0.000 12.15 12.270 12.370 12.240 100.000 100.000 0.007 12.17 12.290 12.390 12.260 12.12 12.240 12.350 12.210 12.170 12.260 12.120 12.210 14.164 14.164 0.000 14.248 14.248 -0.000
PRIMET_226 2016-09-27 23:15:00 226 156.7 0.00 187 0.007 0.007 208.500 0.069 12.190 12.290 0.000 0.000 12.19 12.320 12.420 12.290 100.000 100.000 0.007 12.21 12.350 12.470 12.330 12.16 12.290 12.380 12.250 12.210 12.330 12.160 12.250 14.201 14.201 0.000 14.295 14.295 0.000
PRIMET_226 2016-09-27 23:10:00 226 156.7 0.00 187 0.007 0.007 208.500 0.063 12.220 12.340 0.000 0.000 12.22 12.380 12.500 12.340 100.000 100.000 0.007 12.25 12.410 12.520 12.370 12.21 12.350 12.470 12.320 12.250 12.370 12.210 12.320 14.229 14.229 0.000 14.342 14.342 0.000
PRIMET_226 2016-09-27 23:05:00 226 156.7 0.00 179 0.007 0.007 208.500 0.074 12.290 12.400 0.000 0.000 12.29 12.430 12.540 12.400 100.000 100.000 0.007 12.33 12.470 12.570 12.440 12.24 12.400 12.510 12.360 12.330 12.440 12.240 12.360 14.295 14.295 0.000 14.399 14.399 0.000
PRIMET_226 2016-09-27 23:00:00 226 156.7 0.00 196 0.007 0.007 208.500 0.074 12.360 12.450 0.000 0.000 12.36 12.480 12.590 12.450 100.000 100.000 0.007 12.40 12.520 12.620 12.470 12.32 12.460 12.560 12.430 12.400 12.470 12.320 12.430 14.361 14.361 -0.000 14.446 14.446 0.000
PRIMET_226 2016-09-27 22:55:00 226 156.7 0.00 175 0.007 0.007 208.500 0.069 12.410 12.500 0.000 0.000 12.41 12.540 12.640 12.500 100.000 100.000 0.007 12.42 12.550 12.660 12.530 12.38 12.530 12.620 12.460 12.420 12.530 12.380 12.460 14.408 14.408 0.000 14.494 14.494 0.000
PRIMET_226 2016-09-27 22:50:00 226 156.7 0.00 191 0.007 0.007 208.500 0.063 12.430 12.550 0.000 0.000 12.43 12.560 12.650 12.550 100.000 100.000 0.007 12.45 12.570 12.670 12.580 12.41 12.550 12.640 12.510 12.450 12.580 12.410 12.510 14.427 14.427 0.000 14.541 14.541 0.000
PRIMET_226 2016-09-27 22:45:00 226 156.7 0.00 173 0.007 0.007 208.500 0.074 12.450 12.610 0.000 0.000 12.45 12.610 12.700 12.610 100.000 100.000 0.007 12.48 12.650 12.730 12.640 12.44 12.570 12.670 12.580 12.480 12.640 12.440 12.580 14.446 14.446 0.000 14.599 14.599 0.000
PRIMET_226 2016-09-27 22:40:00 226 156.7 0.00 173 0.007 0.007 208.500 0.069 12.530 12.670 0.000 0.000 12.53 12.690 12.750 12.670 100.000 100.000 0.007 12.60 12.730 12.820 12.710 12.47 12.660 12.710 12.640 12.600 12.710 12.470 12.640 14.522 14.522 0.000 14.656 14.656 0.000
PRIMET_226 2016-09-27 22:35:00 226 156.7 0.00 186 0.007 0.007 208.500 0.069 12.630 12.720 0.000 0.000 12.63 12.740 12.830 12.720 100.000 100.000 0.007 12.66 12.780 12.860 12.760 12.61 12.730 12.810 12.690 12.660 12.760 12.610 12.690 14.618 14.618 0.000 14.704 14.704 -0.000
PRIMET_226 2016-09-27 22:30:00 226 156.7 0.00 183 0.007 0.007 208.500 0.079 12.690 12.790 0.000 0.000 12.69 12.800 12.910 12.790 100.000 100.000 0.007 12.72 12.820 12.950 12.830 12.66 12.770 12.870 12.750 12.720 12.830 12.660 12.750 14.675 14.675 0.000 14.772 14.772 0.000
PRIMET_226 2016-09-27 22:25:00 226 156.7 0.00 188 0.007 0.007 208.500 0.074 12.740 12.840 0.000 0.000 12.74 12.860 12.970 12.840 100.000 100.000 0.007 12.77 12.900 13.000 12.880 12.71 12.820 12.950 12.820 12.770 12.880 12.710 12.820 14.724 14.724 0.000 14.820 14.820 0.000
PRIMET_226 2016-09-27 22:20:00 226 156.7 0.00 196 0.007 0.007 208.500 0.063 12.790 12.920 0.000 0.000 12.79 12.940 13.050 12.920 100.000 100.000 0.007 12.82 12.960 13.090 12.950 12.76 12.910 13.010 12.890 12.820 12.950 12.760 12.890 14.772 14.772 0.000 14.898 14.898 0.000
PRIMET_226 2016-09-27 22:15:00 226 156.7 0.00 187 0.007 0.007 208.500 0.069 12.860 12.970 0.000 0.000 12.86 12.990 13.100 12.970 100.000 100.000 0.007 12.89 13.030 13.120 12.990 12.82 12.950 13.080 12.940 12.890 12.990 12.820 12.940 14.840 14.840 0.000 14.947 14.947 -0.000
PRIMET_226 2016-09-27 22:10:00 226 156.7 0.00 183 0.007 0.007 208.500 0.084 12.910 13.010 0.000 0.000 12.91 13.040 13.140 13.010 100.000 100.000 0.007 12.93 13.060 13.170 13.040 12.88 13.020 13.110 12.980 12.930 13.040 12.880 12.980 14.889 14.889 0.000 14.986 14.986 0.000
PRIMET_226 2016-09-27 22:05:00 226 156.7 0.00 195 0.007 0.007 208.500 0.074 12.950 13.070 0.000 0.000 12.95 13.080 13.180 13.070 100.000 100.000 0.007 12.98 13.100 13.210 13.110 12.93 13.060 13.170 13.040 12.980 13.110 12.930 13.040 14.928 14.928 0.000 15.045 15.045 0.000
PRIMET_226 2016-09-27 22:00:00 226 156.7 0.00 178 0.007 0.007 208.500 0.069 13.010 13.140 0.000 0.000 13.01 13.130 13.240 13.140 100.000 100.000 0.007 13.02 13.150 13.270 13.170 12.99 13.110 13.210 13.110 13.020 13.170 12.990 13.110 14.986 14.986 0.000 15.114 15.114 0.000
PRIMET_226 2016-09-27 21:55:00 226 156.7 0.00 188 0.007 0.007 208.500 0.079 13.040 13.190 0.000 0.000 13.04 13.180 13.290 13.190 100.000 100.000 0.007 13.05 13.210 13.290 13.220 13.01 13.160 13.270 13.160 13.050 13.220 13.010 13.160 15.016 15.016 0.000 15.164 15.164 -0.000
PRIMET_226 2016-09-27 21:50:00 226 156.7 0.00 195 0.007 0.007 208.500 0.069 13.060 13.260 0.000 0.000 13.06 13.220 13.330 13.260 100.000 100.000 0.007 13.08 13.230 13.370 13.300 13.04 13.200 13.290 13.220 13.080 13.300 13.040 13.220 15.035 15.035 0.000 15.233 15.233 0.000
PRIMET_226 2016-09-27 21:45:00 226 156.7 0.00 195 0.007 0.007 208.500 0.074 13.130 13.310 0.000 0.000 13.13 13.260 13.390 13.310 100.000 100.000 0.007 13.20 13.310 13.410 13.340 13.07 13.220 13.360 13.280 13.200 13.340 13.070 13.280 15.104 15.104 0.000 15.283 15.283 0.000
PRIMET_226 2016-09-27 21:40:00 226 156.7 0.00 178 0.007 0.007 208.500 0.069 13.230 13.380 0.000 0.000 13.23 13.360 13.460 13.380 100.000 100.000 0.007 13.27 13.410 13.520 13.420 13.20 13.310 13.410 13.340 13.270 13.420 13.200 13.340 15.203 15.203 0.000 15.353 15.353 0.000
PRIMET_226 2016-09-27 21:35:00 226 156.7 0.00 182 0.007 0.007 208.500 0.069 13.280 13.440 0.000 0.000 13.28 13.440 13.540 13.440 100.000 100.000 0.007 13.31 13.470 13.580 13.480 13.26 13.420 13.510 13.410 13.310 13.480 13.260 13.410 15.253 15.253 0.000 15.413 15.413 0.000
PRIMET_226 2016-09-27 21:30:00 226 156.7 0.00 184 0.007 0.007 208.500 0.069 13.320 13.500 0.000 0.000 13.32 13.490 13.600 13.500 100.000 100.000 0.007 13.33 13.520 13.640 13.530 13.30 13.470 13.570 13.470 13.330 13.530 13.300 13.470 15.293 15.293 0.000 15.473 15.473 0.000
PRIMET_226 2016-09-27 21:25:00 226 156.7 0.00 187 0.007 0.007 208.500 0.063 13.350 13.570 0.000 0.000 13.35 13.530 13.650 13.570 100.000 100.000 0.007 13.38 13.570 13.680 13.600 13.32 13.520 13.630 13.540 13.380 13.600 13.320 13.540 15.323 15.323 0.000 15.544 15.544 -0.000
PRIMET_226 2016-09-27 21:20:00 226 156.7 0.00 195 0.007 0.007 208.500 0.074 13.400 13.620 0.000 0.002 13.40 13.600 13.720 13.630 100.000 100.000 0.007 13.44 13.630 13.740 13.660 13.37 13.570 13.690 13.590 13.440 13.650 13.370 13.590 15.373 15.373 0.000 15.605 15.595 0.000
PRIMET_226 2016-09-27 21:15:00 226 156.7 0.00 186 0.007 0.007 208.500 0.063 13.470 13.690 0.000 0.013 13.47 13.660 13.790 13.700 100.000 99.900 0.007 13.51 13.690 13.820 13.730 13.43 13.620 13.740 13.650 13.510 13.710 13.430 13.640 15.443 15.443 0.000 15.676 15.666 0.016
PRIMET_226 2016-09-27 21:10:00 226 156.7 0.00 196 0.007 0.007 208.500 0.069 13.560 13.730 0.000 0.030 13.56 13.710 13.850 13.760 100.000 99.800 0.007 13.61 13.740 13.880 13.810 13.51 13.680 13.810 13.720 13.610 13.770 13.510 13.700 15.534 15.534 0.000 15.737 15.707 0.031
PRIMET_226 2016-09-27 21:05:00 226 156.7 0.00 191 0.007 0.007 208.500 0.063 13.630 13.780 0.000 0.049 13.63 13.780 13.910 13.830 100.000 99.700 0.007 13.66 13.820 13.950 13.870 13.62 13.730 13.880 13.800 13.660 13.810 13.620 13.750 15.605 15.605 0.000 15.809 15.758 0.047
PRIMET_226 2016-09-27 21:00:00 226 156.7 0.00 195 0.007 0.007 208.500 0.074 13.640 13.840 0.000 0.064 13.64 13.840 13.970 13.900 100.000 99.600 0.007 13.66 13.850 13.990 13.940 13.63 13.820 13.940 13.870 13.660 13.870 13.630 13.810 15.615 15.615 -0.000 15.881 15.819 0.064
PRIMET_226 2016-09-27 20:55:00 226 156.7 0.00 187 0.007 0.007 208.500 0.074 13.640 13.840 0.000 0.102 13.64 13.820 13.980 13.940 100.000 99.400 0.007 13.67 13.850 14.000 13.970 13.62 13.780 13.950 13.920 13.670 13.860 13.620 13.820 15.615 15.615 -0.000 15.923 15.819 0.096
PRIMET_226 2016-09-27 20:50:00 226 156.7 0.00 196 0.007 0.007 208.500 0.074 13.730 13.860 0.000 0.137 13.73 13.860 14.000 14.000 100.000 99.100 0.007 13.79 13.910 14.050 14.040 13.67 13.810 13.960 13.960 13.790 13.900 13.670 13.840 15.707 15.707 0.000 15.985 15.840 0.144
PRIMET_226 2016-09-27 20:45:00 226 156.7 0.00 196 0.007 0.007 208.500 0.069 13.880 13.960 0.000 0.142 13.88 14.000 14.140 14.100 100.000 99.100 0.007 13.96 14.100 14.200 14.140 13.79 13.920 14.060 14.040 13.960 13.990 13.790 13.900 15.861 15.861 0.000 16.089 15.943 0.145
PRIMET_226 2016-09-27 20:40:00 226 156.7 0.00 195 0.007 0.007 208.400 0.074 14.000 14.010 0.000 0.168 14.00 14.130 14.240 14.170 100.000 99.000 0.007 14.04 14.160 14.260 14.210 13.96 14.100 14.200 14.140 14.040 14.040 13.960 13.990 15.985 15.985 0.000 16.162 15.995 0.162
PRIMET_226 2016-09-27 20:35:00 226 156.7 0.00 191 0.007 0.007 208.400 0.063 14.060 14.050 0.000 0.201 14.06 14.180 14.290 14.240 100.000 98.800 0.007 14.09 14.220 14.340 14.280 14.03 14.140 14.260 14.200 14.090 14.070 14.030 14.020 16.047 16.047 0.000 16.235 16.037 0.195
PRIMET_226 2016-09-27 20:30:00 226 156.7 0.00 196 0.007 0.007 208.400 0.069 14.110 14.090 0.000 0.229 14.11 14.260 14.360 14.310 100.000 98.600 0.007 14.13 14.280 14.380 14.340 14.09 14.230 14.330 14.270 14.130 14.120 14.090 14.070 16.099 16.099 0.000 16.309 16.078 0.228
PRIMET_226 2016-09-27 20:25:00 226 156.7 0.00 184 0.007 0.007 208.400 0.074 14.120 14.110 0.000 0.274 14.12 14.290 14.410 14.370 100.000 98.300 0.007 14.13 14.300 14.430 14.400 14.11 14.280 14.390 14.340 14.130 14.130 14.110 14.100 16.110 16.110 0.000 16.372 16.099 0.278
PRIMET_226 2016-09-27 20:20:00 226 156.7 0.00 192 0.007 0.007 208.200 0.069 14.130 14.150 0.000 0.310 14.13 14.310 14.450 14.450 100.000 98.100 0.007 14.15 14.330 14.480 14.480 14.12 14.300 14.430 14.400 14.150 14.170 14.120 14.120 16.120 16.120 0.000 16.457 16.141 0.313
PRIMET_226 2016-09-27 20:15:00 226 156.7 0.00 196 0.007 0.007 208.200 0.063 14.170 14.200 0.001 0.339 14.17 14.360 14.530 14.520 100.000 97.900 0.007 14.19 14.380 14.570 14.570 14.16 14.330 14.470 14.480 14.180 14.230 14.160 14.160 16.162 16.162 0.000 16.532 16.193 0.347
PRIMET_226 2016-09-27 20:10:00 226 156.7 0.00 196 0.007 0.007 208.200 0.074 14.190 14.250 0.028 0.371 14.21 14.410 14.620 14.600 99.800 97.800 0.007 14.25 14.460 14.660 14.640 14.18 14.380 14.580 14.560 14.210 14.280 14.160 14.220 16.204 16.183 0.032 16.618 16.246 0.366
PRIMET_226 2016-09-27 20:05:00 226 156.7 0.00 195 0.007 0.007 208.300 0.074 14.250 14.310 0.067 0.398 14.31 14.510 14.710 14.690 99.600 97.600 0.007 14.36 14.560 14.750 14.730 14.26 14.460 14.670 14.640 14.290 14.340 14.210 14.280 16.309 16.246 0.065 16.715 16.309 0.401
PRIMET_226 2016-09-27 20:00:00 226 156.7 0.00 192 0.007 0.007 208.300 0.084 14.340 14.370 0.106 0.429 14.44 14.590 14.780 14.770 99.400 97.400 0.007 14.54 14.650 14.810 14.810 14.37 14.550 14.740 14.710 14.430 14.400 14.290 14.320 16.447 16.341 0.099 16.801 16.372 0.437
PRIMET_226 2016-09-27 19:55:00 226 156.7 0.00 196 0.007 0.007 208.300 0.079 14.500 14.410 0.093 0.460 14.58 14.710 14.850 14.830 99.400 97.300 0.007 14.62 14.770 14.900 14.870 14.54 14.650 14.800 14.800 14.530 14.430 14.440 14.390 16.596 16.511 0.100 16.866 16.415 0.455
PRIMET_226 2016-09-27 19:50:00 226 156.7 0.00 195 0.007 0.007 208.300 0.069 14.590 14.440 0.089 0.502 14.68 14.810 14.920 14.910 99.500 97.000 0.007 14.73 14.850 14.960 14.950 14.61 14.770 14.900 14.860 14.680 14.470 14.520 14.410 16.704 16.607 0.084 16.953 16.447 0.509
PRIMET_226 2016-09-27 19:45:00 226 156.7 0.00 195 0.007 0.007 208.300 0.069 14.690 14.500 0.067 0.532 14.75 14.900 15.010 14.990 99.600 96.900 0.007 14.77 14.920 15.050 15.040 14.73 14.860 14.960 14.960 14.710 14.530 14.660 14.480 16.779 16.715 0.067 17.041 16.511 0.528
PRIMET_226 2016-09-27 19:40:00 226 156.7 0.00 192 0.007 0.007 208.300 0.088 14.710 14.560 0.078 0.564 14.78 14.950 15.100 15.070 99.500 96.700 0.007 14.80 14.990 15.150 15.120 14.76 14.920 15.050 15.020 14.720 14.590 14.690 14.510 16.812 16.736 0.084 17.129 16.575 0.565
PRIMET_226 2016-09-27 19:35:00 226 156.7 0.00 196 0.007 0.007 208.000 0.069 14.700 14.610 0.130 0.604 14.82 15.000 15.170 15.160 99.200 96.500 0.007 14.87 15.050 15.220 15.210 14.78 14.970 15.140 15.110 14.750 14.650 14.670 14.570 16.855 16.725 0.135 17.228 16.628 0.603
PRIMET_226 2016-09-27 19:30:00 226 156.7 0.00 195 0.007 0.007 208.000 0.069 14.800 14.660 0.126 0.647 14.92 15.120 15.250 15.250 99.300 96.300 0.007 14.95 15.150 15.280 15.290 14.88 15.070 15.220 15.210 14.830 14.680 14.770 14.640 16.964 16.834 0.119 17.328 16.682 0.641
PRIMET_226 2016-09-27 19:25:00 226 156.7 0.00 188 0.007 0.007 208.100 0.069 14.800 14.690 0.172 0.706 14.96 15.170 15.310 15.330 99.000 95.900 0.007 14.97 15.190 15.330 15.390 14.93 15.140 15.280 15.290 14.810 14.720 14.760 14.660 17.008 16.834 0.170 17.418 16.715 0.714
PRIMET_226 2016-09-27 19:20:00 226 156.7 0.00 186 0.007 0.007 208.100 0.069 14.820 14.760 0.246 0.753 15.04 15.240 15.380 15.440 98.600 95.700 0.007 15.12 15.300 15.440 15.500 14.98 15.190 15.340 15.370 14.880 14.810 14.770 14.700 17.096 16.855 0.239 17.541 16.790 0.754
PRIMET_226 2016-09-27 19:15:00 226 156.7 0.00 195 0.007 0.007 208.100 0.069 14.940 14.840 0.248 0.786 15.16 15.390 15.510 15.550 98.600 95.500 0.007 15.20 15.450 15.580 15.600 15.11 15.310 15.440 15.500 14.960 14.880 14.880 14.800 17.228 16.986 0.241 17.665 16.877 0.795
PRIMET_226 2016-09-27 19:10:00 226 156.7 0.00 184 0.007 0.007 208.100 0.079 15.050 14.900 0.261 0.834 15.29 15.480 15.610 15.650 98.500 95.300 0.007 15.35 15.520 15.640 15.700 15.21 15.450 15.570 15.610 15.120 14.940 14.960 14.870 17.373 17.107 0.261 17.779 16.942 0.836
PRIMET_226 2016-09-27 19:05:00 226 156.7 0.00 197 0.007 0.007 208.100 0.063 15.150 14.980 0.281 0.871 15.41 15.570 15.710 15.760 98.400 95.100 0.007 15.49 15.650 15.760 15.820 15.34 15.530 15.660 15.690 15.240 15.030 15.110 14.920 17.507 17.217 0.280 17.904 17.030 0.877
PRIMET_226 2016-09-27 19:00:00 226 156.7 0.00 195 0.007 0.007 208.100 0.069 15.270 15.060 0.280 0.905 15.52 15.680 15.800 15.870 98.400 95.000 0.007 15.56 15.720 15.850 15.910 15.49 15.650 15.770 15.820 15.310 15.090 15.240 15.030 17.631 17.351 0.282 18.031 17.118 0.902
PRIMET_226 2016-09-27 18:55:00 226 156.7 0.00 195 0.007 0.007 208.100 0.069 15.360 15.140 0.281 0.942 15.61 15.770 15.910 15.970 98.400 94.800 0.007 15.66 15.830 15.970 16.030 15.56 15.720 15.850 15.920 15.400 15.170 15.320 15.100 17.733 17.451 0.284 18.146 17.206 0.944
PRIMET_226 2016-09-27 18:50:00 226 156.7 0.00 191 0.007 0.007 208.100 0.069 15.490 15.220 0.266 0.990 15.73 15.900 16.030 16.090 98.500 94.600 0.007 15.78 15.950 16.080 16.150 15.66 15.830 15.970 16.040 15.560 15.260 15.400 15.190 17.870 17.597 0.268 18.286 17.295 0.987
PRIMET_226 2016-09-27 18:45:00 226 156.7 0.00 196 0.007 0.007 208.100 0.069 15.560 15.310 0.256 1.041 15.79 15.990 16.150 16.220 98.600 94.400 0.007 15.81 16.040 16.200 16.280 15.76 15.950 16.090 16.160 15.580 15.350 15.530 15.270 17.939 17.676 0.251 18.438 17.395 1.033
PRIMET_226 2016-09-27 18:40:00 226 156.7 0.00 195 0.007 0.007 208.100 0.074 15.600 15.370 0.263 1.101 15.83 16.080 16.250 16.320 98.500 94.100 0.007 15.84 16.100 16.290 16.370 15.81 16.040 16.200 16.270 15.620 15.400 15.540 15.330 17.985 17.722 0.270 18.556 17.462 1.095
PRIMET_226 2016-09-27 18:35:00 226 156.7 0.00 195 0.007 0.007 208.100 0.074 15.610 15.420 0.301 1.170 15.87 16.140 16.340 16.440 98.300 93.700 0.007 15.92 16.180 16.390 16.490 15.82 16.080 16.290 16.380 15.660 15.450 15.540 15.390 18.031 17.733 0.307 18.698 17.518 1.178
PRIMET_226 2016-09-27 18:30:00 226 156.7 0.00 196 0.007 0.007 208.100 0.069 15.670 15.460 0.323 1.282 15.95 16.210 16.430 16.570 98.200 93.200 0.007 15.99 16.250 16.480 16.640 15.91 16.170 16.380 16.500 15.690 15.500 15.650 15.440 18.123 17.801 0.326 18.854 17.563 1.282
PRIMET_226 2016-09-27 18:25:00 226 156.7 0.00 196 0.007 0.007 208.100 0.069 15.710 15.520 0.381 1.370 16.04 16.320 16.550 16.700 97.900 92.800 0.007 16.09 16.360 16.600 16.750 15.99 16.250 16.490 16.640 15.740 15.560 15.680 15.490 18.228 17.847 0.383 19.010 17.631 1.369
PRIMET_226 2016-09-27 18:20:00 226 156.7 0.00 190 0.007 0.007 208.100 0.063 15.740 15.550 0.459 1.468 16.13 16.370 16.620 16.800 97.500 92.300 0.007 16.20 16.420 16.660 16.860 16.09 16.350 16.590 16.750 15.770 15.570 15.720 15.540 18.333 17.881 0.458 19.131 17.665 1.473
PRIMET_226 2016-09-27 18:15:00 226 156.7 0.00 182 0.007 0.007 208.100 0.074 15.810 15.570 0.519 1.599 16.26 16.480 16.700 16.920 97.200 91.700 0.007 16.31 16.530 16.760 16.990 16.20 16.430 16.660 16.860 15.850 15.600 15.770 15.540 18.485 17.962 0.518 19.277 17.688 1.600
PRIMET_226 2016-09-27 18:10:00 226 156.7 0.00 196 0.007 0.007 208.100 0.069 15.880 15.620 0.574 1.692 16.37 16.610 16.820 17.050 96.900 91.300 0.007 16.43 16.660 16.880 17.110 16.31 16.530 16.760 16.990 15.900 15.650 15.850 15.580 18.615 18.042 0.577 19.437 17.745 1.691
PRIMET_226 2016-09-27 18:05:00 226 156.7 0.00 192 0.007 0.007 208.000 0.063 15.920 15.650 0.668 1.805 16.48 16.730 16.950 17.170 96.400 90.800 0.007 16.54 16.770 16.980 17.210 16.41 16.670 16.880 17.100 15.950 15.670 15.880 15.630 18.746 18.088 0.675 19.585 17.779 1.802
PRIMET_226 2016-09-27 18:00:00 226 156.7 0.00 173 0.007 0.007 208.000 0.069 15.980 15.680 0.743 1.919 16.61 16.840 17.050 17.280 96.100 90.300 0.007 16.66 16.900 17.120 17.350 16.55 16.780 16.990 17.220 16.010 15.710 15.950 15.650 18.902 18.158 0.737 19.722 17.813 1.913
PRIMET_226 2016-09-27 17:55:00 226 156.7 0.00 196 0.007 0.007 208.000 0.074 16.030 15.720 0.834 2.023 16.73 16.970 17.200 17.410 95.600 89.800 0.007 16.80 17.040 17.280 17.470 16.68 16.910 17.130 17.340 16.070 15.750 15.990 15.700 19.046 18.216 0.838 19.885 17.859 2.028
PRIMET_226 2016-09-27 17:50:00 226 156.7 0.00 196 0.007 0.007 207.900 0.134 16.080 15.770 0.904 2.130 16.84 17.080 17.330 17.540 95.300 89.400 0.007 16.90 17.150 17.410 17.620 16.80 17.050 17.280 17.480 16.110 15.790 16.060 15.750 19.180 18.274 0.901 20.048 17.916 2.125
PRIMET_226 2016-09-27 17:45:00 226 156.7 0.00 187 0.007 0.007 207.900 0.093 16.130 15.800 1.010 2.316 16.98 17.230 17.500 17.710 94.800 88.600 0.007 17.05 17.300 17.560 17.780 16.91 17.160 17.420 17.630 16.170 15.830 16.100 15.780 19.351 18.333 1.006 20.264 17.950 2.310
PRIMET_226 2016-09-27 17:40:00 226 156.7 0.00 191 0.007 0.007 208.000 0.069 16.210 15.850 1.098 2.436 17.12 17.350 17.610 17.850 94.400 88.100 0.007 17.18 17.410 17.690 17.900 17.05 17.300 17.560 17.780 16.220 15.880 16.170 15.810 19.523 18.426 1.093 20.444 18.008 2.433
PRIMET_226 2016-09-27 17:35:00 226 156.7 0.00 182 0.007 0.007 207.800 0.093 16.280 15.890 1.200 2.587 17.27 17.500 17.760 18.000 93.900 87.500 0.007 17.35 17.570 17.860 18.100 17.18 17.420 17.690 17.920 16.320 15.930 16.220 15.860 19.709 18.509 1.202 20.638 18.054 2.580
PRIMET_226 2016-09-27 17:30:00 226 156.7 0.00 195 0.007 0.007 207.800 0.084 16.360 15.900 1.351 2.785 17.47 17.660 17.940 18.160 93.200 86.600 0.007 17.59 17.750 18.000 18.230 17.36 17.580 17.870 18.100 16.410 15.960 16.310 15.860 19.960 18.603 1.357 20.846 18.065 2.793
PRIMET_226 2016-09-27 17:25:00 226 156.7 0.00 197 0.007 0.007 207.300 0.345 16.450 16.030 1.514 2.876 17.68 17.850 18.090 18.340 92.500 86.400 0.007 17.76 17.940 18.190 18.440 17.58 17.770 18.010 18.250 16.500 16.080 16.400 15.970 20.226 18.710 1.517 21.083 18.216 2.867
PRIMET_226 2016-09-27 17:20:00 226 156.7 0.00 195 0.007 0.004 228.000 50.930 16.520 16.060 1.676 3.089 17.87 18.050 18.270 18.530 91.800 85.500 0.007 17.97 18.150 18.360 18.620 17.78 17.960 18.200 18.440 16.570 16.080 16.470 16.040 20.470 18.794 1.679 21.336 18.251 3.094
PRIMET_226 2016-09-27 17:15:00 226 156.7 0.00 194 0.007 0.007 340.200 0.069 16.590 16.070 1.884 3.336 18.10 18.270 18.470 18.730 90.900 84.600 0.007 18.22 18.370 18.570 18.840 17.99 18.170 18.370 18.630 16.650 16.120 16.550 16.050 20.768 18.878 1.890 21.604 18.263 3.327
PRIMET_226 2016-09-27 17:10:00 226 156.7 0.00 196 0.007 0.007 341.400 0.631 16.720 16.230 2.062 3.463 18.35 18.510 18.690 18.950 90.200 84.200 0.007 18.48 18.630 18.830 19.090 18.22 18.380 18.570 18.830 16.770 16.340 16.650 16.120 21.096 19.034 2.067 21.903 18.450 3.461
PRIMET_226 2016-09-27 17:05:00 226 156.7 0.00 195 0.007 0.007 341.700 0.056 16.790 16.340 2.322 3.692 18.61 18.750 18.930 19.220 89.200 83.400 0.007 18.70 18.850 19.050 19.330 18.49 18.650 18.830 19.090 16.840 16.380 16.710 16.290 21.443 19.119 2.316 22.275 18.580 3.698
PRIMET_226 2016-09-27 17:00:00 226 156.7 0.00 178 0.007 0.007 341.900 0.137 16.940 16.450 2.466 3.904 18.85 18.990 19.170 19.460 88.700 82.700 0.007 18.97 19.140 19.310 19.560 18.72 18.850 19.050 19.330 17.020 16.490 16.850 16.370 21.767 19.302 2.460 22.610 18.710 3.912
PRIMET_226 2016-09-27 16:55:00 226 156.7 0.00 196 0.007 0.007 341.900 0.063 16.990 16.470 2.780 4.257 19.13 19.270 19.450 19.730 87.400 81.500 0.007 19.26 19.450 19.640 19.900 18.98 19.140 19.320 19.570 17.100 16.540 16.860 16.420 22.150 19.363 2.791 22.992 18.734 4.254
PRIMET_226 2016-09-27 16:50:00 226 156.7 0.00 195 0.032 0.032 341.400 0.125 16.890 16.390 3.280 4.791 19.40 19.550 19.720 20.030 85.400 79.550 0.255 19.52 19.680 19.870 20.190 19.29 19.460 19.630 19.900 17.010 16.470 16.730 16.260 22.526 19.241 3.289 23.424 18.639 4.790
PRIMET_226 2016-09-27 16:45:00 226 156.7 0.00 195 0.007 0.006 344.500 14.780 16.590 15.970 4.026 5.777 19.67 19.840 20.020 20.370 82.400 75.860 0.007 19.81 19.970 20.140 20.490 19.54 19.700 19.880 20.230 16.890 16.360 16.230 15.590 22.907 18.878 4.032 23.921 18.146 5.775
PRIMET_226 2016-09-27 16:40:00 226 156.7 0.00 196 0.040 0.006 338.200 75.040 16.330 15.710 4.716 6.512 19.94 20.140 20.310 20.670 79.750 73.280 0.255 20.04 20.260 20.470 20.850 19.82 19.990 20.160 20.500 16.490 16.020 16.200 15.590 23.294 18.568 4.717 24.368 17.847 6.511
PRIMET_226 2016-09-27 16:35:00 226 156.7 0.00 178 0.184 0.148 264.100 35.450 16.060 15.220 5.358 7.567 20.16 20.370 20.620 21.000 77.310 69.560 0.797 20.26 20.470 20.710 21.110 20.05 20.280 20.500 20.880 16.450 15.570 15.750 14.680 23.613 18.251 5.358 24.867 17.295 7.570
PRIMET_226 2016-09-27 16:30:00 226 156.7 0.00 192 0.169 0.137 256.500 35.030 16.210 15.270 5.729 8.050 20.53 20.680 20.940 21.350 76.290 68.310 0.725 20.76 20.910 21.190 21.620 20.29 20.410 20.670 21.130 16.650 15.500 16.040 15.070 24.158 18.426 5.728 25.407 17.351 8.051
PRIMET_226 2016-09-27 16:25:00 226 156.7 0.00 192 0.247 0.203 305.100 34.040 16.230 15.090 6.526 9.050 21.07 21.270 21.550 21.850 73.880 65.460 1.091 21.32 21.500 21.770 22.110 20.78 20.970 21.250 21.650 16.520 15.580 15.870 14.660 24.974 18.450 6.523 26.195 17.151 9.048
PRIMET_226 2016-09-27 16:20:00 226 156.7 0.00 182 0.458 0.386 248.500 32.010 15.820 14.740 7.395 9.910 21.33 21.610 21.900 22.160 70.860 62.850 0.987 21.43 21.830 22.100 22.260 21.16 21.360 21.680 21.990 16.520 15.450 14.490 13.860 25.376 17.973 7.394 26.695 16.769 9.917
PRIMET_226 2016-09-27 16:15:00 226 156.7 0.00 188 0.739 0.598 224.500 35.430 15.650 14.720 7.690 10.070 21.40 21.780 22.060 22.240 69.830 62.450 1.640 21.51 22.010 22.290 22.310 21.24 21.480 21.790 22.150 16.570 15.720 14.310 13.710 25.485 17.779 7.689 26.825 16.747 10.073
PRIMET_226 2016-09-27 16:10:00 226 156.7 0.00 197 0.836 0.725 234.800 29.540 15.590 14.490 7.313 9.910 21.11 21.430 21.740 21.980 70.800 62.480 1.947 21.30 21.710 22.010 22.190 20.85 21.100 21.390 21.760 16.390 15.210 14.620 13.860 25.036 17.710 7.310 26.404 16.500 9.907
PRIMET_226 2016-09-27 16:05:00 226 156.7 0.00 195 0.342 0.265 246.900 38.430 16.340 15.130 6.533 9.380 21.16 21.390 21.670 22.090 74.000 64.710 1.692 21.39 21.680 21.990 22.330 20.95 21.170 21.450 21.870 16.640 15.720 15.770 14.710 25.113 18.580 6.529 26.582 17.195 9.381